[[{"header":{"parameterUnit":"m.s-1","parameterCategory":1,"la1":30.6,"la2":28.766,"lo1":-90.7593,"lo2":-88.6598,"dy":0.0162,"dx":0.0183,"nx":116,"ny":114,"refTime":"2024-05-18T12:00:00:Z","depth":0,"parameterNumber":2,"parameterNumberName":"U-component_of_WINDS"},"data":[0.0,0.0,0.0,0.0,0.0,0.0,0.0,0.0,0.0,0.0,0.0,0.0,0.0,0.0,0.0,0.0,0.0,0.0,0.0,0.0,0.0,0.0,0.0,0.0,0.0,0.0,0.0,0.0,0.0,0.0,0.0,0.0,0.0,0.0,0.0,0.0,0.0,0.0,0.0,0.0,0.0,0.0,0.0,0.0,0.0,0.0,0.0,0.0,0.0,0.0,0.0,0.0,0.0,0.0,0.0,0.0,0.0,0.0,0.0,0.0,0.0,0.0,0.0,0.0,0.0,0.0,0.0,0.0,0.0,0.0,0.0,0.0,0.0,0.0,0.0,0.0,0.0,0.0,0.0,0.0,0.0,0.0,0.0,0.0,0.0,0.0,0.0,0.0,0.0,0.0,0.0,0.0,0.0,0.0,0.0,0.0,0.0,0.0,0.0,0.0,0.0,0.0,0.0,0.0,0.0,0.0,0.0,0.0,0.0,0.0,0.0,0.0,0.0,0.0,0.0,0.0,0.0,0.0,0.0,0.0,0.0,0.0,0.0,0.0,0.0,0.0,0.0,0.0,0.0,0.0,0.0,0.0,0.0,0.0,0.0,0.0,0.0,0.0,0.0,0.0,0.0,0.0,0.0,0.0,0.0,0.0,0.0,0.0,0.0,0.0,0.0,0.0,0.0,0.0,0.0,0.0,0.0,0.0,0.0,0.0,0.0,0.0,0.0,0.0,0.0,0.0,0.0,0.0,0.0,0.0,0.0,0.0,0.0,0.0,0.0,0.0,0.0,0.0,0.0,0.0,0.0,0.0,0.0,0.0,0.0,0.0,0.0,0.0,0.0,0.0,0.0,0.0,0.0,0.0,0.0,0.0,0.0,0.0,0.0,0.0,0.0,0.0,0.0,0.0,0.0,0.0,0.0,0.0,0.0,0.0,0.0,0.0,0.0,0.0,0.0,0.0,0.0,0.0,0.0,0.0,0.0,0.0,0.0,0.0,0.0,0.0,0.0,0.0,0.0,0.0,0.0,0.0,0.0,0.0,0.0,0.0,0.0,0.0,0.0,0.0,0.0,0.0,0.0,0.0,0.0,0.0,0.0,0.0,0.0,0.0,0.0,0.0,0.0,0.0,0.0,0.0,0.0,0.0,0.0,0.0,0.0,0.0,0.0,0.0,0.0,0.0,0.0,0.0,0.0,0.0,0.0,0.0,0.0,0.0,0.0,0.0,0.0,0.0,0.0,0.0,0.0,0.0,0.0,0.0,0.0,0.0,0.0,0.0,0.0,0.0,0.0,0.0,0.0,0.0,0.0,0.0,0.0,0.0,0.0,0.0,0.0,0.0,0.0,0.0,0.0,0.0,0.0,0.0,0.0,0.0,0.0,0.0,0.0,0.0,0.0,0.0,0.0,0.0,0.0,0.0,0.0,0.0,0.0,0.0,0.0,0.0,0.0,0.0,0.0,0.0,0.0,0.0,0.0,0.0,0.0,0.0,0.0,0.0,0.0,0.0,0.0,0.0,0.0,0.0,0.0,0.0,0.0,0.0,0.0,0.0,0.0,0.0,0.0,0.0,0.0,0.0,0.0,0.0,0.0,0.0,0.0,0.0,0.0,0.0,0.0,0.0,0.0,0.0,0.0,0.0,0.0,0.0,0.0,0.0,0.0,0.0,0.0,0.0,0.0,0.0,0.0,0.0,0.0,0.0,0.0,0.0,0.0,0.0,0.0,0.0,0.0,0.0,0.0,0.0,0.0,0.0,0.0,0.0,0.0,0.0,0.0,0.0,0.0,0.0,0.0,0.0,0.0,0.0,0.0,0.0,0.0,0.0,0.0,0.0,0.0,0.0,0.0,0.0,0.0,0.0,0.0,0.0,0.0,0.0,0.0,0.0,0.0,0.0,0.0,0.0,0.0,0.0,0.0,0.0,0.0,0.0,0.0,0.0,0.0,0.0,0.0,0.0,0.0,0.0,0.0,0.0,0.0,0.0,0.0,0.0,0.0,0.0,0.0,0.0,0.0,0.0,0.0,0.0,0.0,0.0,0.0,0.0,0.0,0.0,0.0,0.0,0.0,0.0,0.0,0.0,0.0,0.0,0.0,0.0,0.0,0.0,0.0,0.0,0.0,0.0,0.0,0.0,0.0,0.0,0.0,0.0,0.0,0.0,0.0,0.0,0.0,0.0,0.0,0.0,0.0,0.0,0.0,0.0,0.0,0.0,0.0,0.0,0.0,0.0,0.0,0.0,0.0,0.0,0.0,0.0,0.0,0.0,0.0,0.0,0.0,0.0,0.0,0.0,0.0,0.0,0.0,0.0,0.0,0.0,0.0,0.0,0.0,0.0,0.0,0.0,0.0,0.0,0.0,0.0,0.0,0.0,0.0,0.0,0.0,0.0,0.0,0.0,0.0,0.0,0.0,0.0,0.0,0.0,0.0,0.0,0.0,0.0,0.0,0.0,0.0,0.0,0.0,0.0,0.0,0.0,0.0,0.0,0.0,0.0,0.0,0.0,0.0,0.0,0.0,0.0,0.0,0.0,0.0,0.0,0.0,0.0,0.0,0.0,0.0,0.0,0.0,0.0,0.0,0.0,0.0,0.0,0.0,0.0,0.0,0.0,0.0,0.0,0.0,0.0,0.0,0.0,0.0,0.0,0.0,0.0,0.0,0.0,0.0,0.0,0.0,0.0,0.0,0.0,0.0,0.0,0.0,0.0,0.0,0.0,0.0,0.0,0.0,0.0,0.0,0.0,0.0,0.0,0.0,0.0,0.0,0.0,0.0,0.0,0.0,0.0,0.0,0.0,0.0,0.0,0.0,0.0,0.0,0.0,0.0,0.0,0.0,0.0,0.0,0.0,0.0,0.0,0.0,0.0,0.0,0.0,0.0,0.0,0.0,0.0,0.0,0.0,0.0,0.0,0.0,0.0,0.0,0.0,0.0,0.0,0.0,0.0,0.0,0.0,0.0,0.0,0.0,0.0,0.0,0.0,0.0,0.0,0.0,0.0,0.0,0.0,0.0,0.0,0.0,0.0,0.0,0.0,0.0,0.0,0.0,0.0,0.0,0.0,0.0,0.0,0.0,0.0,0.0,0.0,0.0,0.0,0.0,0.0,0.0,0.0,0.0,0.0,0.0,0.0,0.0,0.0,0.0,0.0,0.0,0.0,0.0,0.0,0.0,0.0,0.0,0.0,0.0,0.0,0.0,0.0,0.0,0.0,0.0,0.0,0.0,0.0,0.0,0.0,0.0,0.0,0.0,0.0,0.0,0.0,0.0,0.0,0.0,0.0,0.0,0.0,0.0,0.0,0.0,0.0,0.0,0.0,0.0,0.0,0.0,0.0,0.0,0.0,0.0,0.0,0.0,0.0,0.0,0.0,0.0,0.0,0.0,0.0,0.0,0.0,0.0,0.0,0.0,0.0,0.0,0.0,0.0,0.0,0.0,0.0,0.0,0.0,0.0,0.0,0.0,0.0,0.0,0.0,0.0,0.0,0.0,0.0,0.0,0.0,0.0,0.0,0.0,0.0,0.0,0.0,0.0,0.0,0.0,0.0,0.0,0.0,0.0,0.0,0.0,0.0,0.0,0.0,0.0,0.0,0.0,0.0,0.0,0.0,0.0,0.0,0.0,0.0,0.0,0.0,0.0,0.0,0.0,0.0,0.0,0.0,0.0,0.0,0.0,0.0,0.0,0.0,0.0,0.0,0.0,0.0,0.0,0.0,0.0,0.0,0.0,0.0,0.0,0.0,0.0,0.0,0.0,0.0,0.0,0.0,0.0,0.0,0.0,0.0,0.0,0.0,0.0,0.0,0.0,0.0,0.0,0.0,0.0,0.0,0.0,0.0,0.0,0.0,0.0,0.0,0.0,0.0,0.0,0.0,0.0,0.0,0.0,0.0,0.0,0.0,0.0,0.0,0.0,0.0,0.0,0.0,0.0,0.0,0.0,0.0,0.0,0.0,0.0,0.0,0.0,0.0,0.0,0.0,0.0,0.0,0.0,0.0,0.0,0.0,0.0,0.0,0.0,0.0,0.0,0.0,0.0,0.0,0.0,0.0,0.0,0.0,0.0,0.0,0.0,0.0,0.0,0.0,0.0,0.0,0.0,0.0,0.0,0.0,0.0,0.0,0.0,0.0,0.0,0.0,0.0,0.0,0.0,0.0,0.0,0.0,0.0,0.0,0.0,0.0,0.0,0.0,0.0,0.0,0.0,0.0,0.0,0.0,0.0,0.0,0.0,0.0,0.0,0.0,0.0,0.0,0.0,0.0,0.0,0.0,0.0,0.0,0.0,0.0,0.0,0.0,0.0,0.0,0.0,0.0,0.0,0.0,0.0,0.0,0.0,0.0,0.0,0.0,0.0,0.0,0.0,0.0,0.0,0.0,0.0,0.0,0.0,0.0,0.0,0.0,0.0,0.0,0.0,0.0,0.0,0.0,0.0,0.0,0.0,0.0,0.0,0.0,0.0,0.0,0.0,0.0,0.0,0.0,0.0,0.0,0.0,0.0,0.0,0.0,0.0,0.0,0.0,0.0,0.0,0.0,0.0,0.0,0.0,0.0,0.0,0.0,0.0,0.0,0.0,0.0,0.0,0.0,0.0,0.0,0.0,0.0,0.0,0.0,0.0,0.0,0.0,0.0,0.0,0.0,0.0,0.0,0.0,0.0,0.0,0.0,0.0,0.0,0.0,0.0,0.0,0.0,0.0,0.0,0.0,0.0,0.0,0.0,0.0,0.0,0.0,0.0,0.0,0.0,0.0,0.0,0.0,0.0,0.0,0.0,0.0,0.0,0.0,0.0,0.0,0.0,0.0,0.0,0.0,0.0,0.0,0.0,0.0,0.0,0.0,0.0,0.0,0.0,0.0,0.0,0.0,0.0,0.0,0.0,0.0,0.0,0.0,0.0,0.0,0.0,0.0,0.0,0.0,0.0,0.0,0.0,0.0,0.0,0.0,0.0,0.0,0.0,0.0,0.0,0.0,0.0,0.0,0.0,0.0,0.0,0.0,0.0,0.0,0.0,0.0,0.0,0.0,0.0,0.0,0.0,0.0,0.0,0.0,0.0,0.0,0.0,0.0,0.0,0.0,0.0,0.0,0.0,0.0,0.0,0.0,0.0,0.0,0.0,0.0,0.0,0.0,0.0,0.0,0.0,0.0,0.0,0.0,0.0,0.0,0.0,0.0,0.0,0.0,0.0,0.0,0.0,0.0,0.0,0.0,0.0,0.0,0.0,0.0,0.0,0.0,0.0,0.0,0.0,0.0,0.0,0.0,0.0,0.0,0.0,0.0,0.0,0.0,0.0,0.0,0.0,0.0,0.0,0.0,0.0,0.0,0.0,0.0,0.0,0.0,0.0,0.0,0.0,0.0,0.0,0.0,0.0,0.0,0.0,0.0,0.0,0.0,0.0,0.0,0.0,0.0,0.0,0.0,0.0,0.0,0.0,0.0,0.0,0.0,0.0,0.0,0.0,0.0,0.0,0.0,0.0,0.0,0.0,0.0,0.0,0.0,0.0,0.0,0.0,0.0,0.0,0.0,0.0,0.0,0.0,0.0,0.0,0.0,0.0,0.0,0.0,0.0,0.0,0.0,0.0,0.0,0.0,0.0,0.0,0.0,0.0,0.0,0.0,0.0,0.0,0.0,0.0,0.0,0.0,0.0,0.0,0.0,0.0,0.0,0.0,0.0,0.0,0.0,0.0,0.0,0.0,0.0,0.0,0.0,0.0,0.0,0.0,0.0,0.0,0.0,0.0,0.0,0.0,0.0,0.0,0.0,0.0,0.0,0.0,0.0,0.0,0.0,0.0,0.0,0.0,0.0,0.0,0.0,0.0,0.0,0.0,0.0,0.0,0.0,0.0,0.0,0.0,0.0,0.0,0.0,0.0,0.0,0.0,0.0,0.0,0.0,0.0,0.0,0.0,0.0,0.0,0.0,0.0,0.0,0.0,0.0,0.0,0.0,0.0,0.0,0.0,0.0,0.0,0.0,0.0,0.0,0.0,0.0,0.0,0.0,0.0,0.0,0.0,0.0,0.0,0.0,0.0,0.0,0.0,0.0,0.0,0.0,0.0,0.0,0.0,0.0,0.0,0.0,0.0,0.0,0.0,-4.5832,0.0,0.0,0.0,0.0,0.0,0.0,0.0,0.0,0.0,0.0,0.0,0.0,0.0,0.0,0.0,0.0,0.0,0.0,0.0,0.0,0.0,0.0,0.0,0.0,-3.8614,-3.9881,-4.0838,-4.1273,-4.1274,-4.0756,0.0,0.0,0.0,0.0,0.0,-3.8988,-3.7889,-3.733,-3.733,-3.7535,-3.7632,-3.7632,-3.7467,-3.7207,-3.69,0.0,0.0,0.0,0.0,0.0,0.0,0.0,0.0,0.0,0.0,0.0,0.0,0.0,0.0,0.0,0.0,0.0,0.0,0.0,0.0,0.0,0.0,0.0,0.0,0.0,0.0,0.0,0.0,0.0,0.0,0.0,0.0,0.0,0.0,0.0,0.0,0.0,0.0,0.0,0.0,0.0,0.0,0.0,0.0,0.0,0.0,0.0,0.0,0.0,0.0,0.0,0.0,0.0,0.0,0.0,0.0,0.0,0.0,0.0,0.0,0.0,0.0,0.0,0.0,0.0,0.0,0.0,0.0,0.0,0.0,0.0,-4.578,0.0,0.0,0.0,0.0,0.0,0.0,0.0,0.0,0.0,0.0,0.0,0.0,0.0,0.0,0.0,0.0,0.0,0.0,0.0,0.0,0.0,-3.4935,-3.7097,-3.854,-3.9918,-4.1329,-4.2056,-4.2083,-4.1291,-4.124,0.0,0.0,0.0,-3.9216,-3.9174,-3.8464,-3.8091,-3.8091,-3.8227,-3.8345,-3.8481,-3.8481,-3.8123,-3.7463,-3.7184,0.0,0.0,0.0,0.0,0.0,0.0,0.0,0.0,0.0,0.0,0.0,0.0,0.0,0.0,0.0,0.0,0.0,0.0,0.0,0.0,0.0,0.0,0.0,0.0,0.0,0.0,0.0,0.0,0.0,0.0,0.0,0.0,0.0,0.0,0.0,0.0,0.0,0.0,0.0,0.0,0.0,0.0,0.0,0.0,0.0,0.0,0.0,0.0,0.0,0.0,0.0,0.0,0.0,0.0,0.0,0.0,0.0,0.0,0.0,0.0,0.0,0.0,0.0,-4.9058,-4.9114,-4.9812,-4.9812,-4.9407,-4.8618,-4.6489,-4.614,-4.6929,0.0,0.0,0.0,0.0,0.0,0.0,0.0,0.0,0.0,0.0,0.0,0.0,0.0,0.0,0.0,0.0,0.0,0.0,0.0,0.0,-3.4956,-3.7232,-3.821,-3.9284,-4.069,-4.093,-4.0864,-4.0622,-4.0622,0.0,0.0,-4.0178,-4.006,-3.996,-3.9225,-3.8853,-3.8853,-3.9503,-4.0121,-4.0764,-4.0764,-4.0375,-3.9617,-3.8326,-3.7721,-3.7528,0.0,0.0,0.0,0.0,0.0,0.0,0.0,0.0,0.0,0.0,0.0,0.0,0.0,0.0,0.0,0.0,0.0,0.0,0.0,0.0,0.0,0.0,0.0,0.0,0.0,0.0,0.0,0.0,0.0,0.0,0.0,0.0,0.0,0.0,0.0,0.0,0.0,0.0,0.0,0.0,0.0,-4.7842,-4.7267,0.0,0.0,0.0,0.0,0.0,0.0,0.0,0.0,0.0,0.0,0.0,0.0,0.0,-4.9886,-5.0472,-5.038,-5.0417,-5.0637,-5.0527,-5.0527,-5.0637,-5.0637,-5.0582,-5.0417,-4.9389,0.0,-4.7021,-4.5993,0.0,0.0,0.0,0.0,0.0,0.0,0.0,0.0,0.0,0.0,0.0,0.0,0.0,0.0,0.0,0.0,0.0,0.0,0.0,0.0,0.0,-3.8945,-4.0319,-4.1333,-4.2599,-4.2738,-4.131,-4.1652,-4.1423,-4.0339,-4.0305,-4.0238,-4.0096,-3.9791,-4.0003,-4.0849,-4.2059,-4.2557,-4.2455,-4.2455,-4.2049,-4.1339,-4.1102,-4.007,-3.8413,-3.6737,0.0,0.0,0.0,0.0,0.0,0.0,0.0,0.0,0.0,0.0,0.0,0.0,0.0,0.0,0.0,0.0,0.0,0.0,0.0,0.0,0.0,0.0,0.0,0.0,0.0,0.0,0.0,0.0,0.0,0.0,0.0,0.0,0.0,0.0,0.0,0.0,0.0,0.0,0.0,-4.7536,-4.8134,-4.7507,-4.8447,-4.8806,0.0,0.0,0.0,0.0,0.0,0.0,0.0,0.0,0.0,-5.0153,-5.025,-5.0435,-5.0802,-5.0802,-5.1041,-5.1463,-5.1463,-5.1463,-5.1463,-5.1463,-5.1224,-5.0784,-5.0417,-4.9572,-4.8361,-4.7076,-4.6104,-4.5259,0.0,0.0,0.0,0.0,0.0,-4.3608,0.0,0.0,0.0,0.0,0.0,0.0,0.0,0.0,0.0,0.0,0.0,0.0,-3.7616,-3.9825,-4.1412,-4.1964,-4.3733,-4.3993,-4.1965,-4.2248,-4.1856,-4.0455,-4.0404,-4.0337,-4.0213,-4.0536,-4.1527,-4.3166,-4.4141,-4.4384,-4.3967,-4.3809,-4.342,-4.2895,-4.347,-4.2269,-3.9749,-3.8325,-3.6713,-3.5008,0.0,0.0,0.0,0.0,0.0,0.0,0.0,0.0,0.0,0.0,0.0,0.0,0.0,0.0,0.0,0.0,0.0,0.0,0.0,0.0,0.0,0.0,0.0,0.0,0.0,0.0,0.0,0.0,0.0,0.0,0.0,0.0,0.0,0.0,0.0,0.0,0.0,-4.759,-4.801,-4.7454,-4.8467,-4.8763,0.0,0.0,0.0,0.0,0.0,0.0,-5.0105,-5.0453,-5.08,-5.1164,-5.1266,-5.1396,-5.1616,-5.1396,-5.1619,-5.2205,-5.2205,-5.2226,-5.2247,-5.2247,-5.1956,-5.1408,-5.1206,-5.0729,-5.0013,-4.8398,-4.726,-4.6434,-4.5627,-4.4947,-4.447,-4.4856,-4.5131,-4.537,0.0,0.0,0.0,0.0,0.0,0.0,0.0,0.0,0.0,0.0,0.0,-3.6835,-3.8392,-4.056,-4.1964,-4.2016,-4.281,-4.293,-4.2043,-4.1371,-4.0927,-4.0697,-4.0673,-4.0624,-4.0468,-4.1733,-4.3393,-4.5534,-4.4891,-4.4925,-4.5568,-4.4857,-4.453,-4.4496,-4.453,-4.365,-4.2066,-4.1158,-3.9522,-3.7384,-3.5673,0.0,0.0,0.0,0.0,0.0,0.0,0.0,0.0,0.0,0.0,0.0,0.0,0.0,0.0,0.0,0.0,0.0,0.0,0.0,0.0,0.0,0.0,0.0,0.0,0.0,0.0,0.0,0.0,0.0,0.0,0.0,0.0,0.0,0.0,0.0,0.0,0.0,0.0,-4.6669,-4.8294,0.0,0.0,0.0,0.0,-4.8441,-4.8491,-4.8792,-4.9412,-5.0252,-5.1329,-5.2638,-5.2696,-5.3061,-5.3827,-5.3079,-5.2714,-5.2751,-5.2751,-5.2817,-5.2947,-5.2947,-5.299,-5.3038,-5.227,-5.1903,-5.1738,-5.0143,-4.8948,-4.8104,-4.7278,-4.6947,-4.6819,-4.6104,-4.6324,-4.6874,0.0,0.0,0.0,0.0,0.0,-3.3885,-3.4143,-3.447,-3.4854,-3.5305,-3.6367,-3.7629,-3.9129,-4.0905,-4.2223,-4.2723,-4.3465,-4.3362,-4.2085,-4.1733,-4.134,-4.0731,-4.0697,-4.1045,-4.1776,-4.3301,-4.4871,-4.6413,-4.6716,-4.6716,-4.6397,-4.5652,-4.5043,-4.4649,-4.5585,-4.5449,-4.4401,-4.3094,-4.1218,-3.9,-3.7835,-3.5833,0.0,0.0,0.0,0.0,0.0,0.0,0.0,0.0,0.0,0.0,0.0,0.0,0.0,0.0,0.0,0.0,0.0,0.0,0.0,0.0,0.0,0.0,0.0,0.0,0.0,0.0,0.0,0.0,0.0,0.0,0.0,0.0,0.0,0.0,0.0,0.0,0.0,-4.8387,-4.959,0.0,-4.8802,-4.938,-4.9836,-4.988,-5.0345,-5.0945,-5.1679,-5.246,-5.3124,-5.3627,-5.4088,-5.4246,-5.4005,-5.3713,-5.3312,-5.2806,-5.2806,-5.2846,-5.2872,-5.2872,-5.2912,-5.2915,-5.2623,-5.2264,-5.1799,-5.0682,-4.9806,-4.904,-4.8214,-4.7865,-4.7847,-4.7553,-4.7627,-4.7828,0.0,0.0,0.0,0.0,-3.3275,-3.3929,-3.4306,-3.4796,-3.5313,-3.5907,-3.7077,-3.8444,-3.9922,-4.1705,-4.3,-4.3517,-4.4018,-4.3759,-4.2499,-4.193,-4.1364,-4.0786,-4.1267,-4.2123,-4.3379,-4.5005,-4.6425,-4.7619,-4.7674,-4.739,-4.6769,-4.5788,-4.506,-4.4649,-4.5872,-4.6295,-4.6007,-4.4993,-4.3196,-4.0972,-3.9849,-3.8011,-3.5826,0.0,0.0,0.0,0.0,0.0,0.0,0.0,0.0,0.0,0.0,0.0,0.0,0.0,0.0,0.0,0.0,0.0,0.0,0.0,0.0,0.0,0.0,0.0,0.0,0.0,0.0,0.0,0.0,0.0,0.0,0.0,0.0,0.0,0.0,0.0,-4.8511,-4.9245,-5.0312,-5.0669,-4.9786,-5.0357,-5.0807,-5.0882,-5.132,-5.1911,-5.266,-5.3419,-5.392,-5.4127,-5.4617,-5.4611,-5.4064,-5.3567,-5.3099,-5.2764,-5.2511,-5.2499,-5.2721,-5.2721,-5.2761,-5.2806,-5.2806,-5.2558,-5.2057,-5.0978,-5.0252,-4.9766,-4.8708,-4.8306,-4.8306,-4.8306,-4.8306,-4.8306,0.0,0.0,0.0,-3.2601,-3.3275,-3.4097,-3.4986,-3.5116,-3.5684,-3.7313,-3.8151,-3.9203,-4.0774,-4.2913,-4.4259,-4.4311,-4.4259,-4.3931,-4.3207,-4.174,-4.0912,-4.0929,-4.2413,-4.3855,-4.5201,-4.6739,-4.8059,-4.9199,-4.7767,-4.6978,-4.6832,-4.5343,-4.4632,-4.4682,-4.5382,-4.6109,-4.6752,-4.6752,-4.55,-4.3325,-4.1748,-4.0572,-3.9653,0.0,0.0,0.0,0.0,0.0,0.0,0.0,0.0,0.0,0.0,0.0,0.0,0.0,0.0,0.0,0.0,0.0,0.0,0.0,0.0,0.0,0.0,0.0,0.0,0.0,0.0,0.0,0.0,0.0,0.0,0.0,0.0,0.0,-4.6769,-4.8105,-4.9035,-4.9086,-5.0371,-5.0963,-5.0236,-5.0845,-5.1268,-5.1251,-5.1268,-5.1524,-5.2127,-5.2894,-5.361,-5.4203,-5.4232,-5.4232,-5.4197,-5.2723,-5.2208,-5.2692,-5.1943,-5.1957,-5.2568,-5.2545,-5.2613,-5.2761,-5.2761,-5.2761,-5.2674,-5.1052,-5.0396,-5.0253,-4.885,-4.8287,-4.8287,-4.8287,-4.8287,-4.8306,0.0,0.0,-3.2601,-3.2601,-3.3275,-3.4201,-3.5365,-3.5286,-3.5793,-3.7691,-3.833,-3.9388,-4.1481,-4.2275,-4.3086,-4.4207,-4.3293,-4.2551,-4.2344,-4.1429,-4.1153,-4.1671,-4.3172,-4.463,-4.5956,-4.7079,-4.8232,-4.9428,-4.8472,-4.7907,-4.7708,-4.6133,-4.5399,-4.5399,-4.5618,-4.5821,-4.6007,-4.6007,-4.5652,-4.4964,-4.3827,-4.229,-4.0606,0.0,0.0,0.0,0.0,0.0,0.0,0.0,0.0,0.0,0.0,0.0,0.0,0.0,0.0,0.0,0.0,0.0,0.0,0.0,0.0,0.0,0.0,0.0,0.0,0.0,0.0,0.0,0.0,0.0,0.0,0.0,0.0,-4.8173,-4.8376,-4.8748,-4.9593,-5.12,-5.1758,-5.1928,-5.1708,-5.2418,-5.2638,-5.2046,-5.2553,-5.2941,-5.3122,-5.3759,-5.4174,-5.4329,-5.4815,-5.4805,-5.4197,-5.3776,-5.3266,-5.2692,-5.2104,-5.1846,-5.1848,-5.1421,-5.1472,-5.1939,-5.1939,-5.2203,-5.2526,-5.0926,-5.0314,-5.0253,-4.8691,-4.8149,-4.8226,-4.8226,-4.8267,-4.8306,0.0,-3.1917,-3.2711,-3.3041,-3.3495,-3.4229,-3.5507,-3.5503,-3.6114,-3.8295,-3.8719,-3.9666,-4.1757,-4.1723,-4.2033,-4.3241,-4.224,-4.155,-4.155,-4.174,-4.2189,-4.2948,-4.4734,-4.6077,-4.6873,-4.8058,-4.8982,-4.959,-4.8871,-4.8407,-4.8209,-4.6595,-4.5841,-4.5784,-4.5479,-4.5456,-4.5686,-4.5365,-4.5415,-4.5635,-4.4772,-4.3592,-4.2341,-4.195,-4.1282,-4.0464,-3.9863,-3.9539,-3.9314,-3.858,0.0,0.0,0.0,0.0,0.0,0.0,0.0,0.0,0.0,0.0,0.0,0.0,0.0,0.0,0.0,0.0,0.0,0.0,0.0,0.0,0.0,0.0,0.0,0.0,-4.8173,-4.9323,-5.0253,-5.0388,-5.0862,-5.2147,-5.2604,-5.2807,-5.2807,-5.323,-5.3315,-5.2841,-5.3247,-5.3501,-5.3501,-5.3832,-5.4027,-5.4027,-5.4411,-5.4375,-5.3912,-5.3549,-5.3083,-5.2448,-5.1815,-5.1423,-5.1209,-5.0858,-5.0885,0.0,-5.1235,-5.1608,-5.2071,-5.0808,-5.028,0.0,0.0,0.0,0.0,0.0,-4.8208,-4.8267,0.0,-3.2455,-3.2949,-3.3678,-3.3807,-3.4243,-3.5571,-3.5729,-3.6552,-3.8956,-3.9234,-3.9896,-4.1805,-4.1343,-4.1205,-4.1947,-4.1412,-4.1101,-4.1274,-4.2637,-4.3793,-4.4535,-4.6665,-4.781,-4.781,-4.9252,-4.9906,-4.9737,-4.9056,-4.8672,-4.8509,-4.7056,-4.6288,-4.6113,-4.5382,-4.5337,-4.5788,-4.5139,-4.5162,-4.5652,-4.4976,-4.4581,-4.4254,-4.3625,-4.2889,-4.2085,-4.0771,-4.0214,-4.0018,-3.9336,0.0,0.0,0.0,0.0,0.0,0.0,0.0,0.0,0.0,0.0,0.0,0.0,0.0,0.0,0.0,0.0,0.0,0.0,0.0,0.0,0.0,0.0,0.0,0.0,-4.9272,-5.0067,-5.2029,-5.2384,-5.2435,-5.2435,-5.3078,-5.3501,-5.3501,-5.3501,-5.3534,-5.3619,-5.3619,-5.3619,-5.3619,0.0,0.0,0.0,0.0,-5.3501,-5.3501,-5.279,-5.232,-5.2101,-5.1356,-5.0887,-5.0616,-5.0535,-5.0562,-5.0616,-5.0616,-5.0955,-5.1447,-5.0645,-5.0116,-4.9738,-4.847,-4.799,-4.7992,-4.8128,-4.8168,0.0,0.0,-3.3332,-3.3623,-3.377,-3.3807,-3.4344,-3.5941,-3.5903,-3.6654,-3.9334,-3.9403,-3.9896,-4.1805,-4.1343,-4.1205,-4.1947,-4.1878,-4.2327,-4.3569,-4.4475,-4.5337,-4.613,-4.7707,-4.8586,-4.8586,-4.9528,-4.9982,-4.9935,-4.9646,-4.9456,-4.9426,-4.8419,-4.7858,-4.7631,-4.6901,-4.6576,-4.6583,-4.643,-4.6109,-4.5703,-4.5551,-4.5128,-4.4525,-4.4373,-4.4136,-4.3813,-4.3511,-4.3342,-4.3198,-4.3077,-4.27,-4.2284,-4.2284,-4.1565,0.0,0.0,0.0,0.0,0.0,0.0,0.0,0.0,0.0,0.0,0.0,0.0,0.0,0.0,0.0,0.0,0.0,0.0,0.0,-4.9712,-5.0879,-5.1809,-5.2249,-5.2858,-5.3264,-5.3264,-5.3416,-5.3501,-5.3501,-5.3501,-5.3754,-5.4329,-5.438,-5.438,-5.438,-5.438,0.0,-5.3518,-5.3501,-5.3501,-5.3501,-5.3348,-5.2881,-5.2071,0.0,0.0,-5.0045,-4.9538,-4.9598,-5.0056,-5.0056,-5.0377,-5.0805,-5.0022,-4.9181,-4.8373,-4.8061,-4.7922,-4.7925,-4.801,-4.8032,-4.8032,-3.3832,-3.3845,-3.3935,-3.4325,-3.4399,-3.4981,-3.6648,-3.672,-3.731,-3.9247,-3.9669,-4.0091,-4.0832,-4.042,-4.0078,-4.0038,-4.0545,-4.1843,-4.4156,-4.5372,-4.65,-4.7638,-4.8775,-4.9407,-4.9407,-4.9804,-5.0011,-5.0011,-4.9889,-4.986,-4.9842,-4.8982,-4.8506,-4.8309,-4.7471,-4.7031,-4.6903,-4.6815,-4.6363,-4.5703,-4.5703,-4.5263,-4.4615,-4.4615,-4.431,-4.3898,-4.3898,-4.3591,-4.3232,-4.3578,-4.3405,-4.3107,-4.3442,-4.3026,-4.2423,0.0,0.0,0.0,0.0,0.0,0.0,0.0,0.0,0.0,0.0,0.0,0.0,0.0,0.0,-4.8257,-4.9357,0.0,-4.9915,-5.1014,-5.1826,-5.2435,-5.2841,-5.3247,-5.3501,-5.3501,-5.3501,-5.3501,-5.3501,-5.3822,-5.4194,-5.4566,-5.4938,-5.5158,-5.5158,-5.4803,-5.4431,-5.4059,-5.3687,-5.3501,-5.3501,-5.3501,-5.2888,-5.166,-5.1329,-5.058,-4.9453,-4.9138,-4.9168,-4.9453,-4.9453,-4.9756,-5.0216,-4.9336,-4.8649,-4.8112,-4.7308,-4.7341,-4.7801,-4.7907,-4.7947,-4.7947,-3.4583,-3.4365,-3.4247,-3.4894,-3.5151,-3.5756,-3.7272,-3.7492,-3.7906,-3.9061,-3.9895,-4.0311,-4.0075,-3.9792,-3.9391,-3.8813,-3.9606,-4.1457,-4.4552,-4.6044,-4.7465,-4.8965,-4.9666,-5.0011,-5.0011,-5.0011,-5.0011,-5.0011,-5.0011,-5.0011,-4.9993,-4.9327,-4.8959,-4.8798,-4.802,-4.7602,-4.7415,-4.7297,-4.6747,-4.5923,-4.5923,-4.5382,-4.4615,-4.4615,-4.4236,-4.3706,-4.3542,-4.3183,-4.2818,-4.3216,-4.3353,-4.3476,-4.4039,-4.4184,-4.4066,-4.3354,-4.3141,0.0,0.0,0.0,0.0,0.0,0.0,0.0,0.0,-4.7428,-4.7851,-4.934,-4.9187,-4.9187,-5.0507,-5.076,-5.1183,-5.2536,-5.2739,-5.2976,-5.3619,-5.3602,-5.3501,-5.3501,-5.3501,-5.3501,-5.3501,-5.416,-5.4651,-5.4803,-5.5513,-5.5919,-5.5919,-5.5209,-5.4735,-5.4583,-5.3873,-5.3501,-5.3501,-5.3501,-5.2807,-5.1388,-5.1252,-5.0507,-4.9204,-4.9069,-4.9001,-4.9001,-4.9001,-4.929,-4.9653,-4.8667,-4.826,-4.8102,-4.6663,-4.6637,-4.7407,-4.7636,-4.7759,-4.7881,0.0,-3.5187,-3.4894,-3.4986,-3.5628,-3.645,-3.7364,-3.7492,-3.7906,-3.9061,-3.9895,-4.0509,-4.0826,-4.0836,-4.0881,-4.1091,-4.1516,-4.3044,-4.6148,-4.7131,-4.8269,-4.9804,-4.9959,-5.0011,-5.0011,-5.0011,-5.0011,-5.0011,-5.0011,-5.0011,-5.0011,-4.9907,-4.9768,-4.9571,-4.9473,-4.9244,-4.8944,-4.8961,-4.8056,-4.6667,-4.6667,-4.5821,-4.4615,-4.4615,-4.4542,-4.4395,-4.3752,-4.3856,-4.4253,-4.3676,-4.3914,-4.4457,-4.4514,-4.4542,-4.4525,-4.4429,-4.4395,-4.4395,-4.4367,-4.4395,-4.4733,-4.6164,-4.608,-4.6367,0.0,-4.9729,-5.0135,-5.1623,-5.1877,-5.208,-5.2959,-5.3129,-5.3399,-5.4194,-5.4329,-5.4363,-5.4448,-5.3907,-5.3501,-5.3501,-5.3501,-5.3501,-5.3501,-5.416,-5.4871,-5.5547,-5.6275,-5.6681,-5.6681,-5.5987,-5.5294,-5.4617,-5.3873,-5.3501,-5.3501,-5.3501,-5.3061,-5.2181,-5.1522,-5.0777,-4.9949,-4.9306,-4.9001,-4.9001,-4.9001,-4.9032,-4.9036,-4.81,-4.7686,-4.7568,-4.6529,-4.6172,-4.6334,-4.684,-4.7302,-4.7717,0.0,-3.6114,-3.645,-3.645,-3.6762,-3.7272,-3.8065,-3.8193,-3.8386,-3.8853,-3.9619,-4.0172,-4.0344,-4.0582,-4.0858,-4.1221,-4.1963,-4.3537,-4.6134,-4.719,-4.8407,-4.9942,-5.0011,-5.0011,-5.0011,-5.0011,-5.0011,-5.0011,-5.0011,-5.0011,-5.0011,-5.0011,-4.9964,-4.986,-4.9737,-4.959,-4.935,-4.926,-4.829,-4.6786,-4.6786,-4.5906,-4.4615,-4.4615,-4.4327,-4.3933,-4.4085,-4.4076,0.0,-4.4105,-4.4076,-4.403,-4.4468,-4.4052,-4.3523,-4.422,-4.3877,-4.3425,-4.4192,-4.4744,-4.5245,-4.5962,-4.6583,-4.7428,-4.9086,-4.9458,-4.9999,-5.1911,-5.1961,-5.2046,-5.3281,-5.3856,-5.4228,-5.4532,-5.4583,-5.4583,-5.4583,-5.3957,-5.3501,-5.3501,-5.3501,-5.3501,-5.3501,-5.416,-5.4905,-5.5649,-5.6393,-5.6985,-5.7408,-5.6342,-5.5581,-5.526,-5.411,-5.3501,-5.3501,-5.3501,-5.3095,-5.23,-5.1555,-5.0811,-5.0067,-4.934,-4.9001,-4.9001,-4.9001,-4.9001,-4.8883,-4.7644,-4.713,-4.7005,-4.5716,-4.5372,-4.5742,-4.659,-4.7039,-4.728,0.0,-3.6751,-3.7407,-3.7864,-3.7882,-3.8028,-3.8615,-3.8707,-3.8707,-3.8707,-3.9405,-3.9974,-4.0212,-4.0591,-4.0944,-4.1218,-4.2253,-4.3772,-4.5857,-4.7106,-4.8466,-5.0042,-5.0112,-5.0133,-5.0235,-5.0235,-5.0166,-5.0011,-5.0011,-5.008,-5.0235,-5.0235,-5.0302,-5.0425,-5.0126,-4.9924,-4.9744,-4.9248,-4.8192,-4.6827,-4.6624,-4.5777,-4.4615,-4.4615,-4.4096,-4.346,-4.3833,-4.3774,-4.3489,-4.3642,-4.3741,-4.3831,-4.3951,-4.3575,-4.3208,-4.3861,-4.3511,-4.3181,-4.4354,-4.5074,-4.5643,-4.6418,-4.7246,-4.8156,-4.9086,-4.9306,-4.9763,-5.1352,-5.1589,-5.186,-5.2959,-5.4126,-5.4905,-5.4905,-5.5074,-5.5141,-5.4921,-5.4262,-5.3737,-5.3518,-5.3501,-5.3501,-5.3501,-5.416,-5.482,-5.5361,-5.6275,-5.6934,-5.7273,-5.6292,-5.5632,-5.5412,-5.4177,-5.3501,-5.3501,-5.3501,-5.3095,-5.23,-5.1555,-5.0811,-5.0067,-4.934,-4.9001,-4.9001,-4.9001,-4.9001,-4.89,-4.7631,-4.6972,-4.6667,-4.5382,-4.5001,-4.5232,-4.6123,-4.666,-4.6954,0.0,0.0,-3.7129,-3.8771,-3.8844,-3.867,-3.8707,-3.8707,-3.8707,-3.8707,-3.9405,-4.0194,-4.0967,-4.1411,-4.1633,-4.1596,-4.2691,-4.4036,-4.5615,-4.7143,-4.8704,-5.0314,-5.0385,-5.049,-5.0758,-5.0793,-5.0509,-5.0011,-5.0011,-5.0263,-5.0793,-5.0793,-5.1052,-5.1543,-5.0999,-5.0649,-5.038,-4.9148,-4.7979,-4.6935,-4.6209,-4.5405,-4.4615,-4.4615,-4.4096,-4.3337,-4.2687,-4.2874,-4.3198,-4.1855,-4.2802,-4.4316,-4.2828,-4.3369,-4.4401,-4.3646,-4.395,-4.4705,-4.5466,-4.5686,-4.621,-4.8376,-4.8409,-4.8261,-4.9729,-5.005,-5.0084,-5.0135,-5.1285,-5.2283,-5.2334,-5.4177,-5.5683,-5.5683,-5.6275,-5.6478,-5.5784,-5.504,-5.4296,-5.3602,-5.3501,-5.3501,0.0,-5.416,-5.46,-5.4617,-5.5987,-5.6511,-5.5783,-5.5733,-5.5378,-5.4651,-5.3907,-5.3501,-5.3501,-5.3501,-5.3095,-5.23,-5.1555,-5.0811,-5.0067,-4.934,-4.9001,-4.9001,-4.9001,-4.9001,-4.8951,-4.8189,-4.7462,-4.6718,-4.5957,-4.5258,-4.4665,-4.5178,-4.6017,-4.6908,0.0,0.0,0.0,-3.9742,-3.9814,-3.9686,-3.9509,-3.9038,-3.8891,-3.9423,-4.0653,0.0,0.0,0.0,0.0,0.0,-4.3445,-4.4453,-4.5996,-4.6789,-4.7932,-4.9536,-4.9608,-4.9909,-5.0515,-5.0515,-5.0705,-5.1052,-5.1052,-5.1158,-5.1339,-5.1339,-5.1442,-5.1576,-5.1398,-5.0917,-5.0188,-4.9447,-4.8553,-4.7572,-4.648,-4.5801,-4.5399,-4.4924,-4.3885,-4.2632,0.0,-4.2496,-4.2598,-4.2139,-4.2446,-4.3064,-4.3047,-4.2462,-4.176,-4.1555,-4.33,-4.5279,-4.5089,-4.6072,-4.7331,-4.8088,-4.846,-4.8765,-4.9255,-4.9373,-4.9509,-4.9982,-5.0473,-5.1133,-5.2114,-5.3365,-5.4566,-5.5529,-5.5919,-5.5987,-5.5715,-5.5497,-5.4871,-5.3653,-5.3923,0.0,0.0,0.0,0.0,-5.4549,-5.5057,-5.5446,-5.57,-5.5243,-5.4854,-5.46,-5.3873,-5.3501,-5.3501,-5.3501,-5.3095,-5.2283,-5.1065,-5.0084,-4.9357,-4.912,-4.9001,-4.9001,-4.9001,-4.9001,-4.8951,-4.8193,-4.7479,-4.6718,-4.5991,-4.5246,-4.4626,-4.4786,-4.5258,-4.5925,0.0,0.0,0.0,0.0,0.0,0.0,0.0,0.0,0.0,0.0,0.0,0.0,0.0,0.0,0.0,0.0,0.0,-4.4668,-4.5667,-4.6476,-4.7497,-4.8812,-4.9194,-4.9649,-5.0235,-5.0253,-5.0408,-5.0755,-5.0755,-5.0854,-5.1024,-5.1024,-5.1119,-5.1326,-5.1119,-5.0671,-5.0014,-4.923,-4.852,-4.7813,-4.6532,-4.5962,-4.5757,-4.5056,-4.3983,0.0,-4.2719,-4.2523,-4.2202,-4.1677,-4.2033,-4.2675,-4.2642,-4.2105,-4.1533,-4.1908,-4.3759,-4.5718,-4.5808,-4.6828,-4.7939,-4.824,-4.8663,-4.9001,-4.9001,-4.9001,-4.9137,-4.961,-4.9915,-5.0388,-5.1336,-5.2604,-5.3907,-5.5124,-5.5767,-5.6105,-5.6105,-5.5886,-5.526,-5.4042,-5.4296,-5.4296,0.0,0.0,0.0,-5.4194,-5.4448,-5.4685,-5.4921,-5.4718,-5.4465,-5.4211,-5.3754,-5.3501,-5.3501,-5.3501,-5.2959,-5.1894,-5.0405,-4.9458,-4.9001,-4.9001,-4.9001,-4.9001,-4.9001,-4.9001,-4.8968,-4.8494,-4.7699,-4.6735,-4.6278,-4.5466,-4.4615,-4.4615,-4.4786,-4.5178,0.0,0.0,0.0,0.0,0.0,0.0,0.0,0.0,0.0,0.0,0.0,0.0,0.0,0.0,0.0,0.0,0.0,0.0,-4.4691,-4.6122,-4.7351,-4.8214,-4.9022,-4.9628,-4.9985,-4.9981,-4.9758,-4.9264,-4.9264,-4.9541,-5.0035,-5.0035,-5.0292,-5.0782,-5.0271,-5.0017,-4.9905,-4.858,-4.798,-4.7749,-4.6463,-4.5885,-4.5692,-4.5069,-4.4371,-4.3661,-4.3474,-4.2929,-4.211,-4.0688,-4.1627,-4.3139,-4.1709,-4.231,-4.367,-4.4424,-4.5193,-4.6097,-4.747,-4.7906,-4.8108,-4.8832,-4.9001,-4.8984,-4.8951,-4.8951,-4.8951,-4.8951,-4.9492,-4.9999,-5.0084,-5.1894,-5.3653,-5.4465,-5.5801,-5.6765,-5.6799,-5.6241,-5.553,-5.4735,-5.4685,-5.4414,-5.3687,-5.4245,0.0,-5.367,0.0,-5.4228,-5.3551,-5.416,-5.4211,-5.3518,-5.3501,-5.3501,-5.3501,-5.3433,-5.2655,-5.1168,-4.9712,-4.9001,-4.9001,-4.9001,-4.9001,-4.9001,-4.9001,-4.9001,-4.9001,-4.9001,-4.8139,-4.6786,-4.6786,-4.5889,-4.4615,-4.4615,-4.4615,-4.4665,0.0,0.0,0.0,0.0,0.0,0.0,0.0,0.0,0.0,0.0,0.0,0.0,0.0,0.0,0.0,0.0,0.0,0.0,-4.4672,-4.5076,-4.5938,-4.7333,-4.7608,-4.8358,-4.9669,-4.9706,-4.9937,-5.0396,-5.0396,-5.0459,-5.06,-5.06,-5.0662,-5.0802,-5.0662,-5.0273,-4.9647,-4.8916,-4.855,-4.8353,-4.7148,-4.6687,-4.6663,-4.5806,-4.4732,-4.3661,-4.3474,-4.2929,-4.2236,-4.189,-4.2489,-4.327,-4.2378,-4.3468,-4.4978,-4.4202,-4.5557,-4.7308,-4.7182,-4.7919,-4.8765,-4.8951,-4.9001,-4.8866,-4.8325,-4.8189,-4.8189,-4.8189,-4.8342,-4.8798,-4.9898,-5.1031,-5.2418,-5.4279,-5.5378,-5.619,-5.6731,-5.7103,-5.6867,-5.5581,-5.5902,-5.5953,-5.5226,-5.5327,0.0,0.0,-5.4313,-5.3704,-5.3518,-5.3687,-5.3687,-5.3518,-5.3501,-5.3501,-5.3501,-5.2367,-5.1606,-5.1168,-4.9712,-4.9001,-4.9001,-4.9001,-4.9001,-4.9001,-4.9001,-4.9001,-4.9001,-4.9001,-4.8139,-4.6786,-4.6786,-4.5889,-4.4615,-4.4615,-4.4615,-4.4626,0.0,0.0,0.0,0.0,0.0,0.0,0.0,0.0,0.0,0.0,0.0,0.0,0.0,0.0,0.0,0.0,0.0,0.0,0.0,-4.5571,-4.6159,-4.7058,-4.7443,-4.8086,-4.9003,-4.9022,-4.9242,-4.9701,-4.9701,-4.9701,-4.9701,-4.9701,-4.9701,-4.9701,-4.9701,-4.9444,-4.9002,-4.8709,-4.855,0.0,0.0,-4.7135,-4.6927,-4.61,-4.5157,-4.4245,-4.4092,-4.3694,-4.3328,-4.3328,-4.3572,-4.3867,-4.3523,-4.4704,-4.6052,-4.5313,-4.6414,-4.7879,-4.7857,-4.8416,-4.9001,-4.9001,-4.9001,-4.8815,-4.8058,-4.7889,-4.7811,-4.7471,-4.7673,-4.8166,-4.8979,-5.0281,-5.186,-5.3805,-5.5023,-5.6089,-5.712,-5.7357,-5.7103,-5.6292,-5.6562,-5.6511,-5.5749,-5.6004,-5.6055,0.0,-5.4938,-5.4329,-5.3991,-5.3974,-5.3822,-5.3518,-5.3501,-5.3331,-5.2976,-5.1809,-5.1048,-5.071,-4.956,-4.9001,-4.9001,-4.9001,-4.9001,-4.9001,0.0,-4.9001,-4.9001,-4.9001,-4.8139,-4.6786,-4.6786,-4.5889,-4.4615,-4.4615,-4.4615,-4.4615,0.0,0.0,0.0,0.0,0.0,0.0,0.0,0.0,0.0,0.0,0.0,0.0,0.0,0.0,0.0,0.0,0.0,0.0,0.0,0.0,-4.6984,-4.7094,-4.7755,-4.8196,-4.8306,-4.8306,-4.8306,-4.8306,-4.8306,-4.8306,-4.8306,-4.8306,-4.8306,-4.8306,-4.8306,-4.8306,-4.8306,-4.8306,-4.8306,-4.8267,-4.7856,-4.7399,-4.6913,0.0,0.0,-4.5096,-4.4886,-4.4709,-4.4615,-4.4615,-4.4682,-4.4755,-4.4807,-4.5831,-4.6967,-4.7037,-4.7491,-4.8176,-4.8832,-4.9001,-4.9001,-4.9001,-4.8934,-4.8663,-4.7936,-4.7669,-4.7433,-4.6781,-4.7161,-4.7665,-4.7862,-4.9537,-5.1425,-5.3061,-5.4515,-5.5936,-5.7391,-5.7137,-5.6799,-5.6799,-5.6884,-5.6697,-5.6055,-5.6579,-5.6681,-5.6055,-5.5919,-5.548,-5.4634,-5.4499,-5.416,-5.3518,-5.3501,-5.3112,-5.2317,-5.1589,-5.0828,-5.0084,-4.9357,-4.9001,-4.9001,-4.9001,-4.9001,-4.9001,0.0,0.0,-4.9001,-4.9001,-4.8139,-4.6786,-4.6786,-4.5889,-4.4615,-4.4615,-4.4615,-4.4615,0.0,0.0,0.0,0.0,0.0,0.0,0.0,0.0,0.0,0.0,-4.3993,-4.48,0.0,0.0,0.0,0.0,0.0,0.0,0.0,0.0,0.0,-4.7076,-4.7223,-4.7608,-4.8306,-4.8306,-4.8306,-4.8306,-4.8306,-4.8306,-4.8306,-4.8306,-4.8306,-4.8306,-4.8306,-4.8306,-4.8306,-4.8306,-4.8306,-4.8287,-4.821,-4.7915,-4.7421,-4.6804,0.0,0.0,-4.5015,-4.4709,-4.4615,-4.4615,-4.4993,-4.5505,-4.5508,-4.6528,-4.772,-4.77,-4.8233,-4.8849,-4.8968,-4.9001,-4.9001,-4.9001,-4.8545,-4.7919,-4.7158,-4.6515,-4.6063,-4.5929,-4.5992,-4.6443,-4.7662,-4.8719,-5.0076,-5.2167,-5.3281,-5.4414,-5.5886,-5.6511,-5.6799,-5.6799,-5.734,-5.7645,-5.7526,-5.7628,0.0,0.0,0.0,-5.6021,-5.4668,-5.4008,-5.3636,-5.3501,-5.3501,-5.3112,-5.2317,-5.1589,-5.0828,-5.0084,-4.9357,-4.9001,-4.9001,-4.9001,-4.9001,-4.9001,0.0,0.0,-4.9001,-4.9001,-4.8139,-4.6786,-4.6786,-4.5889,-4.4615,-4.4615,-4.4615,-4.4615,0.0,0.0,0.0,0.0,0.0,0.0,0.0,-4.4,-4.4433,-4.5259,-4.57,-4.6104,-4.647,-4.6526,-4.6691,0.0,0.0,0.0,0.0,0.0,0.0,0.0,-4.7718,-4.7901,-4.8306,-4.8306,-4.8306,-4.8306,0.0,-4.8306,-4.8306,-4.8306,-4.8306,-4.8306,-4.8306,-4.8306,-4.8306,-4.8306,-4.8306,-4.8306,-4.8306,-4.8015,0.0,0.0,0.0,0.0,-4.5052,-4.4748,-4.4709,-4.4626,-4.5077,-4.5703,-4.5703,-4.6718,-4.7889,-4.7889,-4.8426,-4.9001,-4.9001,-4.9001,-4.9001,-4.9001,-4.846,-4.7733,-4.6972,-4.6227,-4.5571,-4.5215,-4.5423,-4.6039,-4.713,-4.8249,-4.96,-5.1423,-5.2384,-5.3399,-5.4921,-5.5429,-5.5936,-5.6714,-5.7103,-5.7476,-5.7848,-5.7543,-5.7323,-5.7323,0.0,-5.5513,-5.5192,-5.411,-5.3501,-5.3501,-5.3095,-5.252,-5.1742,-5.0997,-5.0253,-4.9526,-4.9171,-4.9001,-4.9001,-4.9001,-4.9001,-4.9001,-4.9001,0.0,-4.9001,-4.9001,-4.8139,-4.6786,-4.6786,-4.5889,-4.4615,-4.4615,-4.4615,-4.4615,0.0,0.0,0.0,0.0,0.0,0.0,0.0,-4.5228,-4.5569,-4.7022,-4.7297,-4.7351,-4.7351,-4.7351,-4.7608,0.0,0.0,0.0,0.0,0.0,0.0,0.0,0.0,-4.8306,-4.8306,0.0,0.0,-4.8306,-4.8306,0.0,0.0,0.0,0.0,0.0,-4.8306,-4.8306,-4.8306,-4.8306,-4.8306,0.0,0.0,-4.8075,0.0,0.0,0.0,0.0,0.0,-4.4858,-4.4776,-4.4682,-4.5004,-4.5466,-4.5466,-4.6481,-4.7716,-4.7838,-4.8325,-4.8798,-4.8968,-4.9001,-4.9001,-4.9001,-4.8342,-4.7513,-4.6921,-4.6109,-4.5306,-4.471,-4.5068,-4.5753,-4.6612,-4.7761,-4.9051,-5.0695,-5.1589,-5.2536,-5.3907,-5.438,-5.5023,-5.619,-5.6478,-5.6799,-5.7357,-5.69,0.0,-5.6562,0.0,0.0,-5.5226,-5.4143,-5.3501,-5.3501,-5.2723,-5.1961,-5.1217,-5.0473,-4.9729,-4.9001,-4.9001,-4.9001,-4.9001,-4.9001,-4.9001,-4.9001,-4.9001,0.0,0.0,-4.9001,-4.8139,-4.6786,-4.6786,-4.5889,-4.4615,-4.4615,-4.4615,-4.4615,0.0,0.0,0.0,0.0,0.0,0.0,0.0,-4.5645,-4.6557,-4.7445,-4.7923,-4.8196,-4.8196,-4.8196,-4.8233,0.0,0.0,0.0,0.0,0.0,0.0,0.0,0.0,0.0,0.0,0.0,0.0,-4.8306,-4.8306,0.0,0.0,0.0,0.0,0.0,0.0,-4.8306,-4.8306,-4.8306,0.0,0.0,0.0,0.0,0.0,0.0,0.0,0.0,0.0,-4.5005,-4.4803,-4.4793,-4.476,-4.4699,-4.4699,-4.5703,-4.7022,-4.7716,-4.7939,-4.8156,-4.8832,-4.9001,-4.9001,-4.9001,-4.7936,-4.687,-4.6802,-4.5703,-4.4671,-4.4615,-4.4641,-4.5133,-4.654,-4.6898,-4.7693,-4.9854,-5.0828,-5.1589,-5.2401,-5.3721,-5.4634,-5.4786,-5.5395,-5.5852,-5.5919,-5.5817,-5.5783,-5.5783,0.0,0.0,-5.3737,-5.3568,-5.3501,-5.3501,-5.2723,-5.1961,-5.1217,-5.0473,-4.9729,-4.9001,-4.9001,-4.9001,-4.9001,-4.9001,-4.9001,-4.9001,0.0,0.0,0.0,-4.9001,-4.8139,-4.6786,-4.6786,-4.5889,-4.4615,-4.4615,-4.4615,-4.4615,0.0,0.0,0.0,0.0,0.0,0.0,-4.607,-4.6074,-4.6576,-4.8383,-4.835,-4.8362,-4.8861,-4.8729,-4.8532,-4.8325,0.0,0.0,0.0,0.0,0.0,0.0,0.0,0.0,0.0,0.0,-4.8563,-4.9077,-4.8563,0.0,0.0,0.0,0.0,0.0,0.0,-4.8306,-4.8306,-4.8306,0.0,0.0,0.0,0.0,0.0,0.0,0.0,0.0,0.0,0.0,-4.4913,-4.4831,-4.4709,-4.4615,-4.4615,-4.5004,-4.5602,-4.6363,-4.7179,-4.7939,-4.8244,-4.8663,-4.9001,-4.9001,-4.7885,-4.6786,-4.6786,-4.5652,-4.4615,-4.4615,-4.4591,-4.4925,-4.5933,-4.6511,-4.7228,-4.8551,-4.9407,-5.0135,-5.0862,-5.1488,-5.2384,-5.3771,-5.4211,-5.4735,-5.5597,0.0,-5.4854,0.0,0.0,0.0,-5.3518,-5.3501,-5.3501,-5.3501,-5.23,-5.1505,-5.1185,-5.0033,-4.9289,-4.9001,-4.9001,-4.9001,-4.9001,-4.9001,-4.9001,-4.9001,0.0,0.0,0.0,-4.9001,-4.8139,-4.6786,-4.6786,-4.5889,-4.4615,-4.4615,-4.4615,-4.4615,0.0,0.0,0.0,0.0,0.0,-4.5048,-4.6491,-4.6363,-4.6826,-4.8817,-4.8709,-4.8667,-4.9242,-4.8999,-4.8693,-4.8458,-4.8363,0.0,0.0,0.0,0.0,0.0,0.0,0.0,0.0,0.0,-4.8728,-4.961,-4.8985,-4.8985,0.0,0.0,-4.8545,-4.8306,0.0,0.0,0.0,0.0,0.0,0.0,0.0,0.0,0.0,0.0,0.0,0.0,0.0,0.0,0.0,0.0,0.0,-4.4615,-4.4615,-4.4615,-4.475,-4.5483,-4.6447,-4.731,-4.753,-4.7953,-4.8359,-4.8359,-4.7394,-4.6464,-4.6464,-4.5483,-4.4615,-4.4615,-4.444,-4.4574,-4.5522,-4.6132,-4.6737,-4.7463,-4.8574,-4.9429,-4.9746,-5.0143,-5.1014,-5.2638,-5.2824,-5.3315,-5.4583,-5.4448,-5.4059,0.0,0.0,0.0,0.0,-5.3281,-5.3145,-5.3145,-5.1894,-5.1116,-5.0879,-4.9644,-4.9001,-4.9001,-4.9001,-4.9001,-4.9001,-4.9001,-4.9001,-4.9001,0.0,0.0,0.0,-4.8765,-4.7936,-4.6769,-4.6549,-4.5703,-4.4615,-4.4615,-4.4615,-4.4615,0.0,0.0,0.0,0.0,0.0,0.0,-4.5182,-4.6445,-4.7598,-4.8488,-4.9008,-4.9299,-4.9299,-4.8999,-4.8799,-4.8799,-4.8495,0.0,0.0,0.0,0.0,0.0,0.0,0.0,0.0,0.0,-4.8728,-4.961,-4.9592,-4.9592,-4.961,-4.9592,-4.9133,-4.8306,0.0,0.0,0.0,0.0,0.0,0.0,0.0,0.0,0.0,0.0,0.0,0.0,0.0,0.0,0.0,0.0,0.0,0.0,0.0,-4.4615,-4.475,-4.5483,-4.572,-4.5889,-4.6599,-4.6802,-4.6802,-4.6802,-4.6261,-4.572,-4.572,-4.5128,-4.4615,-4.4615,-4.4001,-4.3968,-4.5436,-4.5741,-4.6011,-4.6709,-4.8647,-4.9845,-4.9128,-5.0289,-5.1185,-5.1202,-5.1202,-5.1539,-5.2266,-5.3061,-5.3518,0.0,0.0,0.0,0.0,-5.2756,-5.2317,-5.2317,-5.1606,-5.0862,-5.0101,-4.9373,-4.9001,-4.9001,-4.9001,-4.9001,-4.9001,-4.9001,-4.9001,0.0,0.0,0.0,0.0,-4.8193,-4.7479,-4.6718,-4.6007,-4.5263,-4.4615,-4.4615,-4.4615,-4.4615,0.0,0.0,0.0,0.0,0.0,0.0,0.0,-4.6492,-4.7274,-4.8753,-4.9061,-4.9372,-4.9924,-4.9483,-4.937,-4.9915,-4.8937,0.0,0.0,0.0,0.0,0.0,0.0,0.0,0.0,0.0,-4.9003,-5.0417,-4.9867,-5.0161,-5.1226,-5.0106,-4.9445,-4.915,-4.8563,-4.8306,0.0,0.0,0.0,0.0,0.0,0.0,0.0,0.0,0.0,0.0,0.0,0.0,0.0,0.0,0.0,0.0,0.0,0.0,0.0,-4.4874,-4.5314,-4.5754,-4.5991,-4.6413,-4.6786,-4.6786,-4.6244,-4.5703,-4.5703,-4.5128,-4.4615,-4.4615,-4.4001,-4.3638,-4.411,-4.4306,-4.475,-4.5932,-4.7145,-4.8184,-4.891,-4.9386,-5.0084,-5.1067,-5.2147,-5.2875,0.0,0.0,0.0,0.0,0.0,0.0,0.0,-5.1961,-5.1792,-5.2283,-5.1099,-5.0338,-5.0084,-4.9373,-4.9001,-4.9001,-4.9001,-4.9001,-4.9001,-4.9001,0.0,0.0,0.0,0.0,0.0,-4.799,-4.7175,-4.6024,-4.5788,-4.5246,-4.4615,-4.4615,-4.4615,-4.4615,0.0,0.0,0.0,0.0,0.0,0.0,0.0,-4.6577,-4.7379,-4.8468,-4.9156,-4.9729,-5.0245,-4.9702,-4.9621,-5.0434,-4.9453,0.0,0.0,0.0,0.0,0.0,0.0,0.0,-4.8306,-4.8618,-4.9444,-5.0802,-5.06,-5.1024,-5.1958,-5.0655,-4.9904,-4.9555,-4.8691,-4.8306,0.0,0.0,0.0,0.0,0.0,0.0,0.0,0.0,0.0,0.0,0.0,0.0,0.0,0.0,0.0,0.0,0.0,0.0,0.0,0.0,-4.4925,-4.528,-4.528,-4.5618,-4.5957,-4.5957,-4.5618,-4.528,-4.528,-4.4925,-4.4615,-4.4615,-4.381,-4.3196,-4.3436,-4.3403,-4.3606,-4.4447,-4.5668,-4.6797,-4.7679,-4.8251,-4.9125,-5.061,-5.2131,0.0,0.0,0.0,0.0,0.0,0.0,0.0,0.0,-5.12,-5.0997,-5.1454,-5.0574,-4.9965,-4.9678,-4.9238,-4.9001,-4.9001,-4.9001,-4.9001,-4.9001,-4.9001,0.0,0.0,0.0,0.0,0.0,-4.728,-4.6549,-4.5669,-4.5399,-4.4993,-4.4615,-4.4615,-4.4615,-4.4615,0.0,0.0,0.0,0.0,0.0,0.0,0.0,-4.6768,-4.7788,-4.7788,-4.927,-5.029,-5.0278,-4.9688,-4.9643,-5.0478,0.0,0.0,0.0,0.0,0.0,0.0,0.0,0.0,-4.8398,-4.9206,-5.0033,-5.0894,-5.1628,-5.2013,-5.2068,-5.1206,-5.0398,-4.9647,-4.871,-4.8306,0.0,0.0,0.0,0.0,0.0,0.0,0.0,0.0,0.0,0.0,0.0,0.0,0.0,0.0,0.0,0.0,0.0,0.0,0.0,0.0,0.0,0.0,0.0,-4.453,-4.4615,-4.4615,-4.4615,-4.4615,-4.4615,-4.4615,0.0,-4.4615,-4.3486,-4.2724,-4.3399,-4.2992,-4.2552,-4.2679,-4.4369,-4.5694,-4.5793,-4.7111,-4.856,-4.994,-5.1438,0.0,-5.2234,0.0,0.0,0.0,0.0,0.0,0.0,-5.0422,-5.0016,-5.0016,-5.0016,-4.9678,-4.9018,-4.9001,-4.9001,-4.9001,-4.9001,-4.9001,-4.9001,-4.9001,0.0,0.0,0.0,0.0,0.0,-4.6261,-4.5669,-4.5551,-4.4886,-4.4615,-4.4615,-4.4615,-4.4615,-4.4615,0.0,0.0,0.0,0.0,0.0,0.0,0.0,0.0,0.0,0.0,-4.927,-5.0212,-4.9942,-4.9541,-4.9792,0.0,0.0,0.0,0.0,0.0,0.0,0.0,0.0,0.0,-4.928,-4.95,-5.0308,-5.172,-5.1903,-5.2307,-5.2894,-5.1463,-5.071,-5.0453,-4.8967,-4.8306,0.0,0.0,0.0,0.0,0.0,0.0,0.0,0.0,0.0,0.0,-4.6284,-4.5868,0.0,0.0,0.0,0.0,0.0,0.0,0.0,0.0,-4.369,-4.3572,-4.298,0.0,-4.4615,-4.4615,-4.4615,-4.4615,0.0,-4.4615,-4.4615,-4.4615,-4.3486,-4.2714,-4.3424,-4.2164,-4.1563,-4.3182,-4.3865,-4.4571,-4.5644,-4.7982,-4.9675,-5.0009,-5.19,-5.2724,-5.1509,0.0,0.0,0.0,0.0,0.0,0.0,-4.9661,-4.9255,-4.9255,-4.9255,-4.9187,-4.9001,-4.9001,-4.9001,-4.9001,-4.9001,-4.9001,-4.9001,-4.9001,0.0,0.0,0.0,0.0,-4.6194,-4.5838,-4.5365,-4.4852,-4.4682,-4.4615,-4.4615,-4.4615,-4.4615,-4.4615,0.0,0.0,0.0,0.0,0.0,0.0,0.0,0.0,0.0,0.0,0.0,0.0,0.0,0.0,0.0,0.0,0.0,0.0,0.0,0.0,0.0,0.0,0.0,-4.871,-4.9574,-4.9978,-5.0747,-5.1995,-5.2362,-5.2582,-5.2619,-5.1389,-5.06,-5.0178,-4.8875,-4.8306,0.0,0.0,0.0,0.0,0.0,0.0,0.0,0.0,0.0,0.0,-4.5727,-4.558,0.0,-4.5047,-4.4938,-4.4951,0.0,0.0,0.0,0.0,-4.3139,-4.2811,-4.2405,-4.3149,-4.4045,-4.4045,-4.4344,-4.4615,-4.4615,-4.4338,-4.4179,-4.4542,-4.3229,-4.227,-4.296,-4.1661,-4.1001,-4.2509,-4.2981,-4.3796,-4.5514,-4.7665,-4.9201,-4.9507,-5.0653,-5.1374,0.0,0.0,0.0,0.0,0.0,0.0,0.0,-4.9221,-4.9001,-4.9001,-4.9001,-4.9001,-4.9001,-4.9001,-4.9001,-4.9001,-4.9001,-4.9001,-4.9001,-4.9001,0.0,0.0,0.0,0.0,-4.5669,-4.5331,-4.4942,-4.4615,-4.4615,-4.4615,-4.4615,-4.4615,-4.4615,-4.4615,0.0,0.0,0.0,0.0,0.0,0.0,0.0,0.0,0.0,0.0,0.0,0.0,0.0,0.0,0.0,0.0,0.0,0.0,0.0,0.0,0.0,0.0,-4.8948,-4.8838,-4.9592,-5.038,-5.1187,-5.1995,-5.2931,-5.3041,-5.2344,-5.1426,-5.0417,-4.939,-4.8765,-4.8416,0.0,0.0,0.0,0.0,0.0,0.0,0.0,0.0,0.0,0.0,0.0,0.0,0.0,-4.4699,-4.4664,-4.479,-4.4524,0.0,0.0,0.0,0.0,0.0,-4.2117,-4.2675,-4.324,-4.3358,-4.3995,-4.457,-4.4468,-4.3943,-4.3647,-4.4179,-4.2785,-4.1705,-4.2382,-4.15,-4.0889,-4.1632,-4.2325,-4.3448,-4.5414,-4.6881,-4.7953,-4.8573,-4.8849,0.0,0.0,0.0,0.0,0.0,0.0,0.0,0.0,-4.9001,-4.9001,-4.9001,-4.9001,-4.9001,-4.9001,-4.9001,-4.9001,-4.9001,-4.9001,-4.9001,-4.9001,-4.8883,-4.8443,0.0,0.0,0.0,-4.5483,-4.4869,-4.4615,-4.4615,-4.4615,-4.4615,-4.4615,-4.4615,-4.4615,-4.4615,0.0,0.0,0.0,0.0,0.0,0.0,0.0,0.0,0.0,0.0,0.0,0.0,0.0,0.0,0.0,0.0,0.0,0.0,0.0,0.0,0.0,-5.0655,-4.9829,-4.9463,-4.961,-5.038,-5.1187,-5.1995,-5.3482,-5.4142,-5.3995,-5.2509,-5.0618,-4.8526,-4.9132,-4.8985,-4.8306,0.0,0.0,0.0,0.0,0.0,0.0,0.0,0.0,0.0,0.0,0.0,0.0,-4.3752,-4.3911,-4.3936,-4.3102,0.0,0.0,0.0,0.0,0.0,-4.1373,-4.1914,-4.2625,-4.3223,-4.3995,-4.444,-4.381,-4.3571,-4.3363,-4.2939,-4.2126,-4.1715,-4.2465,-4.1944,-4.1648,-4.234,-4.3002,-4.396,-4.5493,0.0,-4.7002,-4.7055,0.0,0.0,0.0,0.0,0.0,0.0,0.0,0.0,0.0,-4.9001,-4.9001,-4.9001,-4.9001,-4.9001,-4.9001,-4.9001,-4.9001,-4.9001,-4.9001,-4.9001,-4.8984,-4.8359,-4.7682,0.0,0.0,-4.5449,-4.4767,-4.4649,-4.4615,-4.4615,-4.4615,-4.4615,-4.4615,-4.4615,-4.4615,-4.4615,0.0,0.0,0.0,0.0,0.0,0.0,0.0,0.0,0.0,0.0,0.0,0.0,0.0,0.0,0.0,0.0,0.0,0.0,0.0,0.0,-5.1187,-5.082,-5.0013,-4.961,-4.961,-5.038,-5.1408,-5.2656,-5.339,-5.3977,-5.4363,-5.2307,-5.0508,-4.9003,-4.893,-4.8673,-4.8306,-4.8306,0.0,0.0,0.0,0.0,0.0,0.0,0.0,0.0,0.0,0.0,0.0,0.0,-4.3779,-4.4036,-4.2945,0.0,0.0,0.0,0.0,0.0,-4.1204,-4.1728,-4.2371,-4.2726,-4.369,-4.4412,-4.3676,-4.3227,-4.2892,-4.2567,-4.1673,-4.1151,-4.1868,-4.1781,-4.194,-4.2956,-4.3716,-4.4368,-4.502,-4.5407,-4.5743,0.0,0.0,0.0,0.0,0.0,0.0,0.0,0.0,0.0,0.0,0.0,-4.9001,-4.9001,-4.9001,-4.9001,-4.9001,-4.9001,-4.9001,-4.9001,-4.9001,-4.8798,-4.8409,-4.8041,-4.7293,-4.6194,0.0,-4.528,-4.4615,-4.4615,-4.4615,-4.4615,-4.4615,-4.4615,-4.4615,-4.4615,-4.4615,-4.4547,0.0,0.0,0.0,0.0,0.0,0.0,0.0,0.0,0.0,0.0,0.0,0.0,0.0,0.0,0.0,0.0,0.0,0.0,0.0,0.0,-5.1004,-5.082,-5.0196,-4.9702,-4.9317,-5.0472,-5.1683,-5.2931,-5.3662,-5.4179,-5.4363,-5.2509,-5.0912,-4.9574,-4.9095,-4.8673,-4.8306,-4.8306,-4.8306,0.0,0.0,0.0,0.0,0.0,0.0,0.0,0.0,0.0,0.0,0.0,0.0,0.0,0.0,0.0,0.0,-4.2455,-4.1897,-4.1508,-4.1677,-4.1999,-4.2344,-4.2547,-4.3479,-4.42,-4.3654,-4.2852,-4.2285,-4.2286,-4.1335,-4.0646,-4.1176,-4.16,-4.2217,-4.3424,-4.4178,-4.461,-4.461,-4.461,-4.4821,0.0,0.0,0.0,0.0,0.0,0.0,0.0,0.0,0.0,0.0,0.0,-4.8829,-4.9001,-4.9001,-4.9001,-4.9001,-4.9001,-4.9001,-4.9001,-4.9001,-4.8612,-4.7889,-4.7703,-4.6938,-4.5703,-4.5517,-4.5111,-4.4615,-4.4615,-4.4615,-4.4615,-4.4615,-4.4615,-4.4615,-4.4615,-4.4496,-4.4248,0.0,0.0,0.0,0.0,0.0,0.0,0.0,0.0,0.0,0.0,0.0,0.0,0.0,0.0,0.0,0.0,0.0,0.0,0.0,0.0,-5.1573,-5.0839,-5.0747,-4.9994,-4.8434,-5.071,-5.1958,-5.2087,-5.5078,-5.5812,-5.4399,-5.4216,-5.2509,-4.9629,-5.0306,-4.9756,-4.8306,-4.8306,-4.8306,-4.8306,-4.8306,0.0,0.0,0.0,0.0,0.0,0.0,0.0,0.0,0.0,0.0,0.0,0.0,0.0,-4.253,-4.233,-4.2252,-4.2371,-4.3064,-4.2777,-4.2473,-4.3236,-4.3505,-4.3575,-4.3585,-4.2542,-4.1598,-4.1635,-4.1055,-4.0524,-4.0558,-4.1617,-4.2756,-4.3485,-4.4178,-4.461,-4.461,0.0,0.0,0.0,0.0,0.0,0.0,0.0,0.0,0.0,0.0,0.0,0.0,0.0,0.0,-4.897,-4.9001,-4.9001,-4.9001,-4.9001,-4.9001,-4.9001,-4.9001,-4.8612,-4.7872,-4.7192,-4.6447,-4.5669,-4.4976,-4.4649,-4.4615,-4.4615,-4.4615,-4.4615,-4.4615,-4.4615,-4.4615,-4.4615,-4.413,-4.3589,0.0,0.0,0.0,0.0,0.0,0.0,0.0,0.0,0.0,0.0,0.0,0.0,0.0,0.0,0.0,0.0,0.0,0.0,0.0,-4.9664,-4.9811,-5.0031,-4.9536,-4.8948,-4.8324,-4.9738,-5.1006,-5.1995,-5.4646,-5.5115,-5.3521,-5.3456,-5.2267,-5.0206,-5.0023,-4.933,-4.8306,-4.8306,-4.8306,-4.8306,-4.8306,0.0,0.0,0.0,0.0,0.0,0.0,0.0,0.0,0.0,-4.3083,-4.267,-4.2179,-4.249,-4.3051,-4.2997,-4.2658,-4.2455,-4.3217,-4.2861,-4.2469,-4.3233,-4.3151,-4.2772,-4.2365,-4.188,-4.1388,-4.1001,-4.0674,-4.0628,-4.1109,-4.1632,-4.2325,-4.3424,-4.3824,-4.4132,-4.4548,0.0,0.0,0.0,0.0,0.0,0.0,0.0,0.0,0.0,0.0,0.0,0.0,0.0,0.0,-4.897,-4.9001,-4.9001,-4.9001,-4.9001,-4.8781,-4.8342,-4.8342,-4.7936,-4.7192,-4.6447,-4.5703,-4.4993,-4.4733,-4.4615,-4.4615,-4.4615,-4.4615,-4.4615,-4.4615,-4.4615,-4.4615,-4.4615,-4.4079,-4.3426,0.0,0.0,0.0,0.0,0.0,0.0,0.0,0.0,0.0,0.0,0.0,0.0,0.0,0.0,0.0,0.0,0.0,0.0,-4.9132,-4.8636,-4.8691,-4.9555,-4.9022,-4.871,-4.871,-4.9022,-5.0105,-5.1995,-5.4034,-5.444,-5.3321,-5.2999,-5.2181,-5.095,-5.0165,-4.942,-4.8691,-4.8416,-4.8306,-4.8306,-4.8306,-4.7352,0.0,0.0,0.0,0.0,0.0,0.0,0.0,0.0,-4.3195,-4.2895,-4.2452,-4.2847,-4.3457,-4.342,-4.3217,-4.3064,-4.3325,-4.3047,-4.2757,-4.3306,-4.2953,-4.2307,-4.1658,-4.1343,-4.1182,-4.1148,-4.0981,-4.1016,-4.1509,-4.1601,-4.1971,-4.3079,-4.347,-4.384,0.0,0.0,0.0,0.0,0.0,0.0,0.0,0.0,0.0,0.0,0.0,0.0,0.0,0.0,0.0,0.0,-4.8641,-4.8663,-4.8663,-4.8426,-4.8054,-4.7564,-4.7327,-4.6955,-4.643,-4.594,-4.5297,-4.4615,-4.4615,-4.4615,-4.4615,-4.4615,-4.4615,-4.4615,-4.4615,-4.4615,-4.4615,-4.4615,-4.4079,-4.3392,0.0,0.0,0.0,0.0,0.0,0.0,0.0,0.0,0.0,0.0,0.0,0.0,0.0,0.0,0.0,0.0,0.0,0.0,-4.8251,-4.8306,-4.8673,-4.9537,-4.9574,-4.9592,-4.9592,-4.8746,-4.9517,-5.1977,-5.3445,-5.4103,-5.3954,-5.3303,-5.256,-5.1734,-5.109,-5.0343,-4.9537,-4.8655,-4.8306,-4.8306,-4.8306,-4.7352,-4.5902,0.0,0.0,0.0,0.0,0.0,0.0,0.0,-4.3213,-4.3178,-4.3725,-4.3744,-4.3549,-4.343,-4.3944,-4.4412,-4.3606,-4.3375,-4.3406,-4.3477,-4.2936,-4.2252,-4.1644,-4.099,-4.0924,-4.2294,-4.2048,-4.1586,-4.1586,-4.1586,-4.1817,-4.2494,-4.314,-4.384,0.0,0.0,0.0,0.0,0.0,0.0,0.0,0.0,0.0,0.0,0.0,0.0,0.0,0.0,0.0,0.0,-4.7872,-4.7872,-4.7872,-4.7158,-4.6786,-4.6769,-4.6058,-4.5703,-4.5703,-4.5703,-4.528,-4.4615,-4.4615,-4.4615,-4.4615,-4.4615,-4.4615,-4.4615,-4.4615,-4.4615,-4.4598,-4.4598,-4.4079,-4.3375,0.0,0.0,0.0,0.0,0.0,0.0,0.0,0.0,0.0,0.0,0.0,0.0,0.0,0.0,0.0,0.0,0.0,0.0,-4.7443,-4.7461,-4.7571,-4.7829,-4.8379,-4.8691,-4.8691,-4.8943,-4.971,-5.103,-5.1295,-5.1524,-5.1669,-5.1765,-5.0913,-4.9352,-5.0064,-4.9672,-4.8459,-4.8298,-4.8246,-4.8228,-4.8267,-4.7352,-4.5902,0.0,0.0,0.0,0.0,0.0,0.0,0.0,0.0,0.0,-4.3266,-4.316,-4.2678,-4.2651,-4.2794,-4.2811,-4.2066,-4.2236,-4.2757,-4.3289,-4.3289,-4.3129,-4.2935,-4.2013,-4.1182,-4.1117,-4.0951,-4.0812,-4.0812,-4.0812,-4.1232,-4.2417,-4.2771,0.0,0.0,0.0,0.0,0.0,0.0,0.0,0.0,0.0,0.0,0.0,0.0,0.0,0.0,0.0,0.0,0.0,-4.6681,-4.6669,-4.7124,-4.6904,-4.6532,-4.6024,-4.5805,-4.5703,-4.5686,-4.5162,-4.4818,-4.4615,-4.4615,-4.4615,-4.4615,-4.4615,-4.4615,-4.4615,-4.4615,-4.4248,-4.3775,-4.3775,-4.2963,-4.1931,0.0,0.0,0.0,0.0,0.0,0.0,0.0,0.0,0.0,0.0,-4.8306,-4.8306,0.0,0.0,0.0,0.0,0.0,0.0,0.0,-4.6801,-4.6764,-4.7094,-4.7865,-4.8287,-4.8267,-4.8914,-4.9528,-5.0003,-4.9974,-5.0041,-5.0146,-5.0464,-4.9942,-4.8824,-4.9496,-4.9133,-4.7994,-4.7761,-4.7654,-4.7731,-4.7771,-4.702,-4.5902,0.0,0.0,0.0,0.0,0.0,0.0,0.0,0.0,0.0,-4.294,-4.2861,-4.262,-4.2419,-4.256,-4.2642,-4.2202,-4.2625,-4.3301,-4.3775,-4.39,-4.3781,-4.3227,-4.2494,-4.1734,-4.1079,-4.0955,-4.0955,-4.0955,-4.0689,0.0,-4.2032,0.0,0.0,0.0,0.0,0.0,0.0,0.0,0.0,0.0,0.0,0.0,0.0,0.0,0.0,0.0,0.0,0.0,0.0,-4.5557,-4.5671,-4.6363,-4.6058,-4.5686,-4.5263,-4.5263,-4.5263,-4.5246,-4.4818,-4.4615,-4.4615,-4.4615,-4.4615,-4.4615,-4.4615,-4.4615,-4.4581,-4.4231,-4.3826,-4.3358,-4.3081,-4.2405,-4.166,0.0,0.0,0.0,0.0,0.0,0.0,0.0,0.0,0.0,0.0,-4.8306,-4.8269,0.0,0.0,0.0,0.0,0.0,0.0,0.0,0.0,-4.6232,-4.6947,-4.7828,-4.8247,-4.8168,-4.8696,-4.8974,-4.8974,-4.9239,-4.9299,-4.9139,-4.9299,-4.931,-4.9179,-4.91,-4.8628,-4.7808,-4.7024,-4.6754,-4.687,-4.687,-4.6433,-4.5773,-4.5773,0.0,0.0,0.0,0.0,0.0,0.0,0.0,0.0,-4.2815,-4.2764,-4.2904,-4.2475,-4.2758,-4.3172,-4.3105,-4.3775,-4.4496,-4.4496,-4.4564,-4.4253,-4.2909,-4.2574,-4.2385,-4.1654,-4.1509,-4.1509,-4.1509,-4.0935,-4.0735,-4.1478,0.0,0.0,0.0,0.0,0.0,0.0,0.0,0.0,0.0,0.0,0.0,0.0,0.0,0.0,0.0,0.0,0.0,0.0,-4.4502,-4.483,-4.5498,-4.488,-4.4615,0.0,-4.4615,-4.4615,-4.4615,-4.4615,-4.4615,-4.4615,-4.4615,-4.4564,-4.4496,-4.4496,-4.4462,-4.4327,-4.3589,-4.324,-4.3105,-4.2439,-4.2151,-4.1999,0.0,0.0,0.0,0.0,0.0,0.0,0.0,0.0,0.0,0.0,0.0,0.0,0.0,0.0,0.0,0.0,0.0,0.0,0.0,0.0,-4.5975,-4.6159,-4.7478,-4.8128,-4.7963,-4.8086,-4.8115,-4.8013,-4.8254,-4.8152,-4.7745,-4.8176,-4.7832,-4.6877,-4.7669,-4.7581,-4.6785,-4.6085,-4.5798,-4.5818,-4.5896,-4.5497,-4.4876,-4.4876,-4.4307,0.0,0.0,0.0,0.0,0.0,0.0,0.0,-4.3266,-4.2463,-4.1358,-4.1213,-4.1426,-4.1559,-4.0958,-4.2192,-4.3673,-4.3673,-4.413,-4.4384,-4.3482,-4.2883,-4.2189,-4.0966,-4.072,-4.072,-4.072,-4.0597,-4.0735,0.0,0.0,0.0,0.0,0.0,0.0,0.0,0.0,0.0,0.0,0.0,0.0,0.0,0.0,0.0,0.0,0.0,0.0,-4.3039,-4.2993,-4.3291,-4.3985,-4.4394,-4.4615,0.0,-4.4615,-4.4615,-4.4615,-4.4615,-4.4615,-4.4615,-4.4615,-4.4231,-4.3673,-4.3673,-4.3318,-4.276,-4.2591,-4.2185,-4.166,-4.1508,-4.1068,-4.0553,0.0,0.0,0.0,0.0,0.0,0.0,0.0,0.0,0.0,0.0,0.0,0.0,0.0,0.0,0.0,0.0,0.0,0.0,0.0,-4.5461,-4.6232,-4.6964,-4.771,-4.8048,-4.7902,-4.784,-4.7759,-4.7717,-4.6985,-4.6654,-4.6737,-4.6737,-4.6509,-4.6123,-4.6561,-4.644,-4.587,-4.5133,-4.4865,-4.4941,-4.4962,-4.4801,-4.4455,-4.409,-4.3688,-4.332,-4.2918,0.0,0.0,0.0,0.0,0.0,0.0,0.0,-4.066,-4.0389,-4.0732,-4.1204,-4.117,-4.254,-4.3978,-4.3978,-4.4282,-4.4412,-4.3676,-4.3227,-4.2614,-4.1243,-4.0699,-4.0489,-4.0489,-4.0489,-4.0612,0.0,0.0,0.0,0.0,0.0,0.0,0.0,0.0,0.0,0.0,0.0,0.0,0.0,0.0,0.0,0.0,-4.1278,-4.1376,-4.2061,-4.235,-4.2668,-4.2969,-4.4068,-4.4242,-4.3515,-4.3859,-4.3842,-4.3504,-4.3859,-4.3826,-4.3515,-4.3515,-4.325,-4.2878,-4.2878,-4.2642,-4.2252,-4.1914,-4.1542,-4.117,-4.0798,-4.0434,-4.0096,0.0,0.0,0.0,0.0,0.0,0.0,0.0,0.0,0.0,0.0,0.0,0.0,0.0,0.0,0.0,0.0,0.0,0.0,0.0,-4.5259,-4.6397,-4.7932,-4.7723,-4.7624,-4.7702,-4.7415,-4.7241,-4.7157,-4.5567,-4.5172,-4.595,-4.5373,-4.5398,-4.594,-4.5545,-4.529,-4.5098,-4.4178,-4.3878,-4.4068,-4.4068,-4.4033,-4.3889,-4.3233,-4.2904,-4.2704,-4.2029,-4.2212,-4.2813,-4.2959,0.0,0.0,0.0,0.0,-4.0147,-3.9804,-4.0175,-4.0883,-4.1551,-4.2956,-4.4276,-4.453,-4.4615,-4.444,-4.3839,-4.3571,-4.3196,-4.2078,-4.1209,-4.0646,-4.0524,-4.0489,0.0,0.0,0.0,0.0,0.0,0.0,0.0,0.0,0.0,0.0,0.0,0.0,0.0,0.0,0.0,0.0,-4.047,-4.0489,-4.0687,-4.1137,-4.1805,-4.2126,-4.2067,-4.3275,-4.3356,-4.2303,-4.2929,-4.2828,-4.2117,-4.2743,-4.276,-4.2286,-4.2286,-4.2219,-4.21,-4.21,-4.2033,-4.1847,-4.1255,-4.1018,-4.0933,-4.0333,-4.0096,-4.0096,0.0,0.0,0.0,0.0,0.0,0.0,0.0,0.0,0.0,0.0,-4.759,-4.6819,-4.614,-4.5957,0.0,0.0,0.0,0.0,-4.3736,0.0,0.0,-4.709,-4.6354,-4.6219,-4.6848,-4.6057,-4.5415,-4.5,-4.4304,-4.4471,-4.539,-4.4673,-4.4725,-4.5364,-4.4463,-4.4248,-4.4511,-4.3066,-4.2699,-4.3101,-4.3101,-4.274,-4.2214,-4.2105,-4.1685,-4.1117,-4.0989,-4.1025,-4.1226,-4.192,-4.17,0.0,0.0,0.0,-3.9129,-3.925,-3.9085,-3.8951,-3.9348,-4.0984,-4.2939,-4.4276,-4.4615,-4.457,-4.4485,-4.3972,-4.3453,-4.3257,-4.2237,-4.1176,-4.0627,0.0,0.0,0.0,0.0,0.0,0.0,0.0,0.0,0.0,0.0,0.0,0.0,0.0,0.0,0.0,0.0,0.0,-4.0331,-4.0436,-4.0247,-3.9797,-4.0414,-4.0719,-4.0667,-4.0909,-4.1484,-4.2286,-4.2388,-4.2066,-4.1356,-4.1457,-4.1796,-4.2286,-4.2286,-4.1931,-4.1356,-4.1356,-4.0967,-4.0383,-4.0299,-4.0248,-4.0231,-4.0146,-4.0096,-4.0096,0.0,0.0,0.0,0.0,0.0,0.0,0.0,0.0,0.0,0.0,0.0,-4.5792,-4.5883,-4.5498,0.0,0.0,0.0,0.0,-4.2892,-4.3571,0.0,0.0,-4.5586,-4.569,-4.5914,-4.5057,-4.462,-4.4593,-4.3187,-4.3487,-4.5285,-4.4247,-4.4761,-4.6517,-4.5234,-4.4677,-4.4645,-4.3351,-4.2443,-4.1853,-4.2118,-4.2303,-4.2322,-4.0998,-4.1107,-4.1796,-4.0488,-4.0288,-4.0688,-4.1033,-4.0924,-4.0616,-4.0544,0.0,0.0,0.0,-3.8367,-3.8832,-4.0417,-4.1542,-4.2658,-4.4225,-4.4615,-4.4615,-4.4615,-4.4338,-4.3901,-4.3057,-4.2425,-4.1689,0.0,0.0,0.0,0.0,0.0,0.0,0.0,0.0,0.0,0.0,0.0,0.0,0.0,0.0,0.0,0.0,0.0,-3.9767,-3.933,-3.9687,-3.9613,-3.897,-3.9578,-3.9738,-3.9283,-4.0086,-4.073,-4.1174,-4.1529,-4.1288,-4.0595,-4.1018,-4.1153,-4.1077,-4.1077,-4.0891,-4.0578,-4.0578,-4.0375,-4.0096,-4.0096,-4.0096,-4.0096,-4.0096,-4.0096,-4.0096,0.0,0.0,0.0,0.0,0.0,0.0,0.0,0.0,0.0,0.0,0.0,-4.4947,-4.5535,0.0,0.0,0.0,0.0,0.0,-4.2378,0.0,0.0,0.0,0.0,-4.4778,-4.504,-4.4224,-4.3784,-4.3814,-4.226,-4.2753,-4.5081,-4.3933,-4.5031,-4.7877,-4.598,-4.4949,-4.4617,-4.3449,-4.2534,-4.1874,-4.2052,-4.2444,-4.2738,-4.118,-4.156,-4.2629,-4.0437,-4.0039,-4.0474,-4.0275,-4.0076,-3.9858,-3.9514,-3.9013,0.0,0.0,0.0,-3.8402,-4.0586,-4.1305,-4.1813,-4.3335,-4.4039,-4.4282,-4.4282,-4.4462,-4.4238,-4.2906,-4.252,-4.1989,0.0,0.0,0.0,0.0,0.0,0.0,0.0,0.0,0.0,0.0,0.0,0.0,0.0,0.0,0.0,0.0,0.0,-3.898,-3.8407,-3.8918,-3.8954,-3.8277,-3.8715,-3.8716,-3.8161,-3.9489,-3.9981,-3.957,-4.0491,-4.0535,-3.991,-4.0611,-4.0612,-4.0096,-4.0096,-4.0096,-4.0096,-4.0096,-4.0096,-4.0096,-4.0096,-4.0096,-4.0096,-4.0096,-4.0096,-4.0096,0.0,0.0,0.0,0.0,0.0,0.0,0.0,0.0,0.0,0.0,0.0,0.0,-4.4746,-4.4728,-4.4066,-4.2433,0.0,0.0,0.0,0.0,0.0,0.0,0.0,0.0,-4.4323,-4.3428,-4.253,-4.1648,-4.1539,-4.258,-4.4609,-4.3775,-4.5382,-4.8795,-4.5913,-4.4453,-4.4035,-4.2593,-4.2847,-4.4177,-4.3554,-4.3144,-4.2973,-4.3607,-4.3463,-4.2665,-4.1035,-4.0474,-4.0383,-3.9695,-3.8952,-3.8462,-3.917,-3.8862,-3.8125,0.0,0.0,0.0,-3.7821,-3.8633,-3.9529,-4.1018,-4.2439,-4.3443,-4.3443,-4.4045,-4.435,-4.3517,-4.279,-4.1903,0.0,0.0,0.0,0.0,0.0,0.0,0.0,0.0,0.0,0.0,0.0,0.0,0.0,0.0,0.0,0.0,0.0,-3.8389,-3.8041,-3.8356,-3.8246,-3.7569,-3.7586,-3.7546,-3.7435,-3.8644,-3.8672,-3.7583,-3.9319,-3.9849,-3.9259,-3.9875,-4.0146,-4.0096,-4.0096,-4.0096,-4.0096,-4.0096,-4.0096,-4.0096,-4.0096,-4.0096,-4.0096,-4.0096,-4.0096,-4.0096,0.0,0.0,0.0,0.0,0.0,0.0,0.0,0.0,0.0,0.0,0.0,0.0,0.0,-4.4691,-4.4031,-4.2385,-4.2206,0.0,0.0,0.0,0.0,0.0,0.0,0.0,-4.3393,-4.3083,-4.244,-4.1503,-4.1503,-4.2077,-4.3115,-4.3318,-4.4102,-4.5399,-4.4823,-4.48,-4.4995,-4.2816,-4.1953,-4.2033,-4.2075,-4.2544,-4.3194,-4.292,-4.3496,-4.4222,-4.2611,-4.1723,-4.1234,-4.0963,-4.0039,-3.9024,-3.9297,-3.8861,-3.7998,-3.7023,-3.6521,-3.6431,-3.6995,-3.7897,-3.8909,-3.987,-4.1044,-4.1999,-4.1999,-4.2946,-4.3487,-4.2252,-4.2151,0.0,0.0,0.0,0.0,0.0,0.0,0.0,0.0,0.0,0.0,0.0,0.0,0.0,0.0,0.0,0.0,0.0,0.0,0.0,-3.6879,-3.7487,-3.7554,-3.6876,-3.6861,-3.6847,-3.6816,-3.7637,-3.7841,-3.7417,-3.8821,-3.9418,-3.9232,-3.9825,-4.0096,-4.0096,-4.0096,-4.0096,-4.0096,-4.0096,-4.0096,-4.0096,-4.0096,-4.0096,-4.0096,-4.0096,-4.0096,-4.0096,0.0,0.0,0.0,0.0,0.0,0.0,0.0,0.0,-4.5131,-4.5662,0.0,0.0,0.0,0.0,-4.3925,-4.2281,-4.1554,-4.121,-4.121,-4.1921,0.0,0.0,0.0,0.0,-4.2901,-4.2497,-4.2031,-4.1503,-4.1103,-4.1391,-4.2303,-4.2557,-4.3081,-4.3792,-4.3555,-4.4147,-4.5207,-4.3234,-4.2337,-4.2245,-4.2298,-4.3087,-4.4143,-4.3832,-4.4719,-4.5888,-4.4277,-4.3353,-4.2827,-4.2266,-4.1252,-4.013,-3.9858,-3.8844,-3.7511,-3.615,-3.59,-3.602,-3.567,-3.6547,-3.7701,-3.8407,-3.9336,-4.029,-4.1035,-4.1965,-4.2361,-4.1407,-4.1593,0.0,0.0,0.0,0.0,0.0,0.0,0.0,0.0,0.0,0.0,0.0,0.0,0.0,0.0,0.0,0.0,0.0,0.0,0.0,-3.6386,-3.6793,-3.689,-3.6507,-3.6492,-3.6492,-3.6492,-3.7104,-3.7298,-3.7118,-3.8535,-3.9082,-3.8947,-3.9747,-4.0096,-4.0096,-4.0096,-4.0096,-4.0096,-4.0096,-4.0096,-4.0096,-4.0096,-4.0096,-4.0096,-4.0096,-4.0096,-4.0096,0.0,0.0,0.0,0.0,0.0,0.0,0.0,0.0,-4.5621,-4.564,0.0,0.0,0.0,0.0,0.0,-4.2194,-4.2049,-4.2049,-4.203,-4.2723,0.0,0.0,0.0,0.0,-4.2901,-4.1742,-4.1248,-4.1503,-4.0313,-4.059,-4.2202,-4.1525,-4.2371,-4.4378,-4.2185,-4.2422,-4.4429,-4.3623,-4.4024,-4.5146,-4.4372,-4.4712,-4.5735,-4.6524,-4.7173,-4.7458,-4.5884,-4.5305,-4.5072,-4.3497,-4.2429,-4.1596,-4.0727,-3.8862,-3.6666,-3.5101,-3.5143,-3.5374,0.0,0.0,0.0,-3.6524,-3.7269,-3.8379,-4.0544,-4.1085,-4.1119,-4.1136,-4.1153,0.0,0.0,0.0,0.0,0.0,0.0,0.0,0.0,0.0,0.0,0.0,0.0,0.0,0.0,0.0,0.0,0.0,0.0,-3.6907,-3.6727,-3.6386,-3.6274,-3.6492,-3.6492,-3.6492,-3.6492,-3.7074,-3.7074,-3.6523,-3.8339,-3.8865,-3.8334,-3.9549,-4.0096,-4.0096,-4.0096,-4.0096,-4.0096,-4.0096,-4.0096,-4.0096,-4.0096,-4.0096,-4.0096,-4.0096,-4.0096,-4.0096,0.0,0.0,0.0,0.0,0.0,-4.7687,-4.7469,-4.6337,-4.5724,0.0,0.0,0.0,-4.4764,-4.4489,-4.416,-4.3687,-4.3576,-4.3266,-4.2685,-4.3392,-4.3554,-4.2974,-4.3481,-4.3498,-4.29,-4.2223,-4.1777,-4.1503,-4.0834,-4.0573,-4.0722,-4.1052,-4.1255,-4.1348,-4.1238,-4.1255,-4.1305,-4.0544,-4.1332,-4.3008,-4.1759,-4.2601,-4.4652,-4.4861,-4.56,-4.6472,-4.6029,-4.5761,-4.5513,-4.5083,-4.3872,-4.223,-4.0311,-3.8238,-3.6397,-3.5954,-3.5771,-3.5489,-3.4472,0.0,0.0,0.0,0.0,0.0,0.0,0.0,-3.8971,-3.9495,-4.002,0.0,0.0,0.0,0.0,0.0,0.0,0.0,0.0,0.0,0.0,0.0,0.0,0.0,0.0,0.0,0.0,0.0,-3.7443,-3.676,-3.6694,-3.6386,-3.6274,-3.6492,-3.6492,-3.6492,-3.6492,-3.6662,-3.6662,-3.6523,-3.7895,-3.8463,-3.8334,-3.9549,-4.0096,-4.0096,-4.0096,-4.0096,-4.0096,-4.0096,-4.0096,-4.0096,-4.0096,-4.0096,-4.0096,-4.0096,-4.0096,-4.0096,0.0,0.0,0.0,-4.9673,-4.8502,-4.7591,-4.7265,-4.6454,-4.6098,0.0,0.0,0.0,-4.5321,-4.5228,-4.5081,-4.4755,-4.4642,-4.4403,-4.3914,-4.4331,-4.424,-4.3445,-4.3842,-4.362,-4.2632,-4.1836,-4.1378,-4.1208,-4.0421,-4.0071,-4.0113,-4.0527,-4.0341,-3.9673,-4.0087,-3.9868,-3.9116,-3.8396,-3.9529,-4.1813,-4.1567,-4.2577,-4.4234,-4.4544,-4.5257,-4.6098,-4.6098,-4.613,-4.6167,-4.5944,-4.4493,-4.2356,-3.9839,-3.8113,-3.6782,-3.5864,-3.5744,-3.5705,-3.4745,-3.4682,-3.4949,-3.5108,0.0,0.0,-3.6569,-3.7246,0.0,0.0,0.0,0.0,0.0,0.0,0.0,0.0,0.0,0.0,0.0,0.0,0.0,0.0,0.0,0.0,0.0,0.0,0.0,-3.9109,-3.806,-3.7199,-3.6725,-3.6258,-3.6085,-3.6304,-3.6352,-3.6383,-3.6383,-3.646,-3.6492,-3.6523,-3.7474,-3.7924,-3.7969,-3.8903,-3.9348,-3.9348,-3.9601,-3.9722,-3.9747,-3.9995,-4.0096,-4.0096,-4.0096,-4.0096,-4.0096,-4.0096,-4.0096,-4.0096,0.0,0.0,-4.9902,-4.9812,-4.8616,-4.7388,-4.6657,-4.653,-4.6569,0.0,-4.6558,-4.654,-4.6631,-4.6558,-4.6214,-4.549,-4.5345,-4.5254,-4.5164,-4.5164,-4.4802,-4.3987,-4.4041,-4.3502,-4.2234,-4.1089,-4.0617,-4.0802,-3.9596,-3.9377,-4.0096,-3.9943,-3.952,-3.887,-3.8785,-3.8345,-3.7618,-3.7134,-3.843,-4.0967,-4.2371,-4.3394,-4.4165,-4.4836,-4.5442,-4.5943,-4.5943,-4.6209,-4.65,-4.5927,-4.4266,-4.2048,-3.9567,-3.8415,-3.7577,-3.5609,-3.5679,-3.6174,-3.5157,-3.481,-3.5047,-3.6355,-3.5131,0.0,-3.7753,-3.7557,-3.7252,0.0,0.0,0.0,0.0,0.0,0.0,0.0,0.0,0.0,0.0,0.0,0.0,0.0,0.0,0.0,0.0,-3.991,-3.9681,-3.9661,-3.8812,-3.7818,-3.6755,-3.6064,-3.5799,-3.6005,-3.6148,-3.6196,-3.6196,-3.6383,-3.6492,-3.6523,-3.7104,-3.7417,-3.7417,-3.7958,-3.8193,-3.8221,-3.8733,-3.8931,-3.8931,-3.9605,-3.9927,-3.9995,-4.007,-4.0045,-4.002,-4.0087,-4.0096,-4.0096,0.0,-4.8364,-4.8594,-4.7957,-4.7579,-4.7263,-4.6869,-4.6829,-4.698,-4.7401,-4.6902,-4.6757,-4.7409,-4.6902,-4.645,-4.6287,-4.5671,-4.5037,-4.4385,-4.4331,-4.3969,-4.3173,-4.3751,-4.3502,-4.2234,-4.1601,-4.1119,-4.0802,-3.9596,-3.9377,-4.0079,-3.887,-3.8261,-3.8091,-3.7483,-3.6789,-3.6107,-3.7229,-3.8024,-3.8633,-3.9495,-4.1323,-4.3583,-4.3719,-4.4242,-4.4896,-4.4896,-4.48,-4.4595,-4.3676,-4.2627,-4.1499,-4.033,-3.9246,-3.8299,-3.7888,-3.766,-3.7509,-3.7303,-3.6789,-3.6288,-3.5926,0.0,0.0,-3.5351,-3.5622,-3.6146,0.0,0.0,0.0,0.0,0.0,0.0,0.0,0.0,0.0,0.0,0.0,0.0,0.0,0.0,0.0,0.0,-3.9839,-3.9625,-3.9445,-3.8287,-3.7338,-3.6725,-3.6064,-3.5799,-3.6005,-3.6148,-3.6196,-3.6196,-3.6383,-3.6492,-3.6523,-3.7104,-3.7417,-3.7385,-3.7488,-3.7491,-3.7486,-3.7508,-3.7244,-3.6947,-3.8037,-3.8833,-3.9418,-3.9918,-3.9799,-3.9418,-3.9918,-4.0096,-4.002,-4.7299,-4.7616,-4.7781,-4.737,-4.6983,-4.6653,-4.6525,-4.6501,-4.6714,-4.738,-4.7322,-4.7367,-4.7657,-4.7355,-4.7102,-4.7102,-4.6359,-4.5562,-4.4747,-4.4313,-4.3638,-4.2611,-4.2933,-4.2629,-4.1539,-4.1276,-4.0926,-4.0434,-3.9491,-3.9174,-3.9537,-3.8413,-3.8108,-3.8396,-3.7303,-3.6975,-3.7313,-3.733,-3.777,-3.8582,-4.0037,-4.1525,-4.2946,-4.3707,-4.3995,-4.3995,-4.3995,-4.3678,-4.3168,-4.2545,-4.1903,0.0,-4.0261,-3.9899,-3.9665,0.0,-3.8736,-3.8913,-3.8548,-3.7905,0.0,-3.7313,0.0,0.0,0.0,-3.5893,-3.6039,-3.7567,-3.732,-3.7151,0.0,0.0,0.0,0.0,0.0,0.0,0.0,0.0,0.0,0.0,0.0,0.0,0.0,-3.9803,-3.9625,-3.9424,-3.8167,-3.7304,-3.7057,-3.6129,-3.5668,-3.5733,-3.5973,-3.6085,-3.6085,-3.6367,-3.6492,-3.6492,-3.6474,-3.6438,-3.6452,-3.6082,-3.5894,-3.5906,-3.6163,-3.6099,-3.591,-3.6829,-3.7241,-3.7432,-3.8704,-3.9189,-3.9206,-3.9216,-3.9375,-3.9549,-4.6785,-4.6785,-4.6785,-4.6785,-4.6236,-4.5843,-4.5925,-4.5968,-4.6202,-4.6891,-4.7373,-4.7563,-4.7413,-4.7385,-4.7439,-4.7601,-4.6737,-4.5981,-4.5456,-4.4414,-4.3427,-4.2537,-4.2213,-4.1744,-4.1032,-4.0871,-4.058,-4.0096,-3.9208,-3.8853,-3.8971,-3.7939,-3.7939,-3.8734,-3.7533,-3.7736,-3.892,-3.7879,-3.8217,-3.958,-4.1508,-4.2202,-4.2236,-4.3633,-4.3741,-4.3156,-4.302,-4.2591,-4.2044,-4.1746,-4.1356,-4.0841,-3.9977,-4.0292,0.0,0.0,-3.9416,-3.9986,-3.936,0.0,0.0,0.0,0.0,-3.6462,0.0,0.0,0.0,-3.8007,0.0,0.0,0.0,0.0,0.0,0.0,0.0,0.0,0.0,0.0,0.0,0.0,0.0,0.0,0.0,-3.9521,-3.9354,-3.9394,-3.8063,-3.7285,-3.7404,-3.6312,-3.5639,-3.5504,-3.5829,-3.5973,-3.5941,-3.6258,-3.6352,-3.6199,-3.5676,-3.5338,-3.52,-3.4583,-3.4275,-3.4289,-3.4776,-3.4908,-3.4896,-3.5594,-3.5534,-3.5212,-3.7311,-3.8334,-3.8614,-3.8386,-3.8601,-3.8947,-4.4895,-4.4895,-4.4895,-4.4895,-4.4827,-4.4906,-4.5346,-4.5381,-4.558,-4.6147,-4.6288,-4.6301,-4.6286,-4.6286,-4.655,-4.7195,-4.5927,-4.5322,-4.5873,-4.395,-4.2994,-4.3506,-4.2286,-4.1658,-4.1767,-4.1129,-4.058,-4.0096,-3.87,-3.8362,-3.8937,-3.6857,-3.6654,-3.8024,-3.7855,-3.8227,-3.9022,-3.952,-4.0214,-4.1035,-4.1931,-4.1914,0.0,-4.2236,-4.2489,-4.2337,-4.1694,-4.1407,-4.1204,0.0,-4.0282,-4.0197,0.0,-4.0146,-4.018,-3.9977,0.0,0.0,0.0,0.0,0.0,0.0,-3.8328,0.0,0.0,0.0,-3.6518,-3.6073,0.0,0.0,0.0,0.0,0.0,0.0,0.0,0.0,0.0,0.0,0.0,0.0,0.0,0.0,0.0,0.0,-3.8327,-3.9334,-3.7659,-3.6836,-3.7375,-3.6746,-3.6103,-3.5534,-3.5829,-3.5894,-3.5752,-3.6085,-3.5889,-3.5186,-3.5217,-3.4866,-3.4166,-3.3729,-3.3451,-3.3334,-3.3423,-3.3184,-3.2826,-3.3963,-3.4121,-3.3872,-3.6433,-3.7134,-3.6851,-3.7911,-3.8334,-3.8322,-4.4513,-4.4615,-4.4615,-4.4615,-4.4615,-4.4682,-4.4852,-4.5612,-4.6227,-4.6326,-4.6691,-4.71,-4.7409,-4.7021,-4.7056,-4.7838,-4.7312,-4.6673,-4.6052,-4.5089,-4.4181,-4.3315,-4.228,-4.165,-4.1511,-4.0777,-4.0303,-4.0096,-3.9039,-3.8481,-3.8328,-3.6941,-3.7094,-3.8514,-3.8091,-3.9022,-4.0865,-4.0324,-4.0273,-4.0612,-4.1356,-4.1221,0.0,-4.2337,-4.2405,-4.1559,-4.0815,-4.0544,-4.0493,0.0,-4.0096,0.0,0.0,0.0,0.0,-4.0231,0.0,0.0,0.0,0.0,0.0,0.0,0.0,0.0,-3.6603,0.0,-3.6146,0.0,0.0,0.0,0.0,0.0,0.0,0.0,0.0,0.0,0.0,0.0,0.0,0.0,0.0,0.0,0.0,0.0,0.0,0.0,0.0,-3.6596,-3.6851,-3.6626,-3.6178,-3.5534,-3.5718,-3.5799,-3.5688,-3.5579,-3.5338,-3.5002,-3.4273,-3.3755,-3.3407,-3.2924,-3.266,-3.2616,-3.2698,-3.2629,-3.2441,-3.2951,-3.2965,-3.2837,-3.4329,-3.5534,-3.6387,-3.619,-3.6495,-3.6864,-4.4496,-4.4615,-4.4547,-4.4327,-4.4462,-4.4615,-4.4615,-4.5529,-4.6231,-4.6268,-4.6735,-4.7296,-4.7914,-4.7447,-4.7412,-4.8201,-4.808,-4.7472,-4.63,-4.5831,-4.4966,-4.3494,-4.2517,-4.1852,-4.1508,-4.0764,-4.0316,-4.0096,-3.9343,-3.8717,-3.8176,-3.7252,-3.7489,-3.8684,-3.8565,-3.98,-4.1948,-4.1279,-4.1136,-4.1365,-4.1677,-4.1465,-4.1127,-4.2327,-4.2016,-4.0832,-4.0299,-4.0096,-4.0096,-4.0096,-4.0096,0.0,-4.0096,0.0,-4.0781,0.0,0.0,0.0,-4.0248,0.0,0.0,0.0,0.0,0.0,0.0,0.0,0.0,0.0,0.0,0.0,0.0,0.0,0.0,0.0,0.0,0.0,0.0,0.0,0.0,0.0,0.0,0.0,0.0,0.0,0.0,0.0,0.0,0.0,-3.6462,-3.6492,-3.6178,-3.5534,-3.5441,-3.5416,-3.5353,-3.4908,-3.4561,-3.4303,-3.3365,-3.279,-3.2579,-3.2294,-3.2122,-3.2094,-3.2259,-3.2315,-3.2287,-3.2342,-3.2274,-3.2196,-3.2684,-3.3946,-3.5373,-3.4685,-3.49,-3.5386,-4.4598,-4.4615,-4.4333,-4.3561,-4.4079,-4.4615,-4.4615,-4.4649,-4.4936,-4.5647,-4.5749,-4.6036,-4.676,-4.6827,-4.7115,-4.7831,-4.7268,-4.6827,-4.6777,-4.5422,-4.4609,-4.4558,-4.3091,-4.2279,-4.2252,-4.1542,-4.0815,-4.0096,-3.9343,-3.8988,-3.892,-3.7489,-3.7195,-3.8007,-3.9386,-4.0493,-4.1339,-4.2699,-4.3741,-4.4395,-4.3639,-4.3308,-4.3139,0.0,-4.0798,-4.013,-4.0113,0.0,0.0,-4.0096,-4.0096,0.0,0.0,0.0,0.0,0.0,0.0,0.0,0.0,0.0,0.0,-3.8311,0.0,0.0,0.0,0.0,-3.6778,0.0,0.0,0.0,0.0,0.0,-3.6745,-3.6795,-3.6795,0.0,0.0,0.0,0.0,0.0,0.0,0.0,0.0,0.0,0.0,0.0,0.0,0.0,-3.6417,-3.6492,-3.6178,-3.5534,-3.5005,-3.4676,-3.4533,-3.4059,-3.3412,-3.2572,-3.266,-3.2315,-3.1569,-3.1855,-3.1955,-3.1813,-3.2094,-3.215,-3.2025,-3.2135,-3.2122,-3.2025,-3.2012,-3.248,-3.3207,-3.395,-3.4164,-3.4075,-4.3809,-4.4215,-4.4513,-4.4231,-4.4429,-4.4615,-4.4615,-4.4993,-4.5585,-4.6329,-4.643,-4.6887,-4.8122,-4.7817,-4.7834,-4.8578,-4.8409,-4.8054,-4.7564,-4.6599,-4.5821,-4.5348,-4.3859,-4.3031,-4.3031,-4.2303,-4.1559,-4.0832,-4.0578,-3.9952,-3.8971,-3.799,-3.7922,-3.865,-3.9157,-4.0324,-4.1965,-4.2455,-4.2828,-4.3047,0.0,-4.2963,-4.3274,0.0,0.0,-4.0747,-4.0282,-4.0096,0.0,-4.0096,-4.0096,-4.0096,-4.0096,-4.0096,-4.0096,-4.0096,-3.9757,0.0,0.0,0.0,-3.8633,-3.8633,0.0,0.0,0.0,0.0,0.0,0.0,0.0,0.0,0.0,0.0,-3.7364,-3.688,-3.6795,-3.6502,0.0,0.0,0.0,0.0,0.0,0.0,0.0,0.0,0.0,0.0,0.0,0.0,0.0,-3.6252,-3.6178,-3.5534,-3.4895,-3.4566,-3.4503,-3.3456,-3.2796,-3.2512,-3.2092,-3.1763,-3.1511,-3.1756,-3.1841,-3.1828,-3.1996,-3.2038,-3.1981,-3.2053,-3.1996,-3.187,-3.187,-3.1905,-3.2073,-3.2544,-3.2953,-3.3184,-4.3893,-4.4231,-4.4513,-4.4215,-4.4429,-4.4615,-4.4615,-4.5229,-4.5957,-4.6701,-4.7022,-4.7648,-4.8866,-4.8595,-4.8494,-4.8968,-4.9001,-4.8578,-4.7581,-4.731,-4.6752,-4.5737,-4.4756,-4.4113,-4.3842,-4.3081,-4.2337,-4.1593,-4.1593,-4.0967,-3.9766,-3.9039,-3.8802,-3.9005,-3.9259,-4.0324,-4.1931,-4.2472,-4.2861,-4.3125,0.0,-4.3386,0.0,0.0,-4.183,-4.1102,0.0,-4.0096,-4.0096,-4.0096,-4.0096,-4.0096,-4.0096,-4.0096,-4.0045,-3.9791,-3.9385,-3.9039,-3.9242,-3.8616,0.0,-3.8142,-3.7506,0.0,-3.6795,0.0,0.0,0.0,0.0,0.0,0.0,0.0,-3.8058,-3.7297,-3.6935,-3.6409,0.0,-3.5297,0.0,0.0,0.0,0.0,0.0,0.0,-3.2839,-3.3725,0.0,0.0,0.0,0.0,-3.5953,-3.5519,-3.4607,-3.4128,-3.4128,-3.2826,-3.2138,-3.2123,-3.1705,-3.1511,-3.1511,-3.1626,-3.1698,-3.1698,-3.1855,-3.1883,-3.1826,-3.1883,-3.1841,-3.1698,-3.1698,-3.1597,-3.1524,-3.1826,-3.2142,-3.2462,-4.475,-4.4615,-4.435,-4.3578,-4.4079,-4.4615,-4.4615,-4.5229,-4.5957,-4.6701,-4.7445,-4.8189,-4.8934,-4.9001,-4.9001,-4.9001,-4.9001,-4.8409,-4.6989,-4.753,-4.7263,-4.5872,-4.5737,-4.5365,-4.4682,-4.3876,-4.3115,-4.2337,-4.2303,-4.1914,-4.1187,-4.0426,-3.9698,-3.9089,-3.9791,-4.0536,-4.1356,-4.2784,-4.3859,-4.4615,-4.4615,-4.4615,-4.4445,-4.2912,-4.1897,-4.1153,-4.0383,-4.0096,-4.0096,-4.0096,-4.0096,-4.0096,-4.0096,-4.0079,-3.991,-3.9191,-3.8937,-3.8751,-3.8091,-3.7855,-3.7652,-3.7015,0.0,0.0,0.0,0.0,-3.801,0.0,0.0,0.0,0.0,0.0,0.0,-3.8024,-3.7135,-3.6212,0.0,0.0,0.0,0.0,0.0,0.0,0.0,-3.2425,-3.2438,-3.2482,-3.3095,-3.3754,0.0,0.0,0.0,-3.5504,-3.4203,-3.3499,-3.3499,-3.2168,-3.1511,-3.1511,-3.1511,-3.1511,-3.1511,-3.1511,-3.1511,-3.1511,-3.1698,-3.167,-3.1511,-3.1698,-3.167,-3.1511,-3.1511,-3.1511,-3.1511,-3.1698,-3.1799,-3.1846,-4.4649,-4.4615,-4.4547,-4.4344,-4.4479,-4.4615,-4.4615,-4.5229,-4.5957,-4.6701,-4.7445,-4.8189,-4.8934,-4.9001,-4.9001,-4.9001,-4.9001,-4.8849,-4.846,-4.8105,-4.772,-4.7331,-4.6295,-4.5618,-4.5415,-4.4671,-4.391,-4.3132,-4.2574,-4.1914,-4.117,-3.9884,-3.9462,-3.9842,-4.0028,-4.0823,-4.2066,-4.3031,-4.3859,-4.4615,-4.4615,-4.4615,0.0,0.0,-4.2658,-4.1847,-4.057,-4.0096,-4.0096,-4.0096,-4.0096,-4.0096,-4.0096,-3.9723,-3.9266,-3.9056,-3.821,-3.7432,-3.7804,-3.7053,-3.6411,-3.7381,-3.6755,-3.6062,0.0,0.0,0.0,0.0,0.0,0.0,0.0,0.0,0.0,-3.8084,-3.6713,-3.5625,-3.5168,0.0,0.0,-3.5669,0.0,0.0,0.0,-3.2641,-3.2438,-3.2482,-3.2677,0.0,0.0,0.0,0.0,-3.5489,-3.4203,-3.3499,-3.3499,-3.2168,-3.1511,-3.1511,-3.1511,-3.1511,-3.1511,-3.1511,-3.1511,-3.1511,-3.1539,-3.1539,-3.1511,-3.1568,-3.1539,-3.1511,-3.1511,-3.1511,-3.1511,-3.1568,-3.1568,-3.1583,-4.5077,-4.5331,-4.5478,-4.5128,-4.5331,-4.5432,-4.5111,-4.5432,-4.5957,-4.6701,-4.7445,0.0,-4.8477,-4.8815,-4.9001,-4.9001,-4.9001,0.0,-4.8545,0.0,0.0,-4.7906,-4.6802,-4.6177,-4.6177,-4.5128,0.0,-4.3927,-4.3166,-4.2405,-4.166,-4.0493,-3.9834,-3.9656,-4.0273,-4.1035,-4.1914,-4.3335,-4.4181,-4.4615,-4.4615,0.0,0.0,-4.3724,-4.2946,-4.2134,-4.0984,-4.0383,-4.0096,-4.0096,-4.0096,-4.0096,-4.0096,-3.9605,-3.8937,-3.855,-3.7614,-3.6719,-3.6838,-3.6207,-3.5774,-3.6664,-3.6219,-3.5751,-3.6534,-3.6702,-3.674,0.0,0.0,0.0,0.0,0.0,0.0,-3.7338,-3.64,-3.5613,-3.5091,0.0,0.0,0.0,-3.4955,0.0,0.0,0.0,0.0,0.0,0.0,0.0,0.0,0.0,0.0,-3.4622,-3.3888,-3.3365,-3.3066,-3.2019,-3.1511,-3.1511,-3.1511,-3.1511,-3.1511,-3.1511,-3.1511,-3.1511,-3.1511,-3.1511,-3.1511,-3.1511,-3.1511,-3.1511,-3.1511,-3.1511,-3.1511,-3.1511,-3.1511,-3.154,-4.572,-4.6295,-4.6532,-4.5703,-4.6244,-4.6583,0.0,-4.594,0.0,-4.6853,0.0,-4.8024,-4.8024,-4.8629,-4.9001,-4.9001,-4.9001,-4.8731,-4.8075,-4.8646,-4.8714,-4.8058,-4.7344,-4.6887,-4.6786,-4.5432,-4.4699,0.0,-4.3707,-4.2929,-4.2269,-4.1356,-4.0273,-3.9191,-4.0476,-4.1221,-4.1627,-4.369,-4.4615,-4.4615,-4.4615,-4.4615,-4.453,-4.3826,-4.3098,-4.2337,-4.161,-4.0798,-4.0096,-4.0096,-4.0096,-4.0096,-4.0096,-3.9605,-3.8828,-3.7964,-3.7198,-3.6441,-3.5694,-3.5469,-3.5492,-3.5571,-3.5543,-3.566,-3.6323,-3.6434,-3.6532,-3.6927,-3.7267,0.0,0.0,0.0,0.0,0.0,0.0,0.0,0.0,0.0,0.0,0.0,0.0,0.0,0.0,0.0,0.0,0.0,0.0,0.0,0.0,0.0,0.0,0.0,-3.3455,0.0,-3.2647,0.0,-3.1511,-3.1511,-3.1511,-3.1511,-3.1511,-3.1511,-3.1511,-3.1511,-3.1511,-3.1511,-3.1511,-3.1511,-3.1511,-3.1511,-3.1511,-3.1511,-3.1511,-3.1511,-3.1511,-3.1585,-4.5821,-4.6295,-4.6363,-4.5038,-4.5906,-4.6752,-4.6616,-4.7124,-4.7551,-4.7669,-4.8359,-4.8815,-4.8815,-4.8934,-4.9001,-4.9001,-4.9001,0.0,0.0,0.0,0.0,-4.8815,-4.8105,-4.7428,-4.6802,-4.5957,-4.5213,-4.4615,-4.3166,-4.2422,-4.2252,-4.029,-3.9563,-3.9926,-4.0189,-4.1296,-4.3071,-4.413,0.0,-4.4615,-4.4615,-4.4615,-4.4581,-4.4445,-4.3893,-4.3115,-4.2371,-4.1221,-4.0096,-4.0096,-4.0096,-4.0096,-4.0096,-3.9605,-3.8828,-3.7964,-3.7198,-3.6417,-3.5562,-3.5354,-3.536,-3.5492,-3.5446,-3.5411,-3.5637,-3.5608,-3.5525,-3.5502,-3.6019,-3.646,-3.6402,0.0,0.0,0.0,0.0,0.0,0.0,0.0,0.0,0.0,0.0,0.0,0.0,0.0,0.0,0.0,0.0,0.0,0.0,0.0,0.0,0.0,0.0,0.0,0.0,0.0,0.0,-3.1511,-3.1511,-3.1511,-3.1511,-3.1511,-3.1511,-3.1511,-3.1511,-3.1511,-3.1511,-3.1511,-3.1511,-3.1511,-3.1511,-3.1511,-3.1511,-3.1511,-3.1511,-3.1525,-4.6921,-4.7141,-4.7158,-4.6447,-4.6904,0.0,0.0,-4.8003,-4.8311,-4.7939,-4.8193,-4.8443,-4.8443,-4.8781,-4.9001,-4.9001,-4.9001,-4.9001,-4.9001,-4.9001,-4.9001,-4.9001,-4.8308,-4.7564,-4.6802,-4.6075,-4.5331,-4.4615,-4.3436,-4.2675,-4.2252,-4.0815,-3.9918,-3.9571,-4.0341,-4.1931,0.0,0.0,0.0,-4.4615,-4.4615,-4.4615,-4.4615,-4.4615,-4.4096,-4.3291,-4.2493,-4.1488,-4.0518,-4.0206,-4.0096,-4.0096,-4.0096,-3.9555,-3.8814,-3.8295,-3.7315,-3.6289,-3.589,-3.5499,-3.5222,-3.5377,-3.5308,-3.5222,-3.5268,-3.5245,-3.5175,-3.5018,-3.5324,-3.5714,-3.6048,-3.6455,0.0,0.0,0.0,0.0,0.0,0.0,-3.5454,0.0,0.0,0.0,0.0,0.0,0.0,0.0,0.0,0.0,0.0,0.0,0.0,0.0,0.0,0.0,0.0,0.0,0.0,-3.1511,-3.1511,-3.1511,-3.1511,-3.1511,-3.1511,-3.1511,-3.1511,-3.1511,-3.1511,-3.1511,-3.1511,-3.1511,-3.1511,-3.1511,-3.1511,-3.1511,-3.1511,-3.1555,-4.7922,-4.8024,-4.8024,-4.7733,-4.7936,-4.8075,-4.7906,-4.8545,-4.8798,-4.8193,-4.8125,-4.8125,-4.8125,-4.8663,-4.9001,-4.9001,-4.9001,-4.9001,-4.9001,-4.9001,-4.9001,-4.9001,-4.846,-4.78,-4.7056,-4.6312,-4.5568,0.0,-4.3876,-4.3115,-4.2506,-4.1627,0.0,0.0,0.0,0.0,0.0,0.0,-4.4615,-4.4615,-4.4615,-4.4615,-4.4615,-4.4615,-4.4198,-4.3544,-4.2665,-4.1853,-4.1122,-4.0458,-4.013,-3.9995,-3.9995,-3.9548,-3.8933,-3.8639,-3.7645,-3.6579,-3.6238,-3.5723,-3.5264,-3.5098,-3.5065,-3.5018,-3.493,-3.4994,-3.5018,-3.4923,-3.4994,-3.5226,-3.5721,-3.6266,0.0,0.0,0.0,0.0,0.0,0.0,0.0,0.0,0.0,0.0,0.0,0.0,0.0,0.0,0.0,0.0,0.0,0.0,0.0,0.0,0.0,0.0,-3.172,0.0,-3.1511,0.0,-3.1511,-3.1511,-3.1511,-3.1511,-3.1511,-3.1511,-3.1511,-3.1511,-3.1511,-3.1511,-3.1511,-3.1511,-3.1511,-3.1511,-3.1511,-3.1511,-3.1511,-3.16,-4.8024,-4.8443,0.0,0.0,0.0,0.0,-4.799,-4.8545,-4.8984,-4.8917,-4.89,-4.89,-4.89,-4.8968,-4.9001,-4.9001,-4.9001,-4.9001,-4.9001,-4.9001,-4.9001,-4.9001,-4.8934,-4.8562,-4.7804,-4.7073,-4.6329,0.0,0.0,-4.3358,-4.3257,-4.1863,0.0,0.0,0.0,0.0,0.0,-4.4282,-4.4615,-4.4615,-4.4615,-4.4615,-4.4615,-4.4615,-4.4564,-4.4384,-4.344,-4.2627,-4.186,-4.1013,-4.0282,-3.9755,-3.9755,-3.9679,-3.9469,-3.8646,-3.8311,-3.7877,-3.6406,-3.5984,-3.5654,-3.4587,-3.461,-3.4811,-3.4399,-3.461,-3.4923,-3.4899,-3.4899,-3.4978,-3.5145,-3.5144,-3.5349,0.0,0.0,0.0,0.0,0.0,-3.5778,-3.4454,0.0,0.0,0.0,0.0,0.0,0.0,0.0,0.0,0.0,0.0,0.0,-3.2378,0.0,-3.1854,-3.2392,-3.1795,0.0,-3.1511,-3.1511,-3.1511,-3.1511,-3.1511,-3.1511,-3.1511,-3.1511,-3.1511,-3.1511,-3.1511,-3.1511,-3.1511,-3.1511,-3.1511,-3.1511,-3.1511,-3.1511,-3.16,0.0,0.0,0.0,0.0,0.0,0.0,0.0,-4.8815,-4.9001,-4.9001,-4.9001,-4.9001,-4.9001,-4.9001,-4.9001,-4.9001,-4.9001,-4.9001,-4.9001,-4.9001,-4.9001,-4.9001,-4.9001,-4.8663,-4.7906,-4.7175,-4.643,0.0,0.0,-4.3876,-4.3375,-4.2811,0.0,0.0,0.0,-4.3673,-4.413,-4.4479,-4.4615,-4.4615,-4.4615,-4.4615,-4.4587,-4.4468,-4.4412,-4.4282,-4.3317,-4.2496,-4.1732,-4.0861,-4.0164,-3.9703,-3.9703,-3.9625,-3.9497,-3.9161,-3.87,-3.8157,-3.7483,-3.6403,-3.5337,-3.4866,-3.4309,-3.3818,-3.364,-3.4027,-3.4423,-3.4423,-3.4423,-3.4431,-3.4482,-3.4526,-3.451,0.0,0.0,0.0,0.0,0.0,0.0,-3.4031,0.0,-3.2956,0.0,0.0,0.0,0.0,0.0,0.0,0.0,0.0,0.0,-3.1884,0.0,-3.163,-3.1899,-3.163,-3.1511,-3.1511,-3.1511,-3.1511,-3.1511,-3.1511,-3.1511,-3.1511,-3.1511,-3.1511,-3.1511,-3.1511,-3.1511,-3.1511,-3.1511,-3.1511,-3.1511,-3.1511,-3.1511,-3.154,-4.7721,0.0,-4.7816,0.0,-4.8236,-4.8147,-4.8886,-4.9001,-4.9001,-4.9001,-4.9001,-4.9001,-4.9001,-4.9001,-4.9001,-4.9001,-4.9001,-4.9001,-4.9001,-4.9001,-4.9001,-4.9001,-4.9001,0.0,-4.824,-4.7513,-4.6769,-4.6024,-4.528,-4.4519,-4.3758,0.0,0.0,0.0,-4.3758,-4.4062,-4.4615,-4.4615,-4.4615,-4.4615,-4.4615,-4.4457,-4.4224,-4.4281,-4.4133,-4.3848,-4.331,-4.2501,-4.1567,-4.0715,-3.9929,-3.9298,-3.9299,-3.9222,-3.9104,-3.8925,-3.8444,-3.7948,-3.7912,-3.657,-3.5101,-3.4919,-3.4037,-3.3172,-3.2986,-3.3413,-3.3841,-3.3841,-3.3841,-3.379,-3.3636,-3.381,-3.3819,-3.3374,0.0,0.0,0.0,0.0,0.0,-3.3741,-3.3502,-3.296,-3.1644,0.0,0.0,0.0,0.0,0.0,0.0,0.0,0.0,0.0,0.0,0.0,0.0,-3.1511,-3.1511,-3.1511,-3.1511,-3.1511,-3.1511,-3.1511,-3.1511,-3.1511,-3.1511,-3.1511,-3.1511,-3.1511,-3.1511,-3.1511,-3.1511,-3.1511,-3.1511,-3.1511,-3.1511,-3.1511,-4.6949,-4.6811,-4.7035,-4.7787,-4.7917,-4.8161,-4.8892,-4.9001,-4.9001,-4.9001,-4.9001,-4.9001,-4.9001,-4.9001,-4.9001,-4.9001,-4.9001,-4.9001,-4.9001,-4.9001,-4.9001,0.0,0.0,-4.9001,-4.8984,-4.8244,-4.753,-4.6786,0.0,0.0,-4.4598,0.0,-4.4598,-4.4598,-4.4598,-4.4598,-4.4615,-4.4615,-4.4615,-4.4615,-4.4615,-4.4093,-4.3396,-4.4047,-4.3781,-4.3089,-4.3671,-4.295,-4.158,-4.0778,-3.9576,-3.8393,-3.835,-3.8322,-3.8193,-3.7589,-3.7413,-3.7388,-3.7242,-3.627,-3.5122,-3.4469,-3.373,-3.3066,-3.2547,-3.2815,-3.3224,-3.3224,-3.3224,-3.3039,-3.252,-3.2841,-3.3275,-3.346,0.0,0.0,0.0,0.0,0.0,-3.3741,-3.3495,-3.2968,-3.1628,0.0,0.0,0.0,0.0,0.0,0.0,0.0,0.0,-3.1511,-3.1511,0.0,-3.1511,-3.1511,-3.1511,-3.1511,-3.1511,-3.1511,-3.1511,-3.1511,-3.1511,-3.1511,-3.1511,-3.1511,-3.1511,-3.1511,-3.1511,-3.1511,-3.1511,-3.1511,-3.1511,-3.1511,-3.1511,-3.1511,-4.6182,-4.6464,-4.688,-4.7119,-4.7153,-4.7221,-4.7456,-4.7505,-4.7505,-4.7505,-4.7934,-4.8242,-4.8242,-4.8688,-4.9001,0.0,-4.9001,-4.9001,0.0,-4.9001,-4.9001,-4.9001,-4.9001,-4.9001,-4.9001,-4.8261,-4.777,-4.7564,0.0,0.0,0.0,-4.3169,-4.3169,-4.3152,-4.3061,-4.3031,-4.3031,-4.2892,-4.2831,-4.2831,-4.2831,-4.2676,-4.241,-4.2504,-4.2363,-4.2141,-4.2237,-4.1645,-4.0769,-4.053,-3.9802,-3.8857,-3.7949,-3.7689,-3.7648,-3.7458,-3.7399,-3.7381,-3.7364,-3.6371,-3.5324,-3.5107,-3.3891,-3.2676,-3.2504,-3.2553,-3.2761,-3.3103,-3.2922,-3.2586,-3.2437,-3.2188,-3.222,-3.2745,0.0,0.0,0.0,0.0,0.0,-3.368,-3.3909,-3.3472,0.0,-3.2138,0.0,0.0,0.0,0.0,0.0,0.0,0.0,0.0,-3.1511,0.0,-3.1511,-3.1511,-3.1511,-3.1511,-3.1511,-3.1511,-3.1511,-3.1511,-3.1511,-3.1511,-3.1511,-3.1511,-3.1511,-3.1511,-3.1511,-3.1511,-3.1511,-3.1511,-3.1511,-3.1511,-3.1511,-3.1511,-4.5421,-4.566,-4.604,-4.6324,-4.6394,-4.6464,-4.6742,-4.6811,-4.6811,-4.6811,-4.7221,-4.7489,-4.7489,-4.7901,0.0,-4.894,-4.9001,-4.8892,-4.8625,-4.8593,-4.845,-4.8177,-4.845,-4.8593,-4.8593,0.0,0.0,-4.7471,-4.5322,-4.3822,-4.291,-4.2619,-4.252,-4.2489,-4.2363,-4.23,-4.23,-4.2093,-4.1997,-4.1997,-4.1997,-4.1788,-4.1543,-4.1658,-4.1511,-4.1262,-4.1444,-4.1044,-4.0405,-4.0155,-3.9568,-3.8776,-3.7737,-3.7394,-3.7312,-3.6816,-3.6692,-3.6723,-3.6951,-3.6059,-3.5126,-3.5338,-3.3954,-3.2422,-3.2168,-3.2098,-3.2148,-3.2489,-3.2299,-3.2064,-3.2064,-3.1739,-3.172,-3.2378,0.0,-3.3724,-3.4414,0.0,0.0,0.0,0.0,0.0,0.0,-3.2871,0.0,0.0,0.0,0.0,0.0,0.0,0.0,-3.1511,-3.1511,0.0,-3.1511,-3.1511,-3.1511,-3.1511,-3.1511,-3.1511,-3.1511,-3.1511,-3.1511,-3.1511,-3.1511,-3.1511,-3.1511,-3.1511,-3.1511,-3.1511,-3.1511,-3.1511,-3.1511,-3.1511,-3.1511,-3.154,-4.4708,-4.461,0.0,0.0,-4.5624,0.0,-4.6534,-4.6638,-4.6638,-4.6638,-4.6673,-4.6708,-4.6708,-4.6777,-4.7355,-4.8736,0.0,0.0,0.0,-4.7819,-4.7522,-4.6811,-4.7456,-4.7819,-4.777,-4.7819,-4.744,-4.6664,-4.4659,-4.3606,-4.3444,-4.2767,-4.2412,-4.2332,-4.2205,-4.2141,-4.2109,-4.1901,-4.1804,-4.1804,-4.1804,-4.1346,-4.069,-4.1297,-4.1078,-4.0512,-4.1127,-4.0959,-4.0317,-3.9687,-3.9043,-3.8347,-3.7689,-3.7479,-3.7225,-3.5953,-3.5579,-3.5679,-3.6211,-3.5456,-3.4689,-3.5278,-3.397,-3.2363,-3.166,-3.1511,-3.1511,-3.1511,-3.1511,-3.1511,-3.1511,-3.154,-3.1795,-3.2452,-3.314,-3.3784,-3.4488,0.0,0.0,0.0,0.0,0.0,0.0,-3.32,-3.3844,0.0,0.0,0.0,0.0,0.0,-3.1511,-3.1511,-3.1511,-3.1511,-3.1511,-3.1511,-3.1511,-3.1511,-3.1511,-3.1511,-3.1511,-3.1511,-3.1511,-3.1511,-3.1511,-3.1511,-3.1511,-3.1511,-3.1511,-3.1511,-3.1511,-3.1511,-3.1511,-3.1511,-3.1525,-3.166,0.0,0.0,-4.4648,-4.4821,-4.4858,-4.4933,-4.5104,-4.5104,-4.5104,-4.5104,-4.5588,-4.5985,-4.5985,-4.6464,-4.6949,-4.7288,-4.7322,-4.7254,-4.7085,-4.7051,-4.6898,-4.659,-4.6898,-4.6932,-4.6609,-4.6882,-4.6455,-4.5213,-4.4671,-4.3608,-4.2081,-4.1894,-4.1467,-4.0802,-4.0646,-4.0459,-4.0305,-4.0095,-4.0041,-4.0041,-4.0041,-3.99,-3.9737,-3.99,-3.9844,-3.9681,-3.9844,-3.9788,-3.9631,-3.9465,-3.9313,-3.905,-3.8377,-3.8153,-3.7898,-3.6626,-3.6252,-3.6181,-3.5819,-3.5499,-3.5297,-3.5428,-3.4373,-3.2961,-3.1765,-3.1511,-3.1511,-3.1511,-3.1511,-3.1511,-3.1511,-3.1914,-3.2467,-3.3155,-3.3814,-3.4487,-3.516,-3.4951,0.0,0.0,-3.4099,-3.3963,-3.2647,-3.4038,-3.4666,0.0,0.0,0.0,0.0,0.0,-3.1511,-3.1511,-3.1511,-3.1511,-3.1511,-3.1511,-3.1511,-3.1511,-3.1511,-3.1511,-3.1511,-3.1511,-3.1511,-3.1511,-3.1511,-3.1511,-3.1511,-3.1511,-3.1511,-3.1511,-3.1511,-3.1511,-3.1511,-3.1511,-3.1824,-3.2273,-4.461,-4.4549,-4.4458,-4.4458,-4.4396,-4.432,-4.432,-4.432,-4.432,-4.432,-4.467,-4.4918,-4.4918,-4.5258,-4.5515,-4.5515,-4.6288,-4.6638,-4.6324,-4.6218,-4.5953,-4.552,-4.5845,-4.5917,-4.5706,-4.5917,-4.5491,-4.4396,-4.4085,-4.337,-4.2239,-4.1882,-4.1494,-4.102,-4.087,-4.074,-4.0616,-4.0396,-4.0307,-4.0292,-3.9993,-3.9873,-3.9828,-3.9529,-3.9388,-3.9388,-3.9388,-3.9388,-3.9388,-3.9388,-3.9388,-3.9349,-3.8975,-3.8856,-3.8661,-3.7644,-3.6941,-3.6417,-3.6058,-3.5729,-3.5429,-3.5115,-3.4487,-3.3679,-3.2662,-3.2168,-3.2034,-3.2333,-3.2168,-3.2049,-3.2348,-3.2721,-3.3185,-3.3844,-3.4024,-3.4294,-3.4936,-3.4457,0.0,-3.3529,-3.4099,-3.4219,-3.3484,-3.4397,-3.4726,-3.3993,0.0,0.0,-3.2512,-3.1854,-3.1511,-3.1511,-3.1511,-3.1511,-3.1511,-3.1511,-3.1511,-3.1511,-3.1511,-3.1511,-3.1511,-3.1511,-3.1511,-3.1511,-3.1511,-3.1511,-3.1511,-3.1511,-3.1511,-3.1511,-3.1511,-3.1511,-3.154,-3.1839,-3.2183,-3.2602,-4.4511,-4.4358,-4.4243,-4.4243,-4.4089,-4.3988,-4.3988,-4.3988,-4.3988,-4.3988,-4.3988,-4.3988,-4.3988,-4.3988,-4.3988,-4.3988,-4.5478,-4.6111,-4.5478,-4.5258,-4.4918,-4.4243,-4.4655,-4.4887,-4.4849,-4.4849,-4.4579,-4.3988,-4.3411,-4.3092,-4.2986,-4.2379,-4.2008,-4.1864,-4.1761,-4.1678,-4.1626,-4.146,-4.1422,-4.1324,-4.0771,-4.0487,-4.0352,-3.9888,-3.9589,-3.9388,-3.9493,-3.9514,-3.9388,-3.9388,-3.9388,-3.9388,-3.9388,-3.9388,-3.9305,-3.8721,-3.7704,-3.6731,-3.6537,-3.6013,-3.534,-3.4683,-3.4503,-3.4339,-3.3649,-3.3066,-3.2826,-3.338,-3.3051,-3.2826,-3.3395,-3.3574,-3.3829,-3.4414,-3.4129,-3.3963,-3.4444,0.0,-3.3455,-3.3365,-3.3844,-3.4219,-3.4219,-3.4294,-3.4354,-3.4354,-3.32,0.0,0.0,-3.1854,-3.1511,-3.1511,-3.1511,-3.1511,-3.1511,-3.1511,-3.1511,-3.1511,-3.1511,-3.1511,-3.1511,-3.1511,-3.1511,-3.1511,-3.1511,-3.1511,-3.1511,-3.1511,-3.1511,-3.1511,-3.1511,-3.157,-3.172,-3.2273,-3.2647,-3.2961,-4.4104,-4.4065,-4.4065,-4.4065,-4.4026,-4.3988,-4.3988,-4.3988,-4.3988,-4.3988,-4.3988,-4.3988,-4.3988,-4.3988,-4.3988,-4.3988,-4.4266,-4.4381,-4.4266,-4.4228,-4.4089,-4.3808,-4.405,-4.3996,-4.3591,-4.3817,-4.3934,-4.3988,-4.3881,-4.3532,-4.2986,-4.288,-4.2455,-4.1738,-4.1716,-4.1626,-4.1422,-4.1422,-4.1422,-4.1407,-4.1265,-4.0891,-4.0442,-4.0905,-4.0382,-3.9448,-4.0053,-3.9888,-3.9388,-3.9388,-3.9388,-3.9388,-3.9388,-3.9388,-3.9394,-3.929,-3.8706,-3.7853,-3.6776,-3.6013,-3.534,-3.4683,-3.4503,-3.4339,-3.3649,-3.3425,-3.3365,-3.3469,-3.341,-3.338,-3.3469,-3.3948,-3.4384,-3.4488,-3.4876,-3.5026,-3.4578,0.0,-3.329,-3.2736,-3.2766,-3.2826,-3.2826,-3.332,-3.3649,-3.3649,-3.2946,-3.2512,-3.2512,-3.1854,-3.1511,-3.1511,-3.1511,-3.1511,-3.1511,-3.1511,-3.1511,-3.1511,-3.1511,-3.1511,-3.1511,-3.1511,-3.1511,-3.1511,-3.1511,-3.1511,-3.1511,-3.1511,-3.1511,-3.1511,-3.1511,-3.1854,-3.2348,-3.2452,-3.3215,-3.4234,-4.3988,-4.391,-4.3847,-4.3847,-4.3699,-4.3621,-4.3621,-4.3621,-4.3621,-4.3621,-4.3621,-4.3621,-4.3621,-4.3621,-4.3621,-4.3621,-4.3621,-4.3621,-4.3621,-4.3754,-4.3808,-4.369,-4.3675,-4.3542,-4.329,-4.3423,-4.3542,-4.3621,-4.3621,-4.3455,-4.3154,-4.3154,-4.2965,-4.2563,-4.2563,-4.2524,-4.2432,-4.2432,-4.2432,-4.2402,-4.2081,-4.1767,-4.1444,-4.1399,-4.101,-4.0472,-4.0412,-4.0202,-3.9888,-3.9508,-3.9388,-3.9388,-3.9388,-3.9388,-3.9388,-3.9388,-3.8676,-3.7659,-3.6731,-3.6013,-3.5429,-3.5115,-3.5026,-3.4951,-3.4651,-3.4292,-3.4128,-3.4502,-3.4277,-3.4143,-3.4517,-3.4831,-3.5026,-3.5026,-3.4996,0.0,0.0,-3.3903,-3.3514,-3.3559,-3.326,-3.3185,-3.3529,-3.32,-3.2961,-3.2961,-3.2333,-3.1959,-3.1959,-3.1675,-3.1511,-3.1511,-3.1511,-3.1511,-3.1511,-3.1511,-3.1511,-3.1511,-3.1511,-3.1511,-3.1511,-3.1511,-3.1511,-3.1511,-3.1511,-3.1511,-3.1511,-3.1511,-3.1511,-3.1511,-3.1511,-3.1914,-3.2527,-3.2916,-3.3649,-3.4563,-4.3832,-4.3714,-4.3596,-4.3596,-4.3423,-4.329,-4.329,-4.329,-4.329,-4.329,-4.329,-4.329,-4.329,-4.329,-4.329,-4.329,-4.329,-4.329,-4.329,-4.3503,-4.3596,-4.3596,-4.3289,-4.314,-4.329,-4.314,-4.314,-4.329,-4.329,-4.329,-4.329,-4.329,-4.329,-4.329,-4.329,-4.329,-4.329,-4.329,-4.329,-4.3245,-4.2791,-4.2545,-4.2366,-4.1968,-4.1654,-4.1324,-4.098,-4.0651,-4.0322,-3.9813,-3.9544,-3.9388,-3.9388,-3.9388,-3.9388,-3.9388,-3.8571,-3.7464,-3.6701,-3.6118,-3.5699,-3.5549,-3.5504,-3.5504,-3.5504,-3.51,-3.4861,-3.5385,-3.5085,-3.4876,-3.5415,-3.5504,-3.5504,-3.5504,0.0,0.0,0.0,-3.3903,-3.3679,-3.4219,-3.3529,-3.3305,-3.3963,-3.2961,-3.2258,-3.2258,-3.1795,-3.1511,-3.1511,-3.1511,-3.1511,-3.1511,-3.1511,-3.1511,-3.1511,-3.1511,-3.1511,-3.1511,-3.1511,-3.1511,-3.1511,-3.1511,-3.1511,-3.1511,-3.1511,-3.1511,-3.1511,-3.1511,-3.1511,-3.1511,-3.1511,-3.1989,-3.2796,-3.3305,-3.4008,-3.4801,-4.3329,-4.3329,-4.3329,-4.3329,-4.329,-4.329,-4.329,-4.329,-4.329,-4.329,-4.329,-4.329,-4.329,-4.329,-4.329,-4.329,-4.329,-4.329,-4.329,-4.3329,-4.3329,-4.3329,-4.28,-4.2716,-4.329,-4.2746,-4.2731,-4.329,-4.329,-4.329,-4.329,-4.329,-4.329,-4.329,-4.329,-4.329,-4.329,-4.329,-4.329,-4.329,-4.3245,-4.2895,-4.247,-4.2985,-4.2432,-4.1444,-4.2051,-4.1467,-4.0382,-4.0337,-3.9918,-3.9388,-3.9388,-3.9388,-3.9388,-3.9388,-3.8901,-3.8048,-3.6821,-3.6447,-3.6267,-3.5654,-3.5504,-3.5504,-3.5504,-3.5474,-3.5444,-3.5489,-3.5459,-3.5444,-3.5489,-3.5504,-3.5504,-3.5504,0.0,0.0,-3.4593,-3.3903,-3.3514,-3.3559,-3.2422,-3.1914,-3.2572,-3.1989,-3.157,-3.157,-3.1525,-3.1511,-3.1511,-3.1511,-3.1511,-3.1511,-3.1511,-3.1511,-3.1511,-3.1511,-3.1511,-3.1511,-3.1511,-3.1511,-3.1511,-3.1511,-3.1511,-3.1511,-3.1511,-3.1511,-3.1511,-3.1511,-3.1511,-3.1511,-3.1511,-3.2273,-3.3425,-3.3484,-3.4322,-3.5429,-4.329,-4.329,-4.329,-4.329,-4.329,-4.329,-4.329,-4.329,-4.329,-4.329,-4.329,-4.329,-4.329,-4.329,-4.329,-4.329,-4.329,-4.329,-4.329,-4.329,-4.329,-4.329,-4.309,-4.309,-4.329,-4.309,-4.309,-4.329,-4.329,-4.329,-4.329,-4.329,-4.329,-4.329,-4.329,-4.329,-4.329,-4.329,-4.329,-4.329,-4.329,-4.314,-4.2985,-4.32,-4.2991,-4.2566,-4.2455,-4.2081,-4.1587,-4.1145,-4.0846,-4.0561,-4.0157,-4.0023,-3.9948,-3.9508,-3.923,-3.8826,-3.7913,-3.709,-3.6327,-3.5669,-3.5504,-3.5504,-3.5504,-3.5504,-3.5504,-3.5504,-3.5504,-3.5504,-3.5504,-3.5504,-3.5504,-3.5504,0.0,-3.5415,-3.516,-3.4891,-3.4592,-3.4189,-3.3305,-3.2691,-3.2527,-3.1884,-3.1511,-3.1511,-3.1511,-3.1511,-3.1511,-3.1511,-3.1511,-3.1511,-3.1511,-3.1511,-3.1511,-3.1914,-3.1914,-3.1511,-3.1914,-3.1899,-3.1511,-3.1511,-3.1511,-3.1511,-3.1511,-3.1735,-3.2079,-3.1675,-3.1989,-3.2706,-3.2273,-3.2946,-3.4098,-3.4098,-3.4696,-3.5504,-4.329,-4.329,-4.329,-4.329,-4.329,-4.329,-4.329,-4.329,-4.329,-4.329,-4.329,-4.329,-4.329,-4.329,-4.329,-4.329,-4.329,-4.329,-4.329,-4.329,-4.329,-4.329,-4.3135,-4.3135,-4.329,-4.3135,-4.3135,-4.329,-4.3135,-4.3135,-4.329,-4.3135,-4.3135,-4.329,-4.329,-4.329,-4.329,-4.329,-4.329,-4.329,-4.329,-4.329,-4.329,-4.329,-4.329,-4.3245,-4.2821,-4.2575,-4.2336,-4.1886,-4.1587,-4.1309,-4.0846,-4.0561,-4.0277,-3.9619,-3.9388,-3.9275,-3.8571,-3.7749,-3.6881,-3.6028,-3.5654,-3.5504,-3.5504,-3.5504,-3.5504,-3.5504,-3.5504,-3.5504,-3.5504,-3.5504,-3.5504,-3.5504,-3.5504,-3.5504,-3.5504,-3.5325,-3.5011,-3.4563,-3.3709,-3.3006,-3.2527,-3.1884,-3.1511,-3.1511,-3.1511,-3.1511,-3.1511,-3.1511,-3.1511,-3.1511,-3.1511,-3.1511,-3.1511,-3.1959,-3.1959,-3.1511,-3.1959,-3.1944,-3.1511,-3.1511,-3.1511,-3.1511,-3.172,-3.2064,-3.2452,-3.1989,-3.2497,-3.3425,-3.2766,-3.332,-3.4503,-3.4503,-3.4906,-3.5504,-4.329,-4.329,-4.329,-4.329,-4.329,-4.329,-4.329,-4.329,-4.329,-4.329,-4.329,-4.329,-4.329,-4.329,-4.329,-4.329,-4.329,-4.329,-4.329,-4.329,-4.329,-4.329,-4.2716,-4.2671,-4.329,-4.2701,-4.2686,-4.329,-4.2686,-4.2701,-4.3275,-4.2656,-4.2701,-4.329,-4.329,-4.329,-4.329,-4.329,-4.329,-4.329,-4.329,-4.329,-4.329,-4.329,-4.329,-4.329,-4.329,-4.2925,-4.241,-4.241,-4.1976,-4.1384,-4.1384,-4.0935,-4.0277,-3.9619,-3.9388,-3.9275,-3.8586,-3.8392,-3.8093,-3.6806,-3.6013,-3.5519,-3.5519,-3.5519,-3.5519,-3.5504,-3.5504,-3.5504,-3.5504,-3.5504,-3.5504,-3.5504,-3.5504,-3.5504,-3.5504,-3.4921,-3.4503,-3.4503,-3.332,-3.2512,-3.2497,-3.1884,-3.1511,-3.1511,-3.1511,-3.1511,-3.1511,-3.1511,-3.1511,-3.1511,-3.1511,-3.1511,-3.1511,-3.1511,-3.1511,-3.1511,-3.1511,-3.1511,-3.1511,-3.1511,-3.1511,-3.154,-3.2198,-3.2512,-3.2512,-3.2527,-3.2901,-3.344,-3.2781,-3.3335,-3.4518,-3.4518,-3.4921,-3.5504,-4.329,-4.329,-4.329,-4.329,-4.329,-4.329,-4.329,-4.329,-4.329,-4.329,-4.329,-4.329,-4.329,-4.329,-4.329,-4.329,-4.329,-4.329,-4.329,-4.329,-4.329,-4.329,-4.315,-4.3135,-4.329,-4.3135,-4.3135,-4.329,-4.2686,-4.25,-4.2641,-4.2021,-4.2066,-4.2656,-4.2656,-4.2895,-4.329,-4.329,-4.329,-4.329,-4.329,-4.329,-4.329,-4.329,-4.329,-4.329,-4.329,-4.317,-4.3045,-4.3045,-4.291,-4.2671,-4.2246,-4.1332,-4.0367,-4.0172,-3.9783,-3.9379,-3.917,-3.8751,-3.8182,-3.7345,-3.6985,-3.6731,-3.6297,-3.6193,-3.6058,-3.5609,-3.5504,-3.5504,-3.5504,-3.5504,-3.5504,-3.5504,-3.5504,-3.5504,-3.5504,-3.5325,-3.4846,-3.3903,-3.344,-3.2841,-3.1884,-3.1615,-3.1511,-3.1511,-3.1511,-3.1511,-3.1511,-3.1511,-3.1511,-3.1511,-3.1511,-3.1511,-3.1511,-3.1959,-3.1959,-3.1511,-3.1974,-3.1959,-3.1525,-3.1989,-3.1944,-3.157,-3.2721,-3.2946,-3.2557,-3.3021,-3.3589,-3.4158,-3.3963,-3.4427,-3.519,-3.519,-3.5325,-3.5504,-4.329,-4.329,-4.329,-4.329,-4.329,-4.329,-4.329,-4.329,-4.329,-4.329,-4.329,-4.329,-4.329,-4.329,-4.329,-4.329,-4.329,-4.329,-4.329,-4.329,-4.329,-4.329,-4.329,-4.329,-4.329,-4.329,-4.329,-4.329,-4.2686,-4.253,-4.2731,-4.1841,-4.1767,-4.2396,-4.2126,-4.2192,-4.2566,-4.2566,-4.2566,-4.2581,-4.2851,-4.294,-4.297,-4.32,-4.329,-4.329,-4.329,-4.329,-4.329,-4.329,-4.329,-4.317,-4.2605,-4.1856,-4.107,-4.0546,-4.0113,-3.9753,-3.9448,-3.911,-3.8706,-3.8302,-3.7793,-3.7315,-3.6941,-3.6851,-3.6671,-3.6028,-3.5893,-3.5804,-3.5549,-3.5504,-3.5504,-3.5504,-3.5504,-3.5504,-3.5504,-3.5504,-3.51,-3.4008,-3.3649,-3.308,-3.1989,-3.166,-3.1511,-3.1511,-3.1511,-3.1511,-3.1511,-3.1511,-3.1511,-3.1511,-3.1511,-3.163,-3.1884,-3.2288,-3.2288,-3.1899,-3.2034,-3.2019,-3.1914,-3.2303,-3.2273,-3.1974,-3.3305,-3.3664,-3.332,-3.3724,-3.4277,-3.4861,-3.4608,-3.4906,-3.5504,-3.5504,-3.5504,-3.5504,-4.329,-4.329,-4.329,-4.329,-4.329,-4.329,-4.329,-4.329,-4.329,-4.329,-4.329,-4.329,-4.329,-4.329,-4.329,-4.329,-4.329,-4.329,-4.329,-4.329,-4.329,-4.329,-4.329,-4.329,-4.329,-4.329,-4.329,-4.329,-4.2686,-4.2671,-4.317,-4.1908,-4.1677,-4.2291,-4.1632,-4.1324,-4.1422,-4.1422,-4.1422,-4.1467,-4.2066,-4.2306,-4.2381,-4.3,-4.32,-4.3215,-4.3275,-4.329,-4.329,-4.329,-4.329,-4.3185,-4.2626,-4.244,-4.2171,-4.0935,-4.0487,-4.0277,-3.9664,-3.9433,-3.9388,-3.9388,-3.8497,-3.7569,-3.7509,-3.7494,-3.733,-3.6701,-3.6522,-3.6297,-3.5699,-3.5549,-3.5504,-3.5504,-3.5504,-3.5504,-3.5504,-3.5504,-3.525,-3.4593,-3.3903,-3.3245,-3.2587,-3.1884,-3.1511,-3.1511,-3.1511,-3.1511,-3.1511,-3.1511,-3.1525,-3.1585,-3.1585,-3.1914,-3.2572,-3.2602,-3.2572,-3.2497,-3.1869,-3.1869,-3.2392,-3.2512,-3.2572,-3.2587,-3.3963,-3.4533,-3.4429,-3.4548,-3.4906,-3.5355,-3.4786,-3.4951,-3.5504,-3.5504,-3.5504,-3.5504,-4.329,-4.329,-4.329,-4.329,-4.329,-4.329,-4.329,-4.329,-4.329,-4.329,-4.329,-4.329,-4.329,-4.329,-4.329,-4.329,-4.329,-4.329,-4.329,-4.329,-4.329,-4.329,-4.329,-4.329,-4.329,-4.329,-4.329,-4.329,-4.2686,-4.247,-4.259,-4.1235,-4.0965,-4.1602,-4.0905,-4.0905,-4.1422,-4.1422,-4.1422,-4.1384,-4.1572,-4.1632,-4.1707,-4.2366,-4.262,-4.2641,-4.315,-4.329,-4.329,-4.329,-4.329,-4.3275,-4.3125,-4.2776,-4.2336,-4.2051,-4.1205,-4.0367,-4.0232,-3.9813,-3.9388,-3.9388,-3.92,-3.8841,-3.8302,-3.8182,-3.7988,-3.7345,-3.6821,-3.6447,-3.6297,-3.5848,-3.5504,-3.5504,-3.5504,-3.5504,-3.5504,-3.5504,-3.525,-3.4593,-3.3903,-3.3245,-3.2587,-3.1884,-3.1511,-3.1511,-3.1511,-3.1511,-3.1511,-3.1511,-3.1735,-3.2258,-3.2273,-3.2617,-3.3275,-3.3275,-3.3021,-3.2512,-3.2333,-3.2079,-3.175,-3.2811,-3.3006,-3.2587,-3.4472,-3.4681,-3.3784,-3.4846,-3.5055,-3.4741,-3.513,-3.537,-3.5504,-3.5504,-3.5504,-3.5504,-4.329,-4.329,-4.329,-4.329,-4.329,-4.329,-4.329,-4.329,-4.329,-4.329,-4.329,-4.329,-4.329,-4.329,-4.329,-4.329,-4.329,-4.329,-4.329,-4.329,-4.329,-4.329,-4.329,-4.329,-4.329,-4.329,-4.329,-4.329,-4.2985,-4.2821,-4.2806,-4.1803,-4.1354,-4.1369,-4.1025,-4.0891,-4.0935,-4.125,-4.1205,-4.0935,-4.125,-4.119,-4.0995,-4.1677,-4.2126,-4.244,-4.2746,-4.3075,-4.329,-4.329,-4.329,-4.329,-4.329,-4.309,-4.2761,-4.2485,-4.1916,-4.119,-4.0561,-4.0142,-3.9813,-3.9499,-3.9388,-3.9334,-3.896,-3.8886,-3.8691,-3.8018,-3.736,-3.6836,-3.6537,-3.5953,-3.5504,-3.5504,-3.5504,-3.5504,-3.5504,-3.5504,-3.537,-3.5011,-3.4382,-3.3589,-3.2617,-3.2168,-3.1974,-3.1974,-3.1974,-3.2108,-3.2452,-3.2437,-3.2617,-3.2976,-3.2976,-3.3305,-3.3963,-3.3994,-3.3784,-3.344,-3.3125,-3.2961,-3.2961,-3.3649,-3.3784,-3.3529,-3.4906,-3.51,-3.4517,-3.522,-3.5295,-3.4996,-3.537,-3.5504,-3.5504,-3.5504,-3.5504,-3.5439,-4.329,-4.329,-4.329,-4.329,-4.329,-4.329,-4.329,-4.329,-4.329,-4.329,-4.329,-4.329,-4.329,-4.329,-4.329,-4.329,-4.329,-4.329,-4.329,-4.329,-4.329,-4.329,-4.329,-4.329,-4.329,-4.329,-4.329,-4.329,-4.329,-4.329,-4.329,-4.2671,-4.2111,-4.1587,-4.1467,-4.107,-4.0606,-4.1145,-4.107,-4.0621,-4.116,-4.0995,-4.0472,-4.113,-4.1692,-4.2096,-4.2321,-4.2776,-4.329,-4.329,-4.329,-4.329,-4.329,-4.329,-4.3185,-4.2686,-4.2485,-4.2141,-4.0891,-4.0487,-4.0247,-3.9589,-3.9388,-3.9388,-3.9388,-3.9388,-3.926,-3.8691,-3.8033,-3.7419,-3.6911,-3.6193,-3.5669,-3.5669,-3.5579,-3.5504,-3.5504,-3.5504,-3.5504,-3.5504,-3.4906,-3.4039,-3.2796,-3.2677,-3.2677,-3.2677,-3.2677,-3.2916,-3.3469,-3.3499,-3.3544,-3.3664,-3.3664,-3.3978,-3.4668,-3.4683,-3.4683,-3.4668,-3.4098,-3.4008,-3.4339,-3.4459,-3.4503,-3.4548,-3.5205,-3.5504,-3.5504,-3.5504,-3.5504,-3.5504,-3.5504,-3.5504,-3.5504,-3.5504,-3.5392,-3.5198,-4.329,-4.329,-4.329,-4.329,-4.329,-4.329,-4.329,-4.329,-4.329,-4.329,-4.329,-4.329,-4.329,-4.329,-4.329,-4.329,-4.329,-4.329,-4.329,-4.329,-4.329,-4.329,-4.329,-4.329,-4.329,-4.329,-4.329,-4.329,-4.329,-4.329,-4.329,-4.2671,-4.2351,-4.2246,-4.1677,-4.1324,-4.125,-4.1339,-4.1324,-4.125,-4.1339,-4.0995,-4.0472,-4.113,-4.1085,-4.0816,-4.1991,-4.2776,-4.329,-4.329,-4.329,-4.329,-4.329,-4.329,-4.3275,-4.3185,-4.2806,-4.2231,-4.1444,-4.0831,-4.0247,-3.9589,-3.9388,-3.9388,-3.9388,-3.9388,-3.9358,-3.9269,-3.8736,-3.8227,-3.8153,-3.7165,-3.6357,-3.6357,-3.5878,-3.5504,-3.5504,-3.5504,-3.5504,-3.5504,-3.4906,-3.4219,-3.344,-3.3365,-3.3365,-3.3365,-3.3365,-3.3395,-3.3499,-3.3499,-3.3754,-3.4354,-3.4369,-3.4681,-3.5355,-3.537,-3.537,-3.537,-3.5265,-3.4666,-3.3649,-3.4249,-3.4503,-3.4548,-3.5205,-3.5504,-3.5504,-3.5504,-3.5504,-3.5504,-3.5504,-3.5504,-3.5504,-3.5504,-3.5052,-3.4428,-4.329,-4.329,-4.329,-4.329,-4.329,-4.329,-4.329,-4.329,-4.329,-4.329,-4.329,-4.329,-4.329,-4.329,-4.329,-4.329,-4.329,-4.329,-4.329,-4.329,-4.329,-4.329,-4.329,-4.329,-4.329,-4.329,-4.329,-4.329,-4.329,-4.329,-4.329,-4.3045,-4.2701,-4.2396,-4.2432,-4.2267,-4.1991,-4.2327,-4.2267,-4.1976,-4.1976,-4.1309,-4.0427,-4.0726,-4.0651,-4.0531,-4.1474,-4.2237,-4.2791,-4.2791,-4.303,-4.329,-4.329,-4.329,-4.329,-4.329,-4.3135,-4.2761,-4.2141,-4.1752,-4.1287,-4.0232,-3.9963,-3.9873,-3.9514,-3.9388,-3.9388,-3.9388,-3.8871,-3.8392,-3.8392,-3.7345,-3.6492,-3.6492,-3.5938,-3.5504,-3.5504,-3.5504,-3.5504,-3.5504,-3.5235,-3.4786,-3.4098,-3.4038,-3.4038,-3.4038,-3.4038,-3.4203,-3.4592,-3.4622,-3.4756,-3.504,-3.5055,-3.519,-3.5504,-3.5504,-3.5504,-3.5504,-3.5504,-3.519,-3.4637,-3.4921,-3.5055,-3.507,-3.537,-3.5504,-3.5472,-3.5019,-3.4824,-3.4791,-3.439,-3.4438,-3.4687,-3.4572,-3.4322,-3.3871]},{"header":{"parameterUnit":"m.s-1","parameterCategory":1,"la1":30.6,"la2":28.766,"lo1":-90.7593,"lo2":-88.6598,"dy":0.0162,"dx":0.0183,"nx":116,"ny":114,"refTime":"2024-05-18T12:00:00:Z","depth":0,"parameterNumber":3,"parameterNumberName":"V-component_of_WINDS"},"data":[0.0,0.0,0.0,0.0,0.0,0.0,0.0,0.0,0.0,0.0,0.0,0.0,0.0,0.0,0.0,0.0,0.0,0.0,0.0,0.0,0.0,0.0,0.0,0.0,0.0,0.0,0.0,0.0,0.0,0.0,0.0,0.0,0.0,0.0,0.0,0.0,0.0,0.0,0.0,0.0,0.0,0.0,0.0,0.0,0.0,0.0,0.0,0.0,0.0,0.0,0.0,0.0,0.0,0.0,0.0,0.0,0.0,0.0,0.0,0.0,0.0,0.0,0.0,0.0,0.0,0.0,0.0,0.0,0.0,0.0,0.0,0.0,0.0,0.0,0.0,0.0,0.0,0.0,0.0,0.0,0.0,0.0,0.0,0.0,0.0,0.0,0.0,0.0,0.0,0.0,0.0,0.0,0.0,0.0,0.0,0.0,0.0,0.0,0.0,0.0,0.0,0.0,0.0,0.0,0.0,0.0,0.0,0.0,0.0,0.0,0.0,0.0,0.0,0.0,0.0,0.0,0.0,0.0,0.0,0.0,0.0,0.0,0.0,0.0,0.0,0.0,0.0,0.0,0.0,0.0,0.0,0.0,0.0,0.0,0.0,0.0,0.0,0.0,0.0,0.0,0.0,0.0,0.0,0.0,0.0,0.0,0.0,0.0,0.0,0.0,0.0,0.0,0.0,0.0,0.0,0.0,0.0,0.0,0.0,0.0,0.0,0.0,0.0,0.0,0.0,0.0,0.0,0.0,0.0,0.0,0.0,0.0,0.0,0.0,0.0,0.0,0.0,0.0,0.0,0.0,0.0,0.0,0.0,0.0,0.0,0.0,0.0,0.0,0.0,0.0,0.0,0.0,0.0,0.0,0.0,0.0,0.0,0.0,0.0,0.0,0.0,0.0,0.0,0.0,0.0,0.0,0.0,0.0,0.0,0.0,0.0,0.0,0.0,0.0,0.0,0.0,0.0,0.0,0.0,0.0,0.0,0.0,0.0,0.0,0.0,0.0,0.0,0.0,0.0,0.0,0.0,0.0,0.0,0.0,0.0,0.0,0.0,0.0,0.0,0.0,0.0,0.0,0.0,0.0,0.0,0.0,0.0,0.0,0.0,0.0,0.0,0.0,0.0,0.0,0.0,0.0,0.0,0.0,0.0,0.0,0.0,0.0,0.0,0.0,0.0,0.0,0.0,0.0,0.0,0.0,0.0,0.0,0.0,0.0,0.0,0.0,0.0,0.0,0.0,0.0,0.0,0.0,0.0,0.0,0.0,0.0,0.0,0.0,0.0,0.0,0.0,0.0,0.0,0.0,0.0,0.0,0.0,0.0,0.0,0.0,0.0,0.0,0.0,0.0,0.0,0.0,0.0,0.0,0.0,0.0,0.0,0.0,0.0,0.0,0.0,0.0,0.0,0.0,0.0,0.0,0.0,0.0,0.0,0.0,0.0,0.0,0.0,0.0,0.0,0.0,0.0,0.0,0.0,0.0,0.0,0.0,0.0,0.0,0.0,0.0,0.0,0.0,0.0,0.0,0.0,0.0,0.0,0.0,0.0,0.0,0.0,0.0,0.0,0.0,0.0,0.0,0.0,0.0,0.0,0.0,0.0,0.0,0.0,0.0,0.0,0.0,0.0,0.0,0.0,0.0,0.0,0.0,0.0,0.0,0.0,0.0,0.0,0.0,0.0,0.0,0.0,0.0,0.0,0.0,0.0,0.0,0.0,0.0,0.0,0.0,0.0,0.0,0.0,0.0,0.0,0.0,0.0,0.0,0.0,0.0,0.0,0.0,0.0,0.0,0.0,0.0,0.0,0.0,0.0,0.0,0.0,0.0,0.0,0.0,0.0,0.0,0.0,0.0,0.0,0.0,0.0,0.0,0.0,0.0,0.0,0.0,0.0,0.0,0.0,0.0,0.0,0.0,0.0,0.0,0.0,0.0,0.0,0.0,0.0,0.0,0.0,0.0,0.0,0.0,0.0,0.0,0.0,0.0,0.0,0.0,0.0,0.0,0.0,0.0,0.0,0.0,0.0,0.0,0.0,0.0,0.0,0.0,0.0,0.0,0.0,0.0,0.0,0.0,0.0,0.0,0.0,0.0,0.0,0.0,0.0,0.0,0.0,0.0,0.0,0.0,0.0,0.0,0.0,0.0,0.0,0.0,0.0,0.0,0.0,0.0,0.0,0.0,0.0,0.0,0.0,0.0,0.0,0.0,0.0,0.0,0.0,0.0,0.0,0.0,0.0,0.0,0.0,0.0,0.0,0.0,0.0,0.0,0.0,0.0,0.0,0.0,0.0,0.0,0.0,0.0,0.0,0.0,0.0,0.0,0.0,0.0,0.0,0.0,0.0,0.0,0.0,0.0,0.0,0.0,0.0,0.0,0.0,0.0,0.0,0.0,0.0,0.0,0.0,0.0,0.0,0.0,0.0,0.0,0.0,0.0,0.0,0.0,0.0,0.0,0.0,0.0,0.0,0.0,0.0,0.0,0.0,0.0,0.0,0.0,0.0,0.0,0.0,0.0,0.0,0.0,0.0,0.0,0.0,0.0,0.0,0.0,0.0,0.0,0.0,0.0,0.0,0.0,0.0,0.0,0.0,0.0,0.0,0.0,0.0,0.0,0.0,0.0,0.0,0.0,0.0,0.0,0.0,0.0,0.0,0.0,0.0,0.0,0.0,0.0,0.0,0.0,0.0,0.0,0.0,0.0,0.0,0.0,0.0,0.0,0.0,0.0,0.0,0.0,0.0,0.0,0.0,0.0,0.0,0.0,0.0,0.0,0.0,0.0,0.0,0.0,0.0,0.0,0.0,0.0,0.0,0.0,0.0,0.0,0.0,0.0,0.0,0.0,0.0,0.0,0.0,0.0,0.0,0.0,0.0,0.0,0.0,0.0,0.0,0.0,0.0,0.0,0.0,0.0,0.0,0.0,0.0,0.0,0.0,0.0,0.0,0.0,0.0,0.0,0.0,0.0,0.0,0.0,0.0,0.0,0.0,0.0,0.0,0.0,0.0,0.0,0.0,0.0,0.0,0.0,0.0,0.0,0.0,0.0,0.0,0.0,0.0,0.0,0.0,0.0,0.0,0.0,0.0,0.0,0.0,0.0,0.0,0.0,0.0,0.0,0.0,0.0,0.0,0.0,0.0,0.0,0.0,0.0,0.0,0.0,0.0,0.0,0.0,0.0,0.0,0.0,0.0,0.0,0.0,0.0,0.0,0.0,0.0,0.0,0.0,0.0,0.0,0.0,0.0,0.0,0.0,0.0,0.0,0.0,0.0,0.0,0.0,0.0,0.0,0.0,0.0,0.0,0.0,0.0,0.0,0.0,0.0,0.0,0.0,0.0,0.0,0.0,0.0,0.0,0.0,0.0,0.0,0.0,0.0,0.0,0.0,0.0,0.0,0.0,0.0,0.0,0.0,0.0,0.0,0.0,0.0,0.0,0.0,0.0,0.0,0.0,0.0,0.0,0.0,0.0,0.0,0.0,0.0,0.0,0.0,0.0,0.0,0.0,0.0,0.0,0.0,0.0,0.0,0.0,0.0,0.0,0.0,0.0,0.0,0.0,0.0,0.0,0.0,0.0,0.0,0.0,0.0,0.0,0.0,0.0,0.0,0.0,0.0,0.0,0.0,0.0,0.0,0.0,0.0,0.0,0.0,0.0,0.0,0.0,0.0,0.0,0.0,0.0,0.0,0.0,0.0,0.0,0.0,0.0,0.0,0.0,0.0,0.0,0.0,0.0,0.0,0.0,0.0,0.0,0.0,0.0,0.0,0.0,0.0,0.0,0.0,0.0,0.0,0.0,0.0,0.0,0.0,0.0,0.0,0.0,0.0,0.0,0.0,0.0,0.0,0.0,0.0,0.0,0.0,0.0,0.0,0.0,0.0,0.0,0.0,0.0,0.0,0.0,0.0,0.0,0.0,0.0,0.0,0.0,0.0,0.0,0.0,0.0,0.0,0.0,0.0,0.0,0.0,0.0,0.0,0.0,0.0,0.0,0.0,0.0,0.0,0.0,0.0,0.0,0.0,0.0,0.0,0.0,0.0,0.0,0.0,0.0,0.0,0.0,0.0,0.0,0.0,0.0,0.0,0.0,0.0,0.0,0.0,0.0,0.0,0.0,0.0,0.0,0.0,0.0,0.0,0.0,0.0,0.0,0.0,0.0,0.0,0.0,0.0,0.0,0.0,0.0,0.0,0.0,0.0,0.0,0.0,0.0,0.0,0.0,0.0,0.0,0.0,0.0,0.0,0.0,0.0,0.0,0.0,0.0,0.0,0.0,0.0,0.0,0.0,0.0,0.0,0.0,0.0,0.0,0.0,0.0,0.0,0.0,0.0,0.0,0.0,0.0,0.0,0.0,0.0,0.0,0.0,0.0,0.0,0.0,0.0,0.0,0.0,0.0,0.0,0.0,0.0,0.0,0.0,0.0,0.0,0.0,0.0,0.0,0.0,0.0,0.0,0.0,0.0,0.0,0.0,0.0,0.0,0.0,0.0,0.0,0.0,0.0,0.0,0.0,0.0,0.0,0.0,0.0,0.0,0.0,0.0,0.0,0.0,0.0,0.0,0.0,0.0,0.0,0.0,0.0,0.0,0.0,0.0,0.0,0.0,0.0,0.0,0.0,0.0,0.0,0.0,0.0,0.0,0.0,0.0,0.0,0.0,0.0,0.0,0.0,0.0,0.0,0.0,0.0,0.0,0.0,0.0,0.0,0.0,0.0,0.0,0.0,0.0,0.0,0.0,0.0,0.0,0.0,0.0,0.0,0.0,0.0,0.0,0.0,0.0,0.0,0.0,0.0,0.0,0.0,0.0,0.0,0.0,0.0,0.0,0.0,0.0,0.0,0.0,0.0,0.0,0.0,0.0,0.0,0.0,0.0,0.0,0.0,0.0,0.0,0.0,0.0,0.0,0.0,0.0,0.0,0.0,0.0,0.0,0.0,0.0,0.0,0.0,0.0,0.0,0.0,0.0,0.0,0.0,0.0,0.0,0.0,0.0,0.0,0.0,0.0,0.0,0.0,0.0,0.0,0.0,0.0,0.0,0.0,0.0,0.0,0.0,0.0,0.0,0.0,0.0,0.0,0.0,0.0,0.0,0.0,0.0,0.0,0.0,0.0,0.0,0.0,0.0,0.0,0.0,0.0,0.0,0.0,0.0,0.0,0.0,0.0,0.0,0.0,0.0,0.0,0.0,0.0,0.0,0.0,0.0,0.0,0.0,0.0,0.0,0.0,0.0,0.0,0.0,0.0,0.0,0.0,0.0,0.0,0.0,0.0,0.0,0.0,0.0,0.0,0.0,0.0,0.0,0.0,0.0,0.0,0.0,0.0,0.0,0.0,0.0,0.0,0.0,0.0,0.0,0.0,0.0,0.0,0.0,0.0,0.0,0.0,0.0,0.0,0.0,0.0,0.0,0.0,0.0,0.0,0.0,0.0,0.0,0.0,0.0,0.0,0.0,0.0,0.0,0.0,0.0,0.0,0.0,0.0,0.0,0.0,0.0,0.0,0.0,0.0,0.0,0.0,0.0,0.0,0.0,0.0,0.0,0.0,0.0,0.0,0.0,0.0,0.0,0.0,0.0,0.0,0.0,0.0,0.0,0.0,0.0,0.0,0.0,0.0,0.0,0.0,0.0,0.0,0.0,0.0,0.0,0.0,0.0,0.0,0.0,0.0,0.0,0.0,0.0,0.0,0.0,0.0,0.0,0.0,0.0,0.0,0.0,0.0,0.0,0.0,0.0,0.0,0.0,0.0,0.0,0.0,0.0,0.0,0.0,0.0,0.0,0.0,0.0,0.0,0.0,0.0,0.0,0.0,0.0,0.0,0.0,0.0,0.0,0.0,0.0,0.0,0.0,0.0,0.0,0.0,0.0,0.0,0.0,0.0,0.0,0.0,0.0,0.0,0.0,0.0,0.0,0.0,0.0,0.0,0.0,0.0,0.0,0.0,0.0,0.0,0.0,0.0,0.0,0.0,0.0,0.0,0.0,0.0,0.0,0.0,0.0,0.0,0.0,0.0,0.0,0.0,0.0,0.0,0.0,0.0,0.0,0.0,0.0,0.0,0.0,0.0,0.0,0.0,0.0,0.0,0.0,0.0,0.0,0.0,1.5058,0.0,0.0,0.0,0.0,0.0,0.0,0.0,0.0,0.0,0.0,0.0,0.0,0.0,0.0,0.0,0.0,0.0,0.0,0.0,0.0,0.0,0.0,0.0,0.0,2.102,2.1879,2.2812,2.3114,2.3233,2.3235,0.0,0.0,0.0,0.0,0.0,2.251,2.1875,2.1553,2.1553,2.1075,2.086,2.086,2.0185,1.9214,1.7997,0.0,0.0,0.0,0.0,0.0,0.0,0.0,0.0,0.0,0.0,0.0,0.0,0.0,0.0,0.0,0.0,0.0,0.0,0.0,0.0,0.0,0.0,0.0,0.0,0.0,0.0,0.0,0.0,0.0,0.0,0.0,0.0,0.0,0.0,0.0,0.0,0.0,0.0,0.0,0.0,0.0,0.0,0.0,0.0,0.0,0.0,0.0,0.0,0.0,0.0,0.0,0.0,0.0,0.0,0.0,0.0,0.0,0.0,0.0,0.0,0.0,0.0,0.0,0.0,0.0,0.0,0.0,0.0,0.0,0.0,0.0,1.5763,0.0,0.0,0.0,0.0,0.0,0.0,0.0,0.0,0.0,0.0,0.0,0.0,0.0,0.0,0.0,0.0,0.0,0.0,0.0,0.0,0.0,1.8624,2.009,2.0871,2.173,2.2732,2.3192,2.3387,2.3242,2.3214,0.0,0.0,0.0,2.2584,2.2617,2.2207,2.1992,2.1992,2.207,2.2139,2.2217,2.2217,2.1023,1.8883,1.8742,0.0,0.0,0.0,0.0,0.0,0.0,0.0,0.0,0.0,0.0,0.0,0.0,0.0,0.0,0.0,0.0,0.0,0.0,0.0,0.0,0.0,0.0,0.0,0.0,0.0,0.0,0.0,0.0,0.0,0.0,0.0,0.0,0.0,0.0,0.0,0.0,0.0,0.0,0.0,0.0,0.0,0.0,0.0,0.0,0.0,0.0,0.0,0.0,0.0,0.0,0.0,0.0,0.0,0.0,0.0,0.0,0.0,0.0,0.0,0.0,0.0,0.0,0.0,1.7856,1.7876,1.8069,1.8069,1.7983,1.7695,1.6921,1.6851,1.7139,0.0,0.0,0.0,0.0,0.0,0.0,0.0,0.0,0.0,0.0,0.0,0.0,0.0,0.0,0.0,0.0,0.0,0.0,0.0,0.0,1.8586,1.9797,2.037,2.1053,2.215,2.2281,2.2361,2.2517,2.2517,0.0,0.0,2.279,2.2838,2.3013,2.2646,2.2432,2.2432,2.275,2.3164,2.3535,2.3535,2.3193,2.2472,2.1739,2.1342,2.1286,0.0,0.0,0.0,0.0,0.0,0.0,0.0,0.0,0.0,0.0,0.0,0.0,0.0,0.0,0.0,0.0,0.0,0.0,0.0,0.0,0.0,0.0,0.0,0.0,0.0,0.0,0.0,0.0,0.0,0.0,0.0,0.0,0.0,0.0,0.0,0.0,0.0,0.0,0.0,0.0,0.0,2.0554,2.0308,0.0,0.0,0.0,0.0,0.0,0.0,0.0,0.0,0.0,0.0,0.0,0.0,0.0,1.8095,1.837,1.8337,1.835,1.843,1.839,1.839,1.843,1.843,1.841,1.835,1.7976,0.0,1.7172,1.674,0.0,0.0,0.0,0.0,0.0,0.0,0.0,0.0,0.0,0.0,0.0,0.0,0.0,0.0,0.0,0.0,0.0,0.0,0.0,0.0,0.0,2.0653,2.1438,2.2151,2.2889,2.3084,2.2605,2.2792,2.2843,2.2823,2.2803,2.2882,2.3091,2.2916,2.3096,2.3584,2.4222,2.457,2.4512,2.4512,2.4277,2.3867,2.373,2.3135,2.2178,2.164,0.0,0.0,0.0,0.0,0.0,0.0,0.0,0.0,0.0,0.0,0.0,0.0,0.0,0.0,0.0,0.0,0.0,0.0,0.0,0.0,0.0,0.0,0.0,0.0,0.0,0.0,0.0,0.0,0.0,0.0,0.0,0.0,0.0,0.0,0.0,0.0,0.0,0.0,0.0,2.1726,2.1873,2.0043,2.0378,2.0279,0.0,0.0,0.0,0.0,0.0,0.0,0.0,0.0,0.0,1.8502,1.8352,1.8357,1.849,1.849,1.8577,1.8731,1.8731,1.8731,1.8731,1.8731,1.8644,1.8484,1.835,1.8043,1.7602,1.7192,1.678,1.6473,0.0,0.0,0.0,0.0,0.0,1.5872,0.0,0.0,0.0,0.0,0.0,0.0,0.0,0.0,0.0,0.0,0.0,0.0,1.9948,2.1119,2.1961,2.2254,2.3253,2.3515,2.2667,2.276,2.2785,2.2656,2.2627,2.2706,2.2925,2.3227,2.3855,2.4922,2.5421,2.5625,2.5448,2.5293,2.5068,2.4766,2.5098,2.4404,2.2949,2.2407,2.168,2.0879,0.0,0.0,0.0,0.0,0.0,0.0,0.0,0.0,0.0,0.0,0.0,0.0,0.0,0.0,0.0,0.0,0.0,0.0,0.0,0.0,0.0,0.0,0.0,0.0,0.0,0.0,0.0,0.0,0.0,0.0,0.0,0.0,0.0,0.0,0.0,0.0,0.0,2.3211,2.3286,2.1004,2.1896,2.2094,0.0,0.0,0.0,0.0,0.0,0.0,1.999,1.9747,1.95,1.9257,1.904,1.9025,1.9106,1.9025,1.9043,1.9259,1.9259,1.9203,1.9146,1.9146,1.8975,1.8711,1.8637,1.8464,1.8203,1.7615,1.7201,1.6901,1.6663,1.6359,1.6186,1.6326,1.6482,1.6569,0.0,0.0,0.0,0.0,0.0,0.0,0.0,0.0,0.0,0.0,0.0,1.9586,2.036,2.1566,2.2254,2.2282,2.2702,2.2767,2.2355,2.1997,2.1876,2.2097,2.2141,2.223,2.2432,2.3491,2.4801,2.6289,2.5918,2.5937,2.6309,2.5898,2.5645,2.5625,2.5645,2.5138,2.4287,2.4063,2.3222,2.1966,2.1593,0.0,0.0,0.0,0.0,0.0,0.0,0.0,0.0,0.0,0.0,0.0,0.0,0.0,0.0,0.0,0.0,0.0,0.0,0.0,0.0,0.0,0.0,0.0,0.0,0.0,0.0,0.0,0.0,0.0,0.0,0.0,0.0,0.0,0.0,0.0,0.0,0.0,0.0,2.4554,2.4342,0.0,0.0,0.0,0.0,2.3561,2.3324,2.2687,2.1549,2.1525,2.113,2.0272,2.0228,2.0368,2.0662,2.0375,2.0235,2.0249,2.0249,2.0076,1.973,1.973,1.9615,1.937,1.9025,1.8891,1.8831,1.8189,1.7816,1.7508,1.7266,1.7146,1.7099,1.678,1.686,1.7119,0.0,0.0,0.0,0.0,0.0,1.288,1.4537,1.5257,1.6253,1.8086,1.9134,2.0008,2.0805,2.175,2.2391,2.2657,2.305,2.2995,2.2318,2.219,2.2097,2.2115,2.2097,2.2518,2.3455,2.425,2.5322,2.6797,2.6701,2.6701,2.6787,2.6357,2.6006,2.5713,2.6318,2.624,2.5635,2.5006,2.4037,2.2916,2.2621,2.1744,0.0,0.0,0.0,0.0,0.0,0.0,0.0,0.0,0.0,0.0,0.0,0.0,0.0,0.0,0.0,0.0,0.0,0.0,0.0,0.0,0.0,0.0,0.0,0.0,0.0,0.0,0.0,0.0,0.0,0.0,0.0,0.0,0.0,0.0,0.0,0.0,0.0,2.4721,2.5541,0.0,2.4067,2.4352,2.4576,2.4531,2.4691,2.471,2.4442,2.3494,2.2755,2.2419,2.1442,2.0823,2.0798,2.0686,2.0531,2.027,2.027,2.022,2.0097,2.0097,2.0046,1.9982,1.9871,1.9606,1.9174,1.876,1.8313,1.7849,1.7549,1.7481,1.7415,1.7308,1.7335,1.7467,0.0,0.0,0.0,0.0,1.2111,1.2982,1.5095,1.5629,1.6608,1.8792,1.9714,2.0387,2.1227,2.2117,2.2803,2.3078,2.3343,2.3206,2.2538,2.2236,2.2052,2.1972,2.2232,2.299,2.4231,2.4883,2.5866,2.7286,2.711,2.7017,2.7002,2.6435,2.6016,2.5713,2.6484,2.6728,2.6562,2.5977,2.5065,2.3954,2.359,2.2783,2.1793,0.0,0.0,0.0,0.0,0.0,0.0,0.0,0.0,0.0,0.0,0.0,0.0,0.0,0.0,0.0,0.0,0.0,0.0,0.0,0.0,0.0,0.0,0.0,0.0,0.0,0.0,0.0,0.0,0.0,0.0,0.0,0.0,0.0,0.0,0.0,2.7377,2.5909,2.7104,2.7511,2.6055,2.6354,2.6589,2.6487,2.6787,2.6879,2.6615,2.5694,2.5,2.4596,2.3536,2.29,2.274,2.2462,2.2062,2.1385,2.1283,2.0945,2.0436,2.0436,2.0385,2.027,2.027,2.0044,1.9658,1.925,1.8851,1.8421,1.7849,1.7582,1.7582,1.7582,1.7582,1.7582,0.0,0.0,0.0,1.1906,1.2111,1.3089,1.5394,1.5773,1.6782,1.9476,2.0232,2.079,2.1623,2.2757,2.3471,2.3499,2.3471,2.3297,2.2913,2.2135,2.1696,2.1705,2.2492,2.3441,2.4606,2.5377,2.6503,2.7906,2.7026,2.6715,2.697,2.6113,2.5703,2.5732,2.6201,2.6621,2.6992,2.6992,2.6269,2.5077,2.4408,2.4018,2.3767,0.0,0.0,0.0,0.0,0.0,0.0,0.0,0.0,0.0,0.0,0.0,0.0,0.0,0.0,0.0,0.0,0.0,0.0,0.0,0.0,0.0,0.0,0.0,0.0,0.0,0.0,0.0,0.0,0.0,0.0,0.0,0.0,0.0,2.7002,2.7773,2.831,2.834,2.9082,2.9424,2.9004,2.9355,2.96,2.959,2.96,2.9151,2.7936,2.8198,2.7759,2.6583,2.6524,2.6524,2.6507,2.5786,2.4832,2.3598,2.3262,2.2256,2.0773,2.0831,2.0658,2.0385,2.0385,2.0385,2.0286,1.9661,1.9408,1.929,1.8082,1.7635,1.7635,1.7635,1.7635,1.7582,0.0,0.0,1.1906,1.1906,1.2111,1.2872,1.4604,1.5389,1.6548,1.8689,1.9847,2.0943,2.1998,2.2419,2.2849,2.3444,2.2959,2.2565,2.2455,2.197,2.1824,2.2099,2.2895,2.3855,2.5017,2.5363,2.6188,2.7539,2.7007,2.6898,2.713,2.6501,2.6211,2.6211,2.6338,2.6455,2.6562,2.6562,2.6357,2.6026,2.5688,2.4911,2.4038,0.0,0.0,0.0,0.0,0.0,0.0,0.0,0.0,0.0,0.0,0.0,0.0,0.0,0.0,0.0,0.0,0.0,0.0,0.0,0.0,0.0,0.0,0.0,0.0,0.0,0.0,0.0,0.0,0.0,0.0,0.0,0.0,2.7812,2.793,2.8144,2.8633,2.956,2.9883,2.998,2.9853,3.0264,3.0391,3.0049,3.0342,3.0412,3.0055,2.9189,2.8578,2.8282,2.733,2.673,2.6507,2.6301,2.5335,2.3598,2.4366,2.3901,2.241,2.3231,2.3119,2.2248,2.2248,2.1623,2.0558,1.9932,1.9566,1.929,1.8508,1.8062,1.7911,1.7911,1.7747,1.7582,0.0,1.0912,1.1946,1.2067,1.2191,1.2798,1.4256,1.4933,1.6126,1.8523,1.9516,2.0539,2.2144,2.2126,2.2291,2.2931,2.24,2.2034,2.2034,2.2135,2.2373,2.2776,2.3785,2.4629,2.5252,2.5687,2.6319,2.7206,2.6811,2.6763,2.6998,2.6362,2.6068,2.6168,2.5993,2.6112,2.6377,2.6191,2.6221,2.6348,2.6045,2.5549,2.4941,2.4834,2.5112,2.5469,2.503,2.5068,2.5167,2.4756,0.0,0.0,0.0,0.0,0.0,0.0,0.0,0.0,0.0,0.0,0.0,0.0,0.0,0.0,0.0,0.0,0.0,0.0,0.0,0.0,0.0,0.0,0.0,0.0,2.7812,2.8476,2.9014,2.9092,2.9365,3.0107,3.0371,3.0488,3.0488,3.0732,3.0781,3.0508,3.0742,3.0889,3.0889,3.0147,2.9717,2.9717,2.9007,2.8532,2.8364,2.8173,2.712,2.5369,2.5905,2.5289,2.3743,2.4394,2.4339,0.0,2.3687,2.291,2.1635,2.111,2.0442,0.0,0.0,0.0,0.0,0.0,1.7905,1.7747,0.0,1.0781,1.2033,1.2258,1.2305,1.276,1.4147,1.4435,1.561,1.8633,1.9136,2.0,2.2053,2.1925,2.1851,2.2245,2.1961,2.1797,2.1888,2.2611,2.3224,2.3618,2.4812,2.5488,2.5488,2.6188,2.6745,2.6935,2.6635,2.6564,2.682,2.6017,2.579,2.6023,2.561,2.5847,2.6435,2.5996,2.6074,2.6357,2.5967,2.5869,2.6003,2.5569,2.6154,2.707,2.6225,2.6115,2.6237,2.5851,0.0,0.0,0.0,0.0,0.0,0.0,0.0,0.0,0.0,0.0,0.0,0.0,0.0,0.0,0.0,0.0,0.0,0.0,0.0,0.0,0.0,0.0,0.0,0.0,2.8447,2.8906,3.0039,3.0244,3.0273,3.0273,3.0644,3.0889,3.0889,3.0889,3.0908,3.0957,3.0957,3.0957,3.0957,0.0,0.0,0.0,0.0,3.0889,3.0889,3.0478,2.9451,2.7776,2.7595,2.6561,2.4893,2.5058,2.5003,2.4893,2.4893,2.4236,2.3175,2.2814,2.1791,2.0222,1.8971,1.8482,1.8422,1.8174,1.8069,0.0,0.0,1.0991,1.2238,1.2291,1.2305,1.2543,1.3348,1.4052,1.537,1.7822,1.8741,2.0,2.2053,2.1925,2.1851,2.2245,2.2208,2.2446,2.3105,2.3648,2.4106,2.4528,2.5433,2.5901,2.5901,2.6334,2.6646,2.6691,2.6816,2.6922,2.6976,2.6701,2.6665,2.6949,2.6535,2.6553,2.6894,2.6807,2.6621,2.6387,2.6299,2.6055,2.5771,2.5683,2.5933,2.6325,2.6144,2.6236,2.6472,2.6333,2.5975,2.5532,2.5532,2.5098,0.0,0.0,0.0,0.0,0.0,0.0,0.0,0.0,0.0,0.0,0.0,0.0,0.0,0.0,0.0,0.0,0.0,0.0,0.0,2.8701,2.9375,2.9912,3.0166,3.0518,3.0752,3.0752,3.084,3.0889,3.0889,3.0889,3.1035,3.1367,3.1396,3.1396,3.1396,3.1396,0.0,3.0898,3.0889,3.0889,3.0889,3.0801,2.9767,2.7833,0.0,0.0,2.6191,2.7178,2.707,2.6127,2.6127,2.5461,2.4369,2.406,2.2868,2.1096,1.9418,1.8817,1.8757,1.8429,1.8318,1.8318,0.9701,1.112,1.2351,1.2536,1.2563,1.2732,1.3293,1.3775,1.4744,1.671,1.7455,1.8376,1.9915,2.0263,2.0421,2.0455,2.1219,2.219,2.3416,2.4125,2.479,2.5396,2.6002,2.627,2.627,2.6481,2.6591,2.6591,2.6736,2.6791,2.6781,2.6526,2.6542,2.6778,2.6517,2.6541,2.6807,2.6961,2.6768,2.6387,2.6387,2.6133,2.5693,2.5693,2.61,2.6638,2.6638,2.7173,2.7741,2.7231,2.6991,2.6806,2.6297,2.5852,2.549,0.0,0.0,0.0,0.0,0.0,0.0,0.0,0.0,0.0,0.0,0.0,0.0,0.0,0.0,2.7861,2.8496,0.0,2.8818,2.9453,2.9922,3.0273,3.0508,3.0742,3.0889,3.0889,3.0889,3.0889,3.0889,3.1074,3.1289,3.1504,3.1719,3.1846,3.1846,3.1641,3.1426,3.1211,3.0996,3.0889,3.0889,3.0889,3.0151,2.8709,2.9337,2.8836,2.7413,2.8014,2.796,2.7413,2.7413,2.6735,2.5518,2.4397,2.34,2.2435,2.1187,2.0034,1.9071,1.875,1.8646,1.8646,0.9916,1.129,1.2465,1.2744,1.2837,1.3058,1.352,1.36,1.4172,1.5782,1.622,1.68,1.7842,1.8556,1.8947,1.893,2.0399,2.2043,2.3627,2.4482,2.5304,2.6104,2.6408,2.6591,2.6591,2.6591,2.6591,2.6591,2.6591,2.6591,2.6582,2.6296,2.6238,2.6495,2.6413,2.6522,2.6895,2.7101,2.6922,2.6514,2.6514,2.6201,2.5693,2.5693,2.6187,2.6914,2.7142,2.7709,2.8341,2.7731,2.7552,2.7431,2.6592,2.6352,2.6282,2.6178,2.6114,0.0,0.0,0.0,0.0,0.0,0.0,0.0,0.0,2.7383,2.7627,2.8486,2.8398,2.8398,2.916,2.9307,2.9551,3.0332,3.0449,3.0586,3.0957,3.0947,3.0889,3.0889,3.0889,3.0889,3.0889,3.1269,3.1553,3.1641,3.2051,3.2285,3.2285,3.1875,3.1601,3.1514,3.1103,3.0889,3.0889,3.0889,3.0488,2.9744,2.9665,2.916,2.8408,2.833,2.8291,2.8291,2.8291,2.7745,2.668,2.473,2.393,2.3852,2.2885,2.1438,1.9879,1.9428,1.9175,1.8921,0.0,1.1603,1.2744,1.2777,1.3012,1.3267,1.3553,1.36,1.4172,1.5782,1.622,1.6883,1.8124,1.8342,1.8901,2.0097,2.1382,2.2887,2.4537,2.506,2.5665,2.6481,2.6564,2.6591,2.6591,2.6591,2.6591,2.6591,2.6591,2.6591,2.6591,2.6536,2.6672,2.6915,2.6931,2.7226,2.7762,2.7771,2.7466,2.6943,2.6943,2.6455,2.5693,2.5693,2.5781,2.5955,2.6877,2.6744,2.6197,2.6962,2.6648,2.5927,2.583,2.5781,2.5771,2.5781,2.5761,2.5761,2.5809,2.5761,2.5957,2.672,2.6671,2.6838,0.0,2.8711,2.8945,2.9805,2.9951,3.0068,3.0576,3.0674,3.083,3.1289,3.1367,3.1387,3.1435,3.1123,3.0889,3.0889,3.0889,3.0889,3.0889,3.1269,3.168,3.207,3.249,3.2725,3.2725,3.2324,3.1924,3.1533,3.1103,3.0889,3.0889,3.0889,3.0635,3.0127,2.9746,2.9316,2.8838,2.8467,2.8291,2.8291,2.8291,2.8237,2.7956,2.598,2.5222,2.5027,2.3199,2.2333,2.2038,2.1038,2.0078,1.9279,0.0,1.1909,1.3267,1.3267,1.338,1.352,1.3854,1.3901,1.4114,1.4817,1.5109,1.5521,1.6045,1.6706,1.766,1.9003,2.058,2.2064,2.3506,2.4696,2.5738,2.6554,2.6591,2.6591,2.6591,2.6591,2.6591,2.6591,2.6591,2.6591,2.6591,2.6591,2.6636,2.6791,2.6935,2.7206,2.7638,2.7799,2.753,2.7012,2.7012,2.6504,2.5693,2.5693,2.5528,2.5429,2.6098,2.6418,0.0,2.637,2.6418,2.6456,2.5868,2.5884,2.6087,2.5983,2.6104,2.6286,2.6031,2.6094,2.632,2.6603,2.6894,2.7383,2.834,2.8555,2.8867,2.9971,3.0,3.0049,3.0762,3.1094,3.1309,3.1484,3.1514,3.1514,3.1514,3.1152,3.0889,3.0889,3.0889,3.0889,3.0889,3.1269,3.1699,3.2129,3.2559,3.29,3.3144,3.2529,3.209,3.1904,3.124,3.0889,3.0889,3.0889,3.0654,3.0195,2.9766,2.9336,2.8906,2.8486,2.8291,2.8291,2.8291,2.8291,2.8223,2.6887,2.6326,2.6189,2.4886,2.3998,2.3244,2.154,2.0637,2.013,0.0,1.172,1.3201,1.3315,1.3555,1.3841,1.4055,1.4088,1.4088,1.4088,1.4342,1.4549,1.4636,1.5683,1.6803,1.7762,1.9423,2.0878,2.1996,2.3486,2.4695,2.5429,2.5465,2.5682,2.6081,2.6081,2.6254,2.6591,2.6591,2.6418,2.6081,2.6081,2.5907,2.5624,2.6163,2.6545,2.6799,2.7299,2.7266,2.69,2.6783,2.6297,2.5693,2.5693,2.5459,2.5155,2.5755,2.6237,2.652,2.5964,2.6217,2.6597,2.5631,2.5732,2.6155,2.5901,2.6144,2.6462,2.6257,2.6419,2.6685,2.6867,2.7346,2.7803,2.834,2.8467,2.873,2.9648,2.9785,2.9941,3.0576,3.125,3.1699,3.1699,3.1797,3.1836,3.1709,3.1328,3.1025,3.0898,3.0889,3.0889,3.0889,3.1269,3.165,3.1963,3.249,3.2871,3.3066,3.25,3.2119,3.1992,3.1279,3.0889,3.0889,3.0889,3.0654,3.0195,2.9766,2.9336,2.8906,2.8486,2.8291,2.8291,2.8291,2.8291,2.8232,2.75,2.7119,2.6943,2.6201,2.5331,2.4304,2.2433,2.1387,2.0783,0.0,0.0,1.2199,1.2644,1.347,1.4075,1.4088,1.4088,1.4088,1.4088,1.4342,1.4629,1.4961,1.6,1.6768,1.6911,1.8342,1.9606,2.0428,2.1174,2.194,2.2599,2.2631,2.3343,2.4825,2.4842,2.5459,2.6591,2.6591,2.6026,2.4842,2.4842,2.4214,2.3151,2.4326,2.5046,2.5325,2.6133,2.6527,2.6554,2.621,2.5885,2.5693,2.5693,2.5459,2.521,2.6222,2.5953,2.5255,2.5711,2.5845,2.5586,2.4727,2.5039,2.5635,2.5262,2.5439,2.581,2.625,2.6377,2.668,2.793,2.7949,2.7933,2.8711,2.8896,2.8916,2.8945,2.9609,3.0185,3.0215,3.1279,3.2148,3.2148,3.249,3.2607,3.2207,3.1777,3.1348,3.0947,3.0889,3.0889,0.0,3.1269,3.1523,3.1533,3.2324,3.2627,3.2287,3.2178,3.1973,3.1553,3.1123,3.0889,3.0889,3.0889,3.0654,3.0195,2.9766,2.9336,2.8906,2.8486,2.8291,2.8291,2.8291,2.8291,2.8262,2.7822,2.7402,2.6973,2.6533,2.6064,2.5528,2.4402,2.2693,2.0885,0.0,0.0,0.0,1.2817,1.3225,1.3665,1.4283,1.4208,1.4155,1.4349,1.4796,0.0,0.0,0.0,0.0,0.0,1.7498,1.8641,1.9406,2.0527,2.1466,2.2185,2.2217,2.2548,2.3288,2.3288,2.3577,2.4214,2.4214,2.3991,2.36,2.36,2.3376,2.303,2.3424,2.3675,2.3804,2.4788,2.5208,2.5228,2.5566,2.5781,2.5817,2.5546,2.5082,2.4675,0.0,2.4908,2.4656,2.4822,2.4878,2.4863,2.4853,2.5766,2.6925,2.7701,2.7123,2.634,2.7159,2.7342,2.7395,2.7764,2.7978,2.8154,2.8437,2.8506,2.8584,2.8857,2.9141,2.9521,3.0088,3.081,3.1504,3.2141,3.2285,3.2324,3.2248,3.2041,3.168,3.0976,3.1133,0.0,0.0,0.0,0.0,3.1494,3.1787,3.2012,3.2158,3.1894,3.167,3.1523,3.1103,3.0889,3.0889,3.0889,3.0654,3.0185,2.9482,2.8916,2.8496,2.8359,2.8291,2.8291,2.8291,2.8291,2.8262,2.7894,2.7412,2.6973,2.6553,2.6123,2.5635,2.5274,2.4254,2.2835,0.0,0.0,0.0,0.0,0.0,0.0,0.0,0.0,0.0,0.0,0.0,0.0,0.0,0.0,0.0,0.0,0.0,1.7539,1.7989,1.9014,1.9917,2.0468,2.0566,2.0947,2.1713,2.172,2.2049,2.2664,2.2664,2.2442,2.2054,2.2054,2.1831,2.1391,2.1831,2.2032,2.2072,2.3087,2.3534,2.3644,2.4352,2.4761,2.4974,2.5233,2.4948,0.0,2.4602,2.4551,2.4365,2.4062,2.4268,2.4639,2.4619,2.5487,2.6843,2.8401,2.7677,2.6595,2.7592,2.779,2.7748,2.7851,2.8096,2.8291,2.8291,2.8291,2.8369,2.8643,2.8818,2.9092,2.9639,3.0371,3.1123,3.1826,3.2197,3.2393,3.2393,3.2266,3.1904,3.1201,3.1348,3.1348,0.0,0.0,0.0,3.1289,3.1435,3.1572,3.1709,3.1592,3.1445,3.1299,3.1035,3.0889,3.0889,3.0889,3.0576,2.9961,2.9101,2.8555,2.8291,2.8291,2.8291,2.8291,2.8291,2.8291,2.8271,2.7998,2.7539,2.6982,2.6719,2.625,2.5693,2.5693,2.5274,2.4402,0.0,0.0,0.0,0.0,0.0,0.0,0.0,0.0,0.0,0.0,0.0,0.0,0.0,0.0,0.0,0.0,0.0,0.0,1.6321,1.6844,1.7293,1.7549,1.7842,1.8679,2.0132,2.0194,2.0738,2.1934,2.1934,2.1349,2.0216,2.0216,1.9621,1.8546,1.9676,2.0208,2.0226,2.106,2.155,2.1823,2.2536,2.3003,2.347,2.4726,2.4976,2.4765,2.4974,2.4785,2.4251,2.3432,2.4033,2.4969,2.4202,2.4489,2.5531,2.7424,2.7289,2.6681,2.7545,2.7728,2.7845,2.8193,2.8291,2.8281,2.8262,2.8262,2.8262,2.8262,2.8574,2.8867,2.8916,2.9961,3.0976,3.1445,3.2217,3.2773,3.2793,3.2471,3.206,3.1601,3.1572,3.1416,3.0996,3.1318,0.0,3.0986,0.0,3.1309,3.0918,3.1269,3.1299,3.0898,3.0889,3.0889,3.0889,3.085,3.04,2.9616,2.8701,2.8291,2.8291,2.8291,2.8291,2.8291,2.8291,2.8291,2.8291,2.8291,2.7793,2.7012,2.7012,2.6494,2.5693,2.5693,2.5693,2.5528,0.0,0.0,0.0,0.0,0.0,0.0,0.0,0.0,0.0,0.0,0.0,0.0,0.0,0.0,0.0,0.0,0.0,0.0,1.6259,1.6462,1.6777,1.7286,1.7387,1.778,1.8571,1.8584,1.8857,1.9408,1.9408,1.9243,1.8981,1.8981,1.8816,1.849,1.8816,1.8796,1.8686,1.9701,2.0234,2.04,2.1115,2.2206,2.3456,2.3718,2.4161,2.4765,2.4974,2.4785,2.4385,2.4124,2.4531,2.5171,2.5716,2.5989,2.6428,2.8363,2.8191,2.7589,2.849,2.8438,2.8154,2.8262,2.8291,2.8213,2.79,2.7822,2.7822,2.7822,2.791,2.8174,2.8809,2.9463,3.0264,3.1338,3.1973,3.2441,3.2754,3.2969,3.2832,3.209,3.2275,3.2305,3.1885,3.1943,0.0,0.0,3.1357,3.1006,3.0898,3.0996,3.0996,3.0898,3.0889,3.0889,3.0889,3.0234,2.9795,2.9616,2.8701,2.8291,2.8291,2.8291,2.8291,2.8291,2.8291,2.8291,2.8291,2.8291,2.7793,2.7012,2.7012,2.6494,2.5693,2.5693,2.5693,2.5635,0.0,0.0,0.0,0.0,0.0,0.0,0.0,0.0,0.0,0.0,0.0,0.0,0.0,0.0,0.0,0.0,0.0,0.0,0.0,1.6587,1.6857,1.7186,1.7326,1.7502,1.7836,1.7842,1.7923,1.809,1.809,1.809,1.809,1.809,1.809,1.809,1.809,1.7996,1.7896,1.8515,1.8819,0.0,0.0,2.1048,2.2383,2.2922,2.3821,2.4842,2.5073,2.51,2.4953,2.4953,2.5156,2.5582,2.6802,2.6927,2.6991,2.8729,2.8512,2.7852,2.8543,2.8519,2.8291,2.8291,2.8291,2.8184,2.7816,2.7718,2.7813,2.8313,2.8011,2.8019,2.914,2.947,2.9941,3.1064,3.1768,3.2383,3.2978,3.3115,3.2969,3.25,3.2656,3.2627,3.2268,3.2334,3.2363,0.0,3.1719,3.1367,3.1172,3.1162,3.1074,3.0898,3.0889,3.0791,3.0586,2.9912,2.9473,2.9277,2.8613,2.8291,2.8291,2.8291,2.8291,2.8291,0.0,2.8291,2.8291,2.8291,2.7793,2.7012,2.7012,2.6494,2.5693,2.5693,2.5693,2.5693,0.0,0.0,0.0,0.0,0.0,0.0,0.0,0.0,0.0,0.0,0.0,0.0,0.0,0.0,0.0,0.0,0.0,0.0,0.0,0.0,1.7159,1.7199,1.744,1.7542,1.7582,1.7582,1.7582,1.7582,1.7582,1.7582,1.7582,1.7582,1.7582,1.7582,1.7582,1.7582,1.7582,1.7582,1.7582,1.7687,1.861,1.9694,2.0826,0.0,0.0,2.4677,2.5137,2.5489,2.5693,2.5693,2.5732,2.6035,2.7323,2.7402,2.7322,2.8543,2.8394,2.7885,2.8193,2.8291,2.8291,2.8291,2.8252,2.8096,2.7676,2.7591,2.7801,2.8737,2.8337,2.8217,2.9402,2.9691,2.999,3.0712,3.1475,3.2295,3.3135,3.2988,3.2793,3.2793,3.2842,3.2734,3.2363,3.2666,3.2725,3.2363,3.2285,3.2031,3.1543,3.1465,3.1269,3.0898,3.0889,3.0664,3.0205,2.9785,2.9346,2.8916,2.8496,2.8291,2.8291,2.8291,2.8291,2.8291,0.0,0.0,2.8291,2.8291,2.7793,2.7012,2.7012,2.6494,2.5693,2.5693,2.5693,2.5693,0.0,0.0,0.0,0.0,0.0,0.0,0.0,0.0,0.0,0.0,1.6012,1.6306,0.0,0.0,0.0,0.0,0.0,0.0,0.0,0.0,0.0,1.7192,1.7246,1.7387,1.7582,1.7582,1.7582,1.7582,1.7582,1.7582,1.7582,1.7582,1.7582,1.7582,1.7582,1.7582,1.7582,1.7582,1.7582,1.7635,1.7786,1.8513,1.9642,2.1022,0.0,0.0,2.4824,2.5489,2.5693,2.5693,2.5977,2.6339,2.6606,2.7066,2.762,2.7887,2.8058,2.8203,2.8271,2.8291,2.8291,2.8291,2.8027,2.7666,2.7226,2.6855,2.6662,2.6852,2.7703,2.8391,2.8145,2.9346,3.0387,3.0347,3.0762,3.1416,3.2266,3.2627,3.2793,3.2793,3.3105,3.3281,3.3213,3.3271,0.0,0.0,0.0,3.2344,3.1562,3.1182,3.0967,3.0889,3.0889,3.0664,3.0205,2.9785,2.9346,2.8916,2.8496,2.8291,2.8291,2.8291,2.8291,2.8291,0.0,0.0,2.8291,2.8291,2.7793,2.7012,2.7012,2.6494,2.5693,2.5693,2.5693,2.5693,0.0,0.0,0.0,0.0,0.0,0.0,0.0,1.4562,1.6172,1.6473,1.669,1.6837,1.6971,1.6934,1.6994,0.0,0.0,0.0,0.0,0.0,0.0,0.0,1.7427,1.7494,1.7582,1.7582,1.7582,1.7582,0.0,1.7582,1.7582,1.7582,1.7582,1.7582,1.7582,1.7582,1.7582,1.7582,1.7582,1.7582,1.7582,1.8251,0.0,0.0,0.0,0.0,2.4716,2.5382,2.5489,2.5635,2.6025,2.6387,2.6387,2.6973,2.7718,2.7718,2.7959,2.8291,2.8291,2.8291,2.8291,2.8291,2.7978,2.7559,2.7119,2.6689,2.6576,2.7101,2.7361,2.7663,2.8389,2.8991,2.9509,2.9839,3.0244,3.083,3.1709,3.2002,3.2295,3.2744,3.2969,3.3184,3.3398,3.3223,3.3096,3.3096,0.0,3.2051,3.1865,3.124,3.0889,3.0889,3.0654,3.0322,2.9873,2.9443,2.9014,2.8594,2.8389,2.8291,2.8291,2.8291,2.8291,2.8291,2.8291,0.0,2.8291,2.8291,2.7793,2.7012,2.7012,2.6494,2.5693,2.5693,2.5693,2.5693,0.0,0.0,0.0,0.0,0.0,0.0,0.0,1.4641,1.6249,1.6767,1.7098,1.7293,1.7293,1.7293,1.7387,0.0,0.0,0.0,0.0,0.0,0.0,0.0,0.0,1.7582,1.7582,0.0,0.0,1.7582,1.7582,0.0,0.0,0.0,0.0,0.0,1.7582,1.7582,1.7582,1.7582,1.7582,0.0,0.0,1.8094,0.0,0.0,0.0,0.0,0.0,2.5186,2.5333,2.5538,2.5918,2.625,2.625,2.6836,2.7549,2.7689,2.79,2.8174,2.8271,2.8291,2.8291,2.8291,2.791,2.7432,2.709,2.6621,2.6488,2.7331,2.708,2.7152,2.8564,2.8627,2.8749,2.9342,2.9785,3.0332,3.1123,3.1396,3.1768,3.2441,3.2607,3.2793,3.3115,3.2851,0.0,3.2656,0.0,0.0,3.1885,3.126,3.0889,3.0889,3.0439,3.0,2.957,2.9141,2.8711,2.8291,2.8291,2.8291,2.8291,2.8291,2.8291,2.8291,2.8291,0.0,0.0,2.8291,2.7793,2.7012,2.7012,2.6494,2.5693,2.5693,2.5693,2.5693,0.0,0.0,0.0,0.0,0.0,0.0,0.0,1.3629,1.5352,1.553,1.6736,1.7542,1.7542,1.7542,1.7555,0.0,0.0,0.0,0.0,0.0,0.0,0.0,0.0,0.0,0.0,0.0,0.0,1.7582,1.7582,0.0,0.0,0.0,0.0,0.0,0.0,1.7582,1.7582,1.7582,0.0,0.0,0.0,0.0,0.0,0.0,0.0,0.0,0.0,2.4883,2.5284,2.5342,2.5518,2.5742,2.5742,2.6387,2.7148,2.7549,2.7748,2.7803,2.8193,2.8291,2.8291,2.8291,2.7676,2.706,2.7021,2.6387,2.5791,2.5888,2.6956,2.7725,2.7278,2.8319,2.9155,2.9001,2.9346,2.9785,3.0254,3.1016,3.1543,3.1631,3.1982,3.2246,3.2285,3.2307,3.2287,3.2287,0.0,0.0,3.1025,3.0928,3.0889,3.0889,3.0439,3.0,2.957,2.9141,2.8711,2.8291,2.8291,2.8291,2.8291,2.8291,2.8291,2.8291,0.0,0.0,0.0,2.8291,2.7793,2.7012,2.7012,2.6494,2.5693,2.5693,2.5693,2.5693,0.0,0.0,0.0,0.0,0.0,0.0,1.1647,1.2994,1.4129,1.4562,1.5071,1.5423,1.5464,1.6127,1.6829,1.7529,0.0,0.0,0.0,0.0,0.0,0.0,0.0,0.0,0.0,0.0,1.7675,1.7862,1.7675,0.0,0.0,0.0,0.0,0.0,0.0,1.7582,1.7582,1.7582,0.0,0.0,0.0,0.0,0.0,0.0,0.0,0.0,0.0,0.0,2.5088,2.5235,2.5489,2.5693,2.5693,2.5918,2.6328,2.6768,2.7307,2.7748,2.7924,2.8096,2.8291,2.8291,2.7646,2.7012,2.7012,2.6357,2.5693,2.5693,2.6201,2.6595,2.6653,2.7329,2.7958,2.8172,2.8525,2.8945,2.9365,2.9726,3.0244,3.1045,3.1299,3.1601,3.218,0.0,3.167,0.0,0.0,0.0,3.0898,3.0889,3.0889,3.0889,3.0195,2.9736,2.9626,2.8887,2.8457,2.8291,2.8291,2.8291,2.8291,2.8291,2.8291,2.8291,0.0,0.0,0.0,2.8291,2.7793,2.7012,2.7012,2.6494,2.5693,2.5693,2.5693,2.5693,0.0,0.0,0.0,0.0,0.0,1.0815,1.1162,1.2152,1.2986,1.3481,1.3795,1.4013,1.4062,1.5156,1.6234,1.7041,1.7424,0.0,0.0,0.0,0.0,0.0,0.0,0.0,0.0,0.0,1.7736,1.7995,1.7829,1.7829,0.0,0.0,1.7669,1.7582,0.0,0.0,0.0,0.0,0.0,0.0,0.0,0.0,0.0,0.0,0.0,0.0,0.0,0.0,0.0,0.0,0.0,2.5693,2.5693,2.5693,2.5771,2.626,2.6816,2.7314,2.7441,2.7685,2.792,2.792,2.7363,2.6826,2.6826,2.626,2.5693,2.5693,2.5917,2.6191,2.6348,2.6971,2.7599,2.8097,2.8327,2.8682,2.9302,2.9242,2.9453,3.0391,3.0498,3.0781,3.1514,3.1435,3.1211,0.0,0.0,0.0,0.0,3.0762,3.0684,3.0684,2.9961,2.9512,2.9375,2.8662,2.8291,2.8291,2.8291,2.8291,2.8291,2.8291,2.8291,2.8291,0.0,0.0,0.0,2.8154,2.7676,2.7002,2.6875,2.6387,2.5693,2.5693,2.5693,2.5693,0.0,0.0,0.0,0.0,0.0,0.0,0.9604,1.0936,1.1978,1.2202,1.3304,1.4078,1.4078,1.5156,1.5914,1.5914,1.6935,0.0,0.0,0.0,0.0,0.0,0.0,0.0,0.0,0.0,1.7736,1.7995,1.7989,1.7989,1.7995,1.7989,1.7822,1.7582,0.0,0.0,0.0,0.0,0.0,0.0,0.0,0.0,0.0,0.0,0.0,0.0,0.0,0.0,0.0,0.0,0.0,0.0,0.0,2.5693,2.5771,2.626,2.6396,2.6494,2.6904,2.7021,2.7021,2.7021,2.6709,2.6396,2.6396,2.6055,2.5693,2.5693,2.6504,2.701,2.6497,2.7552,2.8681,2.9187,2.9086,2.9288,3.0401,2.9993,2.9626,2.9636,2.9636,2.9756,3.0176,3.0635,3.0898,0.0,0.0,0.0,0.0,3.0459,3.0205,3.0205,2.9795,2.9365,2.8926,2.8506,2.8291,2.8291,2.8291,2.8291,2.8291,2.8291,2.8291,0.0,0.0,0.0,0.0,2.7894,2.7412,2.6973,2.6562,2.6133,2.5693,2.5693,2.5693,2.5693,0.0,0.0,0.0,0.0,0.0,0.0,0.0,1.0201,1.0643,1.092,1.1327,1.1626,1.1755,1.3491,1.4741,1.4963,1.6612,0.0,0.0,0.0,0.0,0.0,0.0,0.0,0.0,0.0,1.7836,1.835,1.8089,1.8195,1.8582,1.8175,1.7935,1.7889,1.7675,1.7582,0.0,0.0,0.0,0.0,0.0,0.0,0.0,0.0,0.0,0.0,0.0,0.0,0.0,0.0,0.0,0.0,0.0,0.0,0.0,2.5908,2.6162,2.6416,2.6553,2.6797,2.7012,2.7012,2.6699,2.6387,2.6387,2.6055,2.5693,2.5693,2.6504,2.7136,2.6965,2.8091,2.8991,2.8771,2.889,2.9023,2.9026,2.8873,2.8916,2.9558,3.0107,3.0527,0.0,0.0,0.0,0.0,0.0,0.0,0.0,3.0,2.9902,3.0185,2.9502,2.9062,2.8916,2.8506,2.8291,2.8291,2.8291,2.8291,2.8291,2.8291,0.0,0.0,0.0,0.0,0.0,2.7777,2.7236,2.6572,2.6435,2.6123,2.5693,2.5693,2.5693,2.5693,0.0,0.0,0.0,0.0,0.0,0.0,0.0,0.99,1.0071,1.0302,1.0448,1.057,1.068,1.2738,1.4229,1.4581,1.6547,0.0,0.0,0.0,0.0,0.0,0.0,0.0,1.7582,1.7695,1.7996,1.849,1.8417,1.8508,1.8911,1.8437,1.8102,1.7975,1.7722,1.7582,0.0,0.0,0.0,0.0,0.0,0.0,0.0,0.0,0.0,0.0,0.0,0.0,0.0,0.0,0.0,0.0,0.0,0.0,0.0,0.0,2.5937,2.6143,2.6143,2.6338,2.6533,2.6533,2.6338,2.6143,2.6143,2.5937,2.5693,2.5693,2.6781,2.7652,2.7274,2.866,2.976,2.9489,2.9586,2.9598,2.9289,2.9064,2.9009,2.9293,3.0098,0.0,0.0,0.0,0.0,0.0,0.0,0.0,0.0,2.956,2.9443,2.9707,2.9199,2.8848,2.8682,2.8428,2.8291,2.8291,2.8291,2.8291,2.8291,2.8291,0.0,0.0,0.0,0.0,0.0,2.7366,2.6875,2.6367,2.6211,2.5977,2.5693,2.5693,2.5693,2.5693,0.0,0.0,0.0,0.0,0.0,0.0,0.0,0.9941,1.0212,1.0212,1.0473,1.0747,1.0802,1.2792,1.4294,1.4713,0.0,0.0,0.0,0.0,0.0,0.0,0.0,0.0,1.7615,1.7849,1.8149,1.8524,1.8791,1.8931,1.8951,1.8637,1.8343,1.8009,1.7729,1.7582,0.0,0.0,0.0,0.0,0.0,0.0,0.0,0.0,0.0,0.0,0.0,0.0,0.0,0.0,0.0,0.0,0.0,0.0,0.0,0.0,0.0,0.0,0.0,2.5645,2.5693,2.5693,2.5693,2.5693,2.5693,2.5693,0.0,2.5693,2.7305,2.8412,2.7515,2.9272,3.0916,3.1008,3.0923,3.0821,3.0815,3.0303,2.9758,2.9124,2.9773,0.0,3.0309,0.0,0.0,0.0,0.0,0.0,0.0,2.9111,2.8877,2.8877,2.8877,2.8682,2.8301,2.8291,2.8291,2.8291,2.8291,2.8291,2.8291,2.8291,0.0,0.0,0.0,0.0,0.0,2.6709,2.6367,2.6299,2.5849,2.5693,2.5693,2.5693,2.5693,2.5693,0.0,0.0,0.0,0.0,0.0,0.0,0.0,0.0,0.0,0.0,1.0473,1.1017,1.1932,1.3275,1.469,0.0,0.0,0.0,0.0,0.0,0.0,0.0,0.0,0.0,1.7876,1.7955,1.8249,1.8824,1.8891,1.9038,1.9252,1.8731,1.8457,1.8364,1.7822,1.7582,0.0,0.0,0.0,0.0,0.0,0.0,0.0,0.0,0.0,0.0,1.9825,2.0722,0.0,0.0,0.0,0.0,0.0,0.0,0.0,0.0,2.5225,2.5156,2.4814,0.0,2.5693,2.5693,2.5693,2.5693,0.0,2.5693,2.5693,2.5693,2.7305,2.8743,2.8946,3.0354,3.1463,3.1445,3.1433,3.1282,3.086,3.0863,3.089,3.0796,3.0801,3.098,3.1488,0.0,0.0,0.0,0.0,0.0,0.0,2.8672,2.8437,2.8437,2.8437,2.8398,2.8291,2.8291,2.8291,2.8291,2.8291,2.8291,2.8291,2.8291,0.0,0.0,0.0,0.0,2.667,2.6465,2.6191,2.583,2.5732,2.5693,2.5693,2.5693,2.5693,2.5693,0.0,0.0,0.0,0.0,0.0,0.0,0.0,0.0,0.0,0.0,0.0,0.0,0.0,0.0,0.0,0.0,0.0,0.0,0.0,0.0,0.0,0.0,0.0,1.7729,1.7982,1.8129,1.847,1.8925,1.9058,1.9138,1.9152,1.8704,1.8417,1.8263,1.7789,1.7582,0.0,0.0,0.0,0.0,0.0,0.0,0.0,0.0,0.0,0.0,1.8882,1.9878,0.0,2.3015,2.4272,2.4981,0.0,0.0,0.0,0.0,2.4969,2.4717,2.4482,2.4912,2.543,2.543,2.5538,2.5693,2.5693,2.6052,2.6284,2.5781,2.7673,2.9324,2.9182,3.0547,3.1747,3.196,3.2242,3.226,3.1944,3.1774,3.1495,3.1086,3.1498,3.1559,0.0,0.0,0.0,0.0,0.0,0.0,0.0,2.8418,2.8291,2.8291,2.8291,2.8291,2.8291,2.8291,2.8291,2.8291,2.8291,2.8291,2.8291,2.8291,0.0,0.0,0.0,0.0,2.6367,2.6172,2.5947,2.5693,2.5693,2.5693,2.5693,2.5693,2.5693,2.5693,0.0,0.0,0.0,0.0,0.0,0.0,0.0,0.0,0.0,0.0,0.0,0.0,0.0,0.0,0.0,0.0,0.0,0.0,0.0,0.0,0.0,0.0,1.7816,1.7776,1.7989,1.8337,1.8631,1.8925,1.9265,1.9305,1.9052,1.8718,1.835,1.7916,1.7749,1.7622,0.0,0.0,0.0,0.0,0.0,0.0,0.0,0.0,0.0,0.0,0.0,0.0,0.0,2.1922,2.3499,2.4827,2.5063,0.0,0.0,0.0,0.0,0.0,2.4316,2.4639,2.5028,2.5096,2.54,2.5732,2.5868,2.66,2.701,2.6284,2.8319,2.9954,2.9196,3.0568,3.2018,3.2527,3.3068,3.3339,3.3223,3.275,3.2117,3.1243,3.218,0.0,0.0,0.0,0.0,0.0,0.0,0.0,0.0,2.8291,2.8291,2.8291,2.8291,2.8291,2.8291,2.8291,2.8291,2.8291,2.8291,2.8291,2.8291,2.8223,2.7969,0.0,0.0,0.0,2.626,2.584,2.5693,2.5693,2.5693,2.5693,2.5693,2.5693,2.5693,2.5693,0.0,0.0,0.0,0.0,0.0,0.0,0.0,0.0,0.0,0.0,0.0,0.0,0.0,0.0,0.0,0.0,0.0,0.0,0.0,0.0,0.0,1.8437,1.8136,1.7942,1.7995,1.8337,1.8631,1.8925,1.9466,1.9706,1.9653,1.9112,1.8424,1.7662,1.7883,1.7829,1.7582,0.0,0.0,0.0,0.0,0.0,0.0,0.0,0.0,0.0,0.0,0.0,0.0,2.1457,2.3042,2.4354,2.4324,0.0,0.0,0.0,0.0,0.0,2.3887,2.4199,2.4609,2.5018,2.54,2.5917,2.6781,2.7094,2.7426,2.8085,2.9292,3.0308,3.057,3.1607,3.2539,3.308,3.3597,3.3731,3.3281,0.0,3.3526,3.3486,0.0,0.0,0.0,0.0,0.0,0.0,0.0,0.0,0.0,2.8291,2.8291,2.8291,2.8291,2.8291,2.8291,2.8291,2.8291,2.8291,2.8291,2.8291,2.8281,2.792,2.7529,0.0,0.0,2.624,2.5781,2.5713,2.5693,2.5693,2.5693,2.5693,2.5693,2.5693,2.5693,2.5693,0.0,0.0,0.0,0.0,0.0,0.0,0.0,0.0,0.0,0.0,0.0,0.0,0.0,0.0,0.0,0.0,0.0,0.0,0.0,0.0,1.8631,1.8497,1.8203,1.7995,1.7995,1.8337,1.8711,1.9165,1.9432,1.9646,1.9786,1.9038,1.8384,1.7836,1.7809,1.7716,1.7582,1.7582,0.0,0.0,0.0,0.0,0.0,0.0,0.0,0.0,0.0,0.0,0.0,0.0,2.1887,2.3599,2.3805,0.0,0.0,0.0,0.0,0.0,2.3789,2.4092,2.4463,2.4668,2.5225,2.5965,2.6962,2.7605,2.8121,2.8577,2.9932,3.0939,3.0628,3.1628,3.2767,3.3561,3.4078,3.4353,3.408,3.4216,3.4158,0.0,0.0,0.0,0.0,0.0,0.0,0.0,0.0,0.0,0.0,0.0,2.8291,2.8291,2.8291,2.8291,2.8291,2.8291,2.8291,2.8291,2.8291,2.8174,2.7949,2.7806,2.7305,2.667,0.0,2.6143,2.5693,2.5693,2.5693,2.5693,2.5693,2.5693,2.5693,2.5693,2.5693,2.5654,0.0,0.0,0.0,0.0,0.0,0.0,0.0,0.0,0.0,0.0,0.0,0.0,0.0,0.0,0.0,0.0,0.0,0.0,0.0,0.0,1.8564,1.8497,1.827,1.8029,1.7889,1.837,1.8811,1.9265,1.9598,1.972,1.9786,1.9112,1.8531,1.7982,1.7869,1.7716,1.7582,1.7582,1.7582,0.0,0.0,0.0,0.0,0.0,0.0,0.0,0.0,0.0,0.0,0.0,0.0,0.0,0.0,0.0,0.0,2.4512,2.4189,2.3965,2.4062,2.4248,2.4509,2.4937,2.5548,2.6362,2.7477,2.843,2.913,2.954,3.0726,3.1472,3.0678,3.1705,3.2984,3.385,3.4438,3.4775,3.4775,3.4775,3.447,0.0,0.0,0.0,0.0,0.0,0.0,0.0,0.0,0.0,0.0,0.0,2.8548,2.8291,2.8291,2.8291,2.8291,2.8291,2.8291,2.8291,2.8291,2.8066,2.7718,2.7611,2.71,2.6387,2.6279,2.6045,2.5693,2.5693,2.5693,2.5693,2.5693,2.5693,2.5693,2.5693,2.5625,2.5547,0.0,0.0,0.0,0.0,0.0,0.0,0.0,0.0,0.0,0.0,0.0,0.0,0.0,0.0,0.0,0.0,0.0,0.0,0.0,0.0,1.8771,1.8504,1.847,1.8196,1.7629,1.8457,1.8911,1.8958,2.0047,2.0314,1.98,1.9733,1.9112,1.8002,1.831,1.811,1.7582,1.7582,1.7582,1.7582,1.7582,0.0,0.0,0.0,0.0,0.0,0.0,0.0,0.0,0.0,0.0,0.0,0.0,0.0,2.4185,2.4378,2.4394,2.4463,2.4863,2.4697,2.4832,2.656,2.7053,2.7494,2.8986,2.9719,3.0501,3.1948,3.1932,3.1661,3.1617,3.2515,3.3404,3.3898,3.4438,3.4775,3.4775,0.0,0.0,0.0,0.0,0.0,0.0,0.0,0.0,0.0,0.0,0.0,0.0,0.0,0.0,2.8344,2.8291,2.8291,2.8291,2.8291,2.8291,2.8291,2.8291,2.8066,2.7708,2.7246,2.6816,2.6367,2.5967,2.5713,2.5693,2.5693,2.5693,2.5693,2.5693,2.5693,2.5693,2.5693,2.5478,2.5166,0.0,0.0,0.0,0.0,0.0,0.0,0.0,0.0,0.0,0.0,0.0,0.0,0.0,0.0,0.0,0.0,0.0,0.0,0.0,1.8076,1.813,1.821,1.8029,1.7816,1.7589,1.8103,1.8502,1.8925,2.0092,2.0401,1.9811,1.9986,1.9542,1.8584,1.8516,1.8138,1.7582,1.7582,1.7582,1.7582,1.7582,0.0,0.0,0.0,0.0,0.0,0.0,0.0,0.0,0.0,1.9862,2.0869,2.2723,2.3978,2.473,2.4824,2.4629,2.4512,2.4951,2.4746,2.4643,2.5657,2.7029,2.8445,2.9665,3.008,3.0556,3.1747,3.1849,3.1813,3.2118,3.2527,3.3068,3.385,3.4162,3.4402,3.4727,0.0,0.0,0.0,0.0,0.0,0.0,0.0,0.0,0.0,0.0,0.0,0.0,0.0,0.0,2.8344,2.8291,2.8291,2.8291,2.8291,2.8164,2.791,2.791,2.7676,2.7246,2.6816,2.6387,2.5977,2.5762,2.5693,2.5693,2.5693,2.5693,2.5693,2.5693,2.5693,2.5693,2.5693,2.5449,2.5135,0.0,0.0,0.0,0.0,0.0,0.0,0.0,0.0,0.0,0.0,0.0,0.0,0.0,0.0,0.0,0.0,0.0,0.0,1.7883,1.7702,1.7722,1.7975,1.7842,1.7729,1.7729,1.7842,1.8237,1.8925,2.0001,2.0422,2.0069,2.0146,1.977,1.9049,1.8694,1.8232,1.7722,1.7622,1.7582,1.7582,1.7582,1.7235,0.0,0.0,0.0,0.0,0.0,0.0,0.0,0.0,1.9571,2.0402,2.2751,2.418,2.4964,2.5068,2.4951,2.4863,2.5077,2.4853,2.481,2.5573,2.6905,2.8403,2.9852,3.0453,3.0963,3.2004,3.209,3.2046,3.243,3.2503,3.2791,3.3657,3.3886,3.4174,0.0,0.0,0.0,0.0,0.0,0.0,0.0,0.0,0.0,0.0,0.0,0.0,0.0,0.0,0.0,0.0,2.8367,2.8096,2.8096,2.7959,2.7744,2.7461,2.7324,2.7109,2.6807,2.6523,2.6152,2.5693,2.5693,2.5693,2.5693,2.5693,2.5693,2.5693,2.5693,2.5693,2.5693,2.5693,2.5449,2.5116,0.0,0.0,0.0,0.0,0.0,0.0,0.0,0.0,0.0,0.0,0.0,0.0,0.0,0.0,0.0,0.0,0.0,0.0,1.7562,1.7582,1.7716,1.7969,1.7982,1.7989,1.7989,1.7742,1.8023,1.8918,1.9849,2.043,2.0711,2.0062,1.9651,1.9407,1.8785,1.8323,1.7969,1.7709,1.7582,1.7582,1.7582,1.7235,1.6707,0.0,0.0,0.0,0.0,0.0,0.0,0.0,1.9579,2.0307,2.331,2.4498,2.4764,2.5011,2.5371,2.5577,2.5176,2.5106,2.5441,2.6839,2.6895,2.7243,2.9636,3.0958,3.1973,3.3044,3.2851,3.2491,3.2491,3.2491,3.2671,3.32,3.3705,3.4174,0.0,0.0,0.0,0.0,0.0,0.0,0.0,0.0,0.0,0.0,0.0,0.0,0.0,0.0,0.0,0.0,2.8481,2.7708,2.7708,2.7226,2.7012,2.7002,2.6592,2.6387,2.6387,2.6387,2.6143,2.5693,2.5693,2.5693,2.5693,2.5693,2.5693,2.5693,2.5693,2.5693,2.5684,2.5684,2.5449,2.5106,0.0,0.0,0.0,0.0,0.0,0.0,0.0,0.0,0.0,0.0,0.0,0.0,0.0,0.0,0.0,0.0,0.0,0.0,1.7326,1.7333,1.7373,1.7408,1.7609,1.7722,1.7722,1.8056,1.8462,1.8889,1.9626,2.0491,2.1534,2.0783,2.0441,2.0442,1.9721,1.9005,1.8239,1.7998,1.7859,1.7852,1.7687,1.7235,1.6707,0.0,0.0,0.0,0.0,0.0,0.0,0.0,0.0,0.0,2.2164,2.3617,2.4516,2.4563,2.4707,2.4717,2.4287,2.4385,2.481,2.5563,2.6398,2.7212,2.7949,2.9418,3.0963,3.198,3.2066,3.1958,3.1958,3.1958,3.2214,3.314,3.3416,0.0,0.0,0.0,0.0,0.0,0.0,0.0,0.0,0.0,0.0,0.0,0.0,0.0,0.0,0.0,0.0,0.0,2.8676,2.7903,2.7207,2.708,2.6865,2.6572,2.6445,2.6387,2.6377,2.6074,2.581,2.5693,2.5693,2.5693,2.5693,2.5693,2.5693,2.5693,2.5693,2.5547,2.5273,2.5273,2.4805,2.4209,0.0,0.0,0.0,0.0,0.0,0.0,0.0,0.0,0.0,0.0,1.7582,1.7582,0.0,0.0,0.0,0.0,0.0,0.0,0.0,1.7092,1.7079,1.7199,1.7481,1.7635,1.7747,1.8471,1.8888,1.9069,2.0001,2.092,2.1869,2.1226,2.1006,2.1039,1.9935,1.9045,1.8363,1.8095,1.7936,1.7787,1.7624,1.723,1.6707,0.0,0.0,0.0,0.0,0.0,0.0,0.0,0.0,0.0,2.1292,2.273,2.3746,2.4183,2.4448,2.4619,2.4365,2.4609,2.5,2.5273,2.5988,2.6829,2.7605,2.9205,3.0811,3.1807,3.1997,3.1997,3.1997,3.1862,0.0,3.2839,0.0,0.0,0.0,0.0,0.0,0.0,0.0,0.0,0.0,0.0,0.0,0.0,0.0,0.0,0.0,0.0,0.0,0.0,2.8744,2.7782,2.6768,2.6592,2.6377,2.6133,2.6133,2.6133,2.6123,2.581,2.5693,2.5693,2.5693,2.5693,2.5693,2.5693,2.5693,2.5674,2.5537,2.5303,2.5096,2.4873,2.4482,2.4053,0.0,0.0,0.0,0.0,0.0,0.0,0.0,0.0,0.0,0.0,1.7582,1.7569,0.0,0.0,0.0,0.0,0.0,0.0,0.0,0.0,1.6827,1.7146,1.7467,1.7799,1.8069,1.8876,1.9291,1.9291,2.0711,2.1564,2.1878,2.1564,2.1441,2.1447,1.9713,1.8727,1.8411,1.811,1.783,1.7524,1.7524,1.7187,1.6717,1.6717,0.0,0.0,0.0,0.0,0.0,0.0,0.0,0.0,2.0479,2.1731,2.2692,2.3605,2.4376,2.4988,2.4949,2.5273,2.5625,2.5625,2.5664,2.6197,2.8132,2.9741,3.1078,3.218,3.243,3.243,3.243,3.2054,3.1898,3.2406,0.0,0.0,0.0,0.0,0.0,0.0,0.0,0.0,0.0,0.0,0.0,0.0,0.0,0.0,0.0,0.0,0.0,0.0,2.8762,2.7472,2.6467,2.5977,2.5693,0.0,2.5693,2.5693,2.5693,2.5693,2.5693,2.5693,2.5693,2.5664,2.5625,2.5625,2.5606,2.5528,2.5166,2.5028,2.4949,2.4502,2.4336,2.4248,0.0,0.0,0.0,0.0,0.0,0.0,0.0,0.0,0.0,0.0,0.0,0.0,0.0,0.0,0.0,0.0,0.0,0.0,0.0,0.0,1.6734,1.68,1.7515,1.8174,1.8712,1.8881,1.9074,1.9277,2.0732,2.1881,2.2709,2.1828,2.1735,2.2171,2.0112,1.9043,1.8665,1.8153,1.7867,1.7817,1.756,1.7181,1.6723,1.6723,1.6346,0.0,0.0,0.0,0.0,0.0,0.0,0.0,1.8981,2.0311,2.1645,2.2086,2.3081,2.3994,2.3707,2.4421,2.5215,2.5215,2.5478,2.6014,2.7237,2.8384,2.9678,3.1505,3.1886,3.1886,3.1886,3.1789,3.1898,0.0,0.0,0.0,0.0,0.0,0.0,0.0,0.0,0.0,0.0,0.0,0.0,0.0,0.0,0.0,0.0,0.0,0.0,3.0842,2.9341,2.8046,2.702,2.615,2.5693,0.0,2.5693,2.5693,2.5693,2.5693,2.5693,2.5693,2.5693,2.5537,2.5215,2.5215,2.501,2.4687,2.459,2.4355,2.4053,2.3965,2.3711,2.3354,0.0,0.0,0.0,0.0,0.0,0.0,0.0,0.0,0.0,0.0,0.0,0.0,0.0,0.0,0.0,0.0,0.0,0.0,0.0,1.6547,1.6884,1.7326,1.7898,1.8384,1.8869,1.9026,1.9175,1.9279,2.0858,2.2003,2.2732,2.2732,2.2621,2.2433,2.0609,1.9355,1.8533,1.8063,1.7786,1.7646,1.7485,1.7197,1.6843,1.6649,1.6443,1.6143,1.5993,0.0,0.0,0.0,0.0,0.0,0.0,0.0,2.0439,2.1137,2.252,2.3789,2.3769,2.456,2.5391,2.5391,2.5566,2.5965,2.6962,2.7605,2.8541,3.0588,3.1371,3.1705,3.1705,3.1705,3.1801,0.0,0.0,0.0,0.0,0.0,0.0,0.0,0.0,0.0,0.0,0.0,0.0,0.0,0.0,0.0,0.0,3.225,3.1677,3.0629,2.9379,2.8107,2.6915,2.6088,2.5479,2.506,2.5322,2.5312,2.5117,2.5322,2.5303,2.506,2.506,2.4971,2.4756,2.4756,2.4619,2.4394,2.4199,2.3984,2.3769,2.3555,2.3286,2.3091,0.0,0.0,0.0,0.0,0.0,0.0,0.0,0.0,0.0,0.0,0.0,0.0,0.0,0.0,0.0,0.0,0.0,0.0,0.0,1.6473,1.7002,1.7862,1.814,1.84,1.879,1.9037,1.9207,1.9412,2.1007,2.2154,2.2785,2.3619,2.357,2.2717,2.1238,1.981,1.8565,1.813,1.7728,1.7359,1.7359,1.7179,1.6902,1.6595,1.6469,1.6392,1.6134,1.6204,1.6434,1.649,0.0,0.0,0.0,0.0,1.9042,2.0227,2.187,2.3367,2.3929,2.4738,2.5499,2.5645,2.5693,2.5917,2.6733,2.7094,2.7652,2.9326,3.0633,3.1472,3.1661,3.1705,0.0,0.0,0.0,0.0,0.0,0.0,0.0,0.0,0.0,0.0,0.0,0.0,0.0,0.0,0.0,0.0,3.1761,3.1705,3.1291,3.037,2.9341,2.8147,2.6735,2.6195,2.5411,2.4424,2.4785,2.4727,2.4316,2.4678,2.4687,2.4414,2.4414,2.4375,2.4307,2.4307,2.4268,2.416,2.3818,2.3682,2.3633,2.3227,2.3091,2.3091,0.0,0.0,0.0,0.0,0.0,0.0,0.0,0.0,0.0,0.0,1.738,1.7099,1.6794,1.6727,0.0,0.0,0.0,0.0,1.5919,0.0,0.0,1.7606,1.762,1.7916,1.8454,1.8433,1.887,1.9742,2.0895,2.2294,2.3881,2.3691,2.3718,2.3804,2.2047,2.0692,1.9643,1.895,1.8125,1.7305,1.7305,1.6998,1.6575,1.6532,1.6158,1.5732,1.5683,1.5697,1.5774,1.6092,1.5955,0.0,0.0,0.0,1.7421,1.8879,2.013,2.1259,2.2432,2.3662,2.4729,2.5499,2.5693,2.5732,2.5878,2.6552,2.7284,2.7558,2.9096,3.0678,3.1528,0.0,0.0,0.0,0.0,0.0,0.0,0.0,0.0,0.0,0.0,0.0,0.0,0.0,0.0,0.0,0.0,0.0,3.1937,3.1805,3.1444,3.0814,2.9836,2.8644,2.7237,2.7013,2.6048,2.4414,2.4473,2.4287,2.3877,2.3935,2.4131,2.4414,2.4414,2.4209,2.3877,2.3877,2.3652,2.3257,2.3208,2.3179,2.3169,2.312,2.3091,2.3091,0.0,0.0,0.0,0.0,0.0,0.0,0.0,0.0,0.0,0.0,0.0,1.6723,1.67,1.656,0.0,0.0,0.0,0.0,1.5611,1.5858,0.0,0.0,1.7442,1.7768,1.8318,1.8147,1.8596,1.9796,2.0426,2.186,2.4079,2.4275,2.4557,2.4799,2.3547,2.2275,2.0996,1.9699,1.862,1.7819,1.7285,1.7038,1.6885,1.6357,1.6348,1.6464,1.5948,1.587,1.6079,1.6215,1.6172,1.605,1.6124,0.0,0.0,0.0,1.9129,2.1029,2.3042,2.3984,2.4629,2.5469,2.5693,2.5693,2.5693,2.6052,2.6444,2.6775,2.7551,2.8652,0.0,0.0,0.0,0.0,0.0,0.0,0.0,0.0,0.0,0.0,0.0,0.0,0.0,0.0,0.0,0.0,0.0,3.1139,3.0936,3.1146,3.1019,3.0446,2.9487,2.8541,2.7698,2.7294,2.6324,2.4801,2.428,2.3838,2.3437,2.3682,2.376,2.3656,2.3656,2.3549,2.3428,2.3428,2.331,2.3091,2.3091,2.3091,2.3091,2.3091,2.3091,2.3091,0.0,0.0,0.0,0.0,0.0,0.0,0.0,0.0,0.0,0.0,0.0,1.6359,1.6573,0.0,0.0,0.0,0.0,0.0,1.5424,0.0,0.0,0.0,0.0,1.7526,1.8083,1.7811,1.8417,1.9909,2.01,2.1666,2.4541,2.4919,2.5477,2.6063,2.5095,2.3837,2.2306,2.0783,1.9608,1.8698,1.785,1.7418,1.7213,1.6638,1.6739,1.7169,1.6338,1.6177,1.6404,1.6323,1.6242,1.6104,1.5965,1.631,0.0,0.0,0.0,2.0796,2.3138,2.3848,2.4141,2.5019,2.5362,2.5566,2.5566,2.5606,2.5799,2.6164,2.612,2.6493,0.0,0.0,0.0,0.0,0.0,0.0,0.0,0.0,0.0,0.0,0.0,0.0,0.0,0.0,0.0,0.0,0.0,3.0592,3.0277,3.0543,3.0434,2.9905,2.9174,2.8453,2.7789,2.6887,2.615,2.5636,2.4269,2.358,2.345,2.3565,2.3447,2.3091,2.3091,2.3091,2.3091,2.3091,2.3091,2.3091,2.3091,2.3091,2.3091,2.3091,2.3091,2.3091,0.0,0.0,0.0,0.0,0.0,0.0,0.0,0.0,0.0,0.0,0.0,0.0,1.6342,1.6335,1.6039,1.5444,0.0,0.0,0.0,0.0,0.0,0.0,0.0,0.0,1.7403,1.7381,1.8272,2.0201,2.0204,2.2048,2.5625,2.5273,2.6201,2.8101,2.6374,2.4831,2.3476,2.2528,2.1304,1.9958,1.9391,1.8425,1.7308,1.7618,1.7505,1.7238,1.6579,1.6404,1.6367,1.6038,1.5688,1.5491,1.5826,1.5701,1.5646,0.0,0.0,0.0,2.1562,2.2305,2.2822,2.3682,2.4502,2.5145,2.5145,2.543,2.5605,2.5251,2.483,2.4683,0.0,0.0,0.0,0.0,0.0,0.0,0.0,0.0,0.0,0.0,0.0,0.0,0.0,0.0,0.0,0.0,0.0,3.0331,3.0736,3.0373,2.9881,2.9352,2.9299,2.8615,2.726,2.5517,2.5475,2.7056,2.4391,2.359,2.4413,2.3547,2.312,2.3091,2.3091,2.3091,2.3091,2.3091,2.3091,2.3091,2.3091,2.3091,2.3091,2.3091,2.3091,2.3091,0.0,0.0,0.0,0.0,0.0,0.0,0.0,0.0,0.0,0.0,0.0,0.0,0.0,1.6321,1.6135,1.5689,1.5833,0.0,0.0,0.0,0.0,0.0,0.0,0.0,1.7312,1.7297,1.8234,2.0187,2.0187,2.1787,2.4893,2.501,2.5527,2.6211,2.5879,2.5605,2.5263,2.3187,2.1898,2.1186,2.0351,1.9445,1.8558,1.8551,1.8295,1.7867,1.7216,1.6857,1.6712,1.6602,1.6177,1.5717,1.5877,1.5652,1.5545,1.6194,1.6836,1.7621,1.9156,2.0416,2.1457,2.21,2.3281,2.4248,2.4248,2.4795,2.5107,2.4394,2.4336,0.0,0.0,0.0,0.0,0.0,0.0,0.0,0.0,0.0,0.0,0.0,0.0,0.0,0.0,0.0,0.0,0.0,0.0,0.0,2.9532,2.9552,2.934,2.8811,2.8799,2.853,2.8059,2.6846,2.6558,2.7185,2.5031,2.4155,2.4456,2.3517,2.3091,2.3091,2.3091,2.3091,2.3091,2.3091,2.3091,2.3091,2.3091,2.3091,2.3091,2.3091,2.3091,2.3091,0.0,0.0,0.0,0.0,0.0,0.0,0.0,0.0,1.7043,1.7186,0.0,0.0,0.0,0.0,1.6423,1.5966,1.5899,1.5871,1.5871,1.6197,0.0,0.0,0.0,0.0,1.7279,1.7494,1.844,2.0187,2.0381,2.1834,2.4424,2.457,2.4873,2.5283,2.5146,2.5488,2.6035,2.4089,2.3047,2.264,2.1785,2.0725,1.9654,1.963,1.9213,1.854,1.7889,1.7516,1.7358,1.713,1.6667,1.6213,1.6104,1.5694,1.5394,1.6189,1.655,1.694,1.8273,1.9586,2.0737,2.1235,2.2255,2.3262,2.3691,2.4228,2.4519,2.3906,2.4014,0.0,0.0,0.0,0.0,0.0,0.0,0.0,0.0,0.0,0.0,0.0,0.0,0.0,0.0,0.0,0.0,0.0,0.0,0.0,2.9334,2.9201,2.8952,2.8522,2.851,2.851,2.851,2.7644,2.7348,2.7592,2.5505,2.4659,2.4872,2.3647,2.3091,2.3091,2.3091,2.3091,2.3091,2.3091,2.3091,2.3091,2.3091,2.3091,2.3091,2.3091,2.3091,2.3091,0.0,0.0,0.0,0.0,0.0,0.0,0.0,0.0,1.7512,1.7519,0.0,0.0,0.0,0.0,0.0,1.6303,1.6246,1.6246,1.6239,1.6721,0.0,0.0,0.0,0.0,1.7279,1.788,1.8852,2.0187,2.0818,2.2211,2.4365,2.3975,2.4463,2.5557,2.4355,2.4492,2.5586,2.5185,2.4718,2.4258,2.3717,2.2292,2.0542,2.0836,2.0328,1.9295,1.8655,1.8419,1.8267,1.7629,1.7196,1.6859,1.6507,1.5701,1.5188,1.6508,1.7188,1.7733,0.0,0.0,0.0,2.1034,2.1463,2.2158,2.3408,2.3721,2.374,2.375,2.376,0.0,0.0,0.0,0.0,0.0,0.0,0.0,0.0,0.0,0.0,0.0,0.0,0.0,0.0,0.0,0.0,0.0,0.0,3.0087,3.0276,2.9334,2.8724,2.851,2.851,2.851,2.851,2.7684,2.7684,2.8471,2.5799,2.4999,2.5735,2.394,2.3091,2.3091,2.3091,2.3091,2.3091,2.3091,2.3091,2.3091,2.3091,2.3091,2.3091,2.3091,2.3091,2.3091,0.0,0.0,0.0,0.0,0.0,1.9146,1.9058,1.8311,1.7896,0.0,0.0,0.0,1.7239,1.7301,1.7229,1.7099,1.7275,1.7261,1.703,1.7367,1.7487,1.7254,1.7512,1.7574,1.7333,1.8195,1.9149,2.0187,2.1087,2.2201,2.3452,2.3701,2.3818,2.3812,2.3809,2.3818,2.3848,2.3408,2.3683,2.4333,2.3566,2.301,2.2629,2.2735,2.2302,2.1608,2.1403,2.0674,1.9789,1.9603,1.851,1.7062,1.6287,1.5936,1.592,1.6291,1.6918,1.7501,1.7612,0.0,0.0,0.0,0.0,0.0,0.0,0.0,2.25,2.2803,2.3105,0.0,0.0,0.0,0.0,0.0,0.0,0.0,0.0,0.0,0.0,0.0,0.0,0.0,0.0,0.0,0.0,0.0,3.0728,3.0236,3.0316,2.9334,2.8724,2.851,2.851,2.851,2.851,2.8259,2.8259,2.8471,2.6412,2.5579,2.5735,2.394,2.3091,2.3091,2.3091,2.3091,2.3091,2.3091,2.3091,2.3091,2.3091,2.3091,2.3091,2.3091,2.3091,2.3091,0.0,0.0,0.0,1.9755,1.9473,1.9228,1.9096,1.8651,1.8333,0.0,0.0,0.0,1.7853,1.793,1.7929,1.7799,1.7923,1.794,1.7743,1.7911,1.7874,1.7498,1.7713,1.7845,1.7932,1.8736,1.9681,2.0827,2.1662,2.2383,2.3101,2.3398,2.3291,2.2847,2.3144,2.3018,2.264,2.2168,2.2822,2.4141,2.4059,2.3783,2.3519,2.3684,2.3247,2.2484,2.2484,2.1695,2.0676,2.112,2.016,1.8527,1.7014,1.687,1.7201,1.6628,1.7337,1.8291,1.8232,1.8684,1.9174,1.9411,0.0,0.0,2.1113,2.1504,0.0,0.0,0.0,0.0,0.0,0.0,0.0,0.0,0.0,0.0,0.0,0.0,0.0,0.0,0.0,0.0,0.0,0.0,0.0,3.2239,3.1514,3.087,3.0341,2.9492,2.8961,2.8749,2.8657,2.8618,2.8618,2.855,2.851,2.8471,2.704,2.637,2.634,2.4904,2.4231,2.4231,2.3854,2.3691,2.3647,2.3266,2.3091,2.3091,2.3091,2.3091,2.3091,2.3091,2.3091,2.3091,0.0,0.0,2.0543,2.0505,2.0075,1.9568,1.9088,1.9036,1.8993,0.0,1.8811,1.8803,1.884,1.8811,1.8672,1.8379,1.8321,1.8284,1.8247,1.8247,1.8101,1.7772,1.7794,1.813,1.8804,1.9379,2.0306,2.1695,2.2232,2.2734,2.3091,2.3003,2.276,2.2441,2.2393,2.2139,2.1719,2.1385,2.2187,2.3652,2.4463,2.4364,2.3731,2.4091,2.3656,2.2844,2.2844,2.2165,2.1314,2.2029,2.165,2.0451,1.8345,1.8272,1.8786,1.7657,1.8425,1.9743,2.0043,2.0098,2.0234,2.0937,2.0283,0.0,2.1797,2.1629,2.1453,0.0,0.0,0.0,0.0,0.0,0.0,0.0,0.0,0.0,0.0,0.0,0.0,0.0,0.0,0.0,0.0,3.2463,3.2711,3.2766,3.2351,3.1592,3.0366,2.9729,2.9314,2.9091,2.8882,2.8791,2.8791,2.8618,2.851,2.8471,2.7644,2.7185,2.7185,2.6149,2.5701,2.5659,2.4735,2.4386,2.4386,2.3504,2.3226,2.3266,2.3135,2.3178,2.3222,2.3144,2.3091,2.3091,0.0,2.2681,2.2789,2.249,2.2376,2.1851,2.0684,2.0484,2.0184,1.9332,1.895,1.8891,1.9155,1.895,1.8767,1.8701,1.8452,1.8196,1.7933,1.7911,1.7765,1.7388,1.7677,1.813,1.8804,1.962,2.0613,2.1695,2.2232,2.2734,2.3081,2.2441,2.209,2.1992,2.1641,2.124,2.0899,2.1494,2.1953,2.2305,2.2803,2.3738,2.4784,2.4861,2.4967,2.5079,2.5079,2.4198,2.2784,2.1479,2.0733,2.024,1.9562,1.9728,2.0203,1.9934,2.0608,2.1438,2.1483,2.124,2.0898,2.0742,0.0,0.0,2.041,2.0566,2.0869,0.0,0.0,0.0,0.0,0.0,0.0,0.0,0.0,0.0,0.0,0.0,0.0,0.0,0.0,0.0,0.0,3.255,3.281,3.3025,3.2127,3.1192,3.0341,2.9729,2.9314,2.9091,2.8882,2.8791,2.8791,2.8618,2.851,2.8471,2.7644,2.7185,2.7162,2.5765,2.5169,2.5107,2.3895,2.3727,2.4223,2.3826,2.3914,2.4155,2.3396,2.356,2.4155,2.3396,2.3091,2.3222,2.3006,2.3159,2.3176,2.304,2.2852,2.2503,2.1818,2.1684,2.1597,2.1219,2.0576,1.9923,1.9376,1.9133,1.903,1.903,1.873,1.8408,1.8079,1.7904,1.7853,1.8032,1.8224,1.8924,2.0204,2.0692,2.1418,2.2413,2.2457,2.2617,2.2769,2.2178,2.2002,2.2168,2.1483,2.1348,2.1543,2.1553,2.1807,2.2275,2.3115,2.3975,2.4795,2.5234,2.54,2.54,2.54,2.4775,2.3683,2.203,2.1697,0.0,2.0791,2.1271,2.1987,0.0,2.1527,2.2523,2.2256,2.1885,0.0,2.1543,0.0,0.0,0.0,2.0723,2.086,2.1689,2.1492,2.1395,0.0,0.0,0.0,0.0,0.0,0.0,0.0,0.0,0.0,0.0,0.0,0.0,0.0,3.2593,3.281,3.3081,3.2026,3.1232,3.0888,3.0049,2.9534,2.9456,2.9131,2.8961,2.8961,2.8669,2.851,2.851,2.7798,2.7458,2.7406,2.6396,2.5959,2.5908,2.4796,2.4579,2.4854,2.4261,2.4416,2.5011,2.4598,2.4488,2.4498,2.4445,2.4188,2.394,2.3518,2.3518,2.3518,2.3518,2.3305,2.3044,2.2835,2.2793,2.2847,2.2997,2.2217,2.1239,2.0065,1.9931,1.9954,2.0022,1.9658,1.934,1.9178,1.8682,1.8658,1.9273,1.9182,1.9911,2.176,2.1731,2.2148,2.3091,2.2637,2.2432,2.25,2.1904,2.1904,2.2363,2.167,2.1787,2.2471,2.1814,2.2009,2.2852,2.3965,2.4365,2.4385,2.5128,2.5254,2.4979,2.49,2.459,2.4091,2.2784,2.2924,2.3402,2.1989,2.2507,0.0,0.0,2.2074,2.3086,2.2725,0.0,0.0,0.0,0.0,2.1104,0.0,0.0,0.0,2.1943,0.0,0.0,0.0,0.0,0.0,0.0,0.0,0.0,0.0,0.0,0.0,0.0,0.0,0.0,0.0,3.229,3.2585,3.3056,3.1938,3.1286,3.1386,3.047,2.9905,2.9792,2.9339,2.9131,2.917,2.8776,2.853,2.8473,2.7999,2.7734,2.7625,2.7019,2.6779,2.6729,2.5733,2.5421,2.547,2.4692,2.4881,2.5701,2.5643,2.5313,2.4956,2.5588,2.5368,2.4872,2.54,2.54,2.54,2.54,2.5362,2.502,2.4048,2.3939,2.3601,2.2695,2.2451,2.2333,2.2139,2.2139,2.2266,2.2638,2.2029,2.18,2.2188,2.114,2.0738,2.116,2.0453,2.0713,2.2208,2.1869,2.2148,2.3091,2.2344,2.2148,2.248,2.1279,2.1162,2.1953,2.1855,2.207,2.2529,2.276,2.3159,2.3691,2.4209,2.4199,0.0,2.4385,2.4531,2.4443,2.4072,2.3906,2.3789,0.0,2.3081,2.3149,0.0,2.3003,2.314,2.2906,0.0,0.0,0.0,0.0,0.0,0.0,2.2129,0.0,0.0,0.0,2.1084,2.0879,0.0,0.0,0.0,0.0,0.0,0.0,0.0,0.0,0.0,0.0,0.0,0.0,0.0,0.0,0.0,0.0,3.1805,3.3006,3.1599,3.0909,3.1361,3.0834,3.0294,2.9817,2.9339,2.9197,2.9341,2.8961,2.8612,2.8303,2.8076,2.7796,2.7483,2.659,2.6311,2.6396,2.4901,2.4667,2.5302,2.496,2.5306,2.5991,2.5333,2.5521,2.6165,2.5873,2.5735,2.5788,2.5635,2.5693,2.5693,2.5693,2.5693,2.5538,2.5118,2.5479,2.5295,2.3987,2.4047,2.3934,2.3315,2.2997,2.3014,2.3461,2.3203,2.2953,2.271,2.2235,2.2088,2.2369,2.1776,2.1971,2.3128,2.272,2.2687,2.3091,2.2539,2.2217,2.2129,2.1328,2.1416,2.2236,2.1992,2.2529,2.3594,2.3281,2.3252,2.3447,2.3877,2.3799,0.0,2.4443,2.4482,2.3994,2.3564,2.3408,2.3379,0.0,2.3091,0.0,0.0,0.0,0.0,2.3169,0.0,0.0,0.0,0.0,0.0,0.0,0.0,0.0,2.1133,0.0,2.0869,0.0,0.0,0.0,0.0,0.0,0.0,0.0,0.0,0.0,0.0,0.0,0.0,0.0,0.0,0.0,0.0,0.0,0.0,0.0,0.0,3.0708,3.0922,3.0733,3.0357,2.9817,2.9443,2.9314,2.9419,2.8811,2.8425,2.8281,2.7568,2.7152,2.6992,2.6189,2.5863,2.5886,2.5147,2.4981,2.5288,2.517,2.5409,2.5828,2.581,2.6055,2.6376,2.6414,2.6394,2.6416,2.5625,2.5693,2.5654,2.5528,2.5606,2.5693,2.5693,2.622,2.629,2.5383,2.5507,2.5413,2.4743,2.4371,2.4353,2.4825,2.4763,2.445,2.391,2.3668,2.3595,2.3738,2.3205,2.3199,2.3965,2.3535,2.3218,2.3091,2.2715,2.2353,2.2041,2.1453,2.159,2.2334,2.2266,2.2978,2.4219,2.3893,2.375,2.3822,2.4062,2.4,2.3805,2.4499,2.4258,2.3574,2.3208,2.3091,2.3091,2.3091,2.3091,0.0,2.3091,0.0,2.3545,0.0,0.0,0.0,2.3179,0.0,0.0,0.0,0.0,0.0,0.0,0.0,0.0,0.0,0.0,0.0,0.0,0.0,0.0,0.0,0.0,0.0,0.0,0.0,0.0,0.0,0.0,0.0,0.0,0.0,0.0,0.0,0.0,0.0,3.0595,3.062,3.0357,2.9817,2.941,2.9195,2.9272,2.8521,2.8112,2.8027,2.72,2.6731,2.6618,2.5977,2.5723,2.5758,2.5488,2.5418,2.5453,2.5382,2.55,2.5725,2.6115,2.6343,2.6534,2.6856,2.6962,2.6969,2.5684,2.5693,2.5596,2.5213,2.5449,2.5693,2.5693,2.5713,2.5879,2.6288,2.6347,2.6512,2.6861,2.69,2.7065,2.7545,2.7153,2.69,2.6871,2.6092,2.5625,2.5596,2.4816,2.4348,2.4394,2.3984,2.3564,2.3091,2.2715,2.251,2.2471,2.159,2.1475,2.1943,2.2797,2.3379,2.3867,2.4715,2.5254,2.5567,2.5195,2.5067,2.4969,0.0,2.3555,2.311,2.3101,0.0,0.0,2.3091,2.3091,0.0,0.0,0.0,0.0,0.0,0.0,0.0,0.0,0.0,0.0,2.2119,0.0,0.0,0.0,0.0,2.1181,0.0,0.0,0.0,0.0,0.0,2.1161,2.119,2.119,0.0,0.0,0.0,0.0,0.0,0.0,0.0,0.0,0.0,0.0,0.0,0.0,0.0,3.0557,3.062,3.0357,2.9817,2.9049,2.8712,2.8913,2.8201,2.7665,2.7331,2.7103,2.6816,2.649,2.6084,2.5992,2.6166,2.5758,2.5688,2.5875,2.5676,2.5723,2.5875,2.5923,2.6244,2.6711,2.7065,2.7297,2.7471,2.5293,2.5527,2.5635,2.5537,2.5586,2.5693,2.5693,2.5977,2.6318,2.6748,2.6807,2.707,2.7783,2.7607,2.7617,2.8047,2.7949,2.7744,2.7461,2.6904,2.6455,2.6182,2.5322,2.4844,2.4844,2.4424,2.3994,2.3574,2.3428,2.3066,2.25,2.1934,2.1894,2.2314,2.2607,2.3281,2.4228,2.4512,2.4727,2.4853,0.0,2.4805,2.5047,0.0,0.0,2.3525,2.3198,2.3091,0.0,2.3091,2.3091,2.3091,2.3091,2.3091,2.3091,2.3091,2.2896,0.0,0.0,0.0,2.2305,2.2305,0.0,0.0,0.0,0.0,0.0,0.0,0.0,0.0,0.0,0.0,2.1572,2.1239,2.119,2.1074,0.0,0.0,0.0,0.0,0.0,0.0,0.0,0.0,0.0,0.0,0.0,0.0,0.0,3.0419,3.0357,2.9817,2.9151,2.8812,2.8888,2.7949,2.7398,2.7281,2.6869,2.6593,2.6499,2.6236,2.6131,2.6179,2.591,2.5828,2.5898,2.584,2.591,2.6097,2.6097,2.63,2.6557,2.6413,2.6685,2.7173,2.5342,2.5537,2.5635,2.5527,2.5586,2.5693,2.5693,2.6113,2.6533,2.6963,2.7148,2.751,2.8213,2.8057,2.7998,2.8271,2.8291,2.8047,2.7471,2.7314,2.6992,2.6406,2.584,2.5469,2.5312,2.4873,2.4443,2.4014,2.4014,2.3652,2.2959,2.2539,2.2402,2.2519,2.2666,2.3281,2.4209,2.4521,2.4746,2.4836,0.0,2.5049,0.0,0.0,2.415,2.373,0.0,2.3091,2.3091,2.3091,2.3091,2.3091,2.3091,2.3091,2.3062,2.2916,2.2682,2.2539,2.2656,2.2295,0.0,2.2021,2.16,0.0,2.119,0.0,0.0,0.0,0.0,0.0,0.0,0.0,2.1973,2.1533,2.1378,2.1233,0.0,2.1156,0.0,0.0,0.0,0.0,0.0,0.0,2.7071,2.8236,0.0,0.0,0.0,0.0,3.0168,2.9804,2.9038,2.8637,2.8637,2.7544,2.7027,2.7014,2.6663,2.6499,2.6499,2.6361,2.6305,2.6305,2.6084,2.605,2.6119,2.605,2.6131,2.6305,2.6305,2.6396,2.6452,2.6119,2.6319,2.676,2.5771,2.5693,2.5605,2.5223,2.5449,2.5693,2.5693,2.6113,2.6533,2.6963,2.7393,2.7822,2.8252,2.8291,2.8291,2.8291,2.8291,2.7949,2.7129,2.7441,2.7356,2.6484,2.6406,2.6191,2.5732,2.5332,2.4893,2.4443,2.4424,2.4199,2.3779,2.334,2.292,2.2568,2.2916,2.3344,2.3877,2.4763,2.5322,2.5693,2.5693,2.5693,2.5596,2.4775,2.4189,2.376,2.3257,2.3091,2.3091,2.3091,2.3091,2.3091,2.3091,2.3081,2.2984,2.2627,2.248,2.2373,2.1992,2.1855,2.1738,2.1317,0.0,0.0,0.0,0.0,2.2056,0.0,0.0,0.0,0.0,0.0,0.0,2.1953,2.1656,2.1491,0.0,0.0,0.0,0.0,0.0,0.0,0.0,2.5276,2.586,2.7195,2.777,2.8323,0.0,0.0,0.0,2.9792,2.8699,2.8109,2.8109,2.7052,2.6499,2.6499,2.6499,2.6499,2.6499,2.6499,2.6499,2.6499,2.6305,2.6339,2.6499,2.6305,2.6339,2.6499,2.6499,2.6499,2.6499,2.6305,2.6213,2.631,2.5713,2.5693,2.5654,2.5538,2.5615,2.5693,2.5693,2.6113,2.6533,2.6963,2.7393,2.7822,2.8252,2.8291,2.8291,2.8291,2.8291,2.8203,2.7978,2.7773,2.762,2.7395,2.6728,2.6338,2.6221,2.5791,2.5352,2.4902,2.458,2.4199,2.3769,2.3027,2.2783,2.2945,2.3052,2.351,2.4287,2.4844,2.5322,2.5693,2.5693,2.5693,0.0,0.0,2.4629,2.416,2.3364,2.3091,2.3091,2.3091,2.3091,2.3091,2.3091,2.2877,2.2613,2.2549,2.206,2.1611,2.1826,2.1447,2.1075,2.1582,2.1221,2.082,0.0,0.0,0.0,0.0,0.0,0.0,0.0,0.0,0.0,2.2043,2.141,2.1142,2.1446,0.0,0.0,2.2234,0.0,0.0,0.0,2.4933,2.586,2.7195,2.7419,0.0,0.0,0.0,0.0,2.9779,2.8699,2.8109,2.8109,2.7052,2.6499,2.6499,2.6499,2.6499,2.6499,2.6499,2.6499,2.6499,2.6465,2.6465,2.6499,2.643,2.6465,2.6499,2.6499,2.6499,2.6499,2.643,2.643,2.6443,2.6025,2.6172,2.6191,2.6055,2.6172,2.623,2.6045,2.623,2.6533,2.6963,2.7393,0.0,2.7988,2.8184,2.8291,2.8291,2.8291,0.0,2.8027,0.0,0.0,2.7728,2.7021,2.666,2.666,2.6055,0.0,2.5361,2.4922,2.4482,2.4053,2.3379,2.2998,2.2838,2.3252,2.3691,2.4199,2.5019,2.5508,2.5693,2.5693,0.0,0.0,2.5244,2.4795,2.4326,2.3662,2.3257,2.3091,2.3091,2.3091,2.3091,2.3091,2.2808,2.248,2.2369,2.1881,2.136,2.1429,2.1115,2.081,2.1222,2.1017,2.085,2.1252,2.1351,2.148,0.0,0.0,0.0,0.0,0.0,0.0,2.2159,2.171,2.1504,2.1609,0.0,0.0,0.0,2.2268,0.0,0.0,0.0,0.0,0.0,0.0,0.0,0.0,0.0,0.0,2.9051,2.8436,2.7996,2.7745,2.6927,2.6499,2.6499,2.6499,2.6499,2.6499,2.6499,2.6499,2.6499,2.6499,2.6499,2.6499,2.6499,2.6499,2.6499,2.6499,2.6499,2.6499,2.6499,2.6499,2.6524,2.6396,2.6728,2.6865,2.6387,2.6699,2.6894,0.0,2.6523,0.0,2.7051,0.0,2.7796,2.7796,2.8076,2.8291,2.8291,2.8291,2.8135,2.7826,2.8086,2.8125,2.7816,2.7334,2.707,2.7012,2.623,2.5742,0.0,2.5234,2.4785,2.4404,2.3877,2.3252,2.2627,2.3369,2.3799,2.4033,2.5225,2.5693,2.5693,2.5693,2.5693,2.5645,2.5303,2.4883,2.4443,2.4023,2.3555,2.3091,2.3091,2.3091,2.3091,2.3091,2.2808,2.2474,2.2251,2.1857,2.1412,2.1025,2.0945,2.0906,2.0693,2.078,2.1005,2.1342,2.1461,2.168,2.2463,2.2392,0.0,0.0,0.0,0.0,0.0,0.0,0.0,0.0,0.0,0.0,0.0,0.0,0.0,0.0,0.0,0.0,0.0,0.0,0.0,0.0,0.0,0.0,0.0,2.8072,0.0,2.7394,0.0,2.6499,2.6499,2.6499,2.6499,2.6499,2.6499,2.6499,2.6499,2.6499,2.6499,2.6499,2.6499,2.6499,2.6499,2.6499,2.6499,2.6499,2.6499,2.6499,2.6562,2.6455,2.6728,2.6768,2.5937,2.6504,2.6992,2.6914,2.7207,2.7523,2.7591,2.792,2.8184,2.8184,2.8252,2.8291,2.8291,2.8291,0.0,0.0,0.0,0.0,2.8184,2.7773,2.7383,2.7021,2.6533,2.6103,2.5693,2.4922,2.4492,2.4394,2.3262,2.2842,2.2994,2.3203,2.3902,2.493,2.5478,0.0,2.5693,2.5693,2.5693,2.5674,2.5596,2.5342,2.4893,2.4463,2.3799,2.3091,2.3091,2.3091,2.3091,2.3091,2.2808,2.2474,2.2251,2.1857,2.1451,2.1209,2.1138,2.1089,2.0906,2.0984,2.1119,2.1044,2.1132,2.1346,2.1649,2.1964,2.2179,2.2198,0.0,0.0,0.0,0.0,0.0,0.0,0.0,0.0,0.0,0.0,0.0,0.0,0.0,0.0,0.0,0.0,0.0,0.0,0.0,0.0,0.0,0.0,0.0,0.0,0.0,0.0,2.6499,2.6499,2.6499,2.6499,2.6499,2.6499,2.6499,2.6499,2.6499,2.6499,2.6499,2.6499,2.6499,2.6499,2.6499,2.6499,2.6499,2.6499,2.6512,2.709,2.7217,2.7226,2.6816,2.708,0.0,0.0,2.7715,2.7963,2.7748,2.7894,2.7969,2.7969,2.8164,2.8291,2.8291,2.8291,2.8291,2.8291,2.8291,2.8291,2.8291,2.7891,2.7461,2.7021,2.6602,2.6172,2.5693,2.5078,2.4639,2.4394,2.3564,2.3047,2.2789,2.3291,2.4209,0.0,0.0,0.0,2.5693,2.5693,2.5693,2.5693,2.5693,2.5459,2.5057,2.4719,2.4195,2.357,2.3213,2.3091,2.3091,2.3091,2.2895,2.2692,2.2727,2.2311,2.1858,2.1725,2.1541,2.132,2.1099,2.1215,2.132,2.1244,2.1282,2.1397,2.1617,2.1753,2.1939,2.2253,2.2449,0.0,0.0,0.0,0.0,0.0,0.0,2.431,0.0,0.0,0.0,0.0,0.0,0.0,0.0,0.0,0.0,0.0,0.0,0.0,0.0,0.0,0.0,0.0,0.0,0.0,2.6499,2.6499,2.6499,2.6499,2.6499,2.6499,2.6499,2.6499,2.6499,2.6499,2.6499,2.6499,2.6499,2.6499,2.6499,2.6499,2.6499,2.6499,2.6537,2.7738,2.7796,2.7796,2.7559,2.7676,2.7826,2.7728,2.8027,2.8174,2.7894,2.7855,2.7855,2.7855,2.8096,2.8291,2.8291,2.8291,2.8291,2.8291,2.8291,2.8291,2.8291,2.7978,2.7598,2.7168,2.6738,2.6309,0.0,2.5332,2.4893,2.4541,2.4033,0.0,0.0,0.0,0.0,0.0,0.0,2.5693,2.5693,2.5693,2.5693,2.5693,2.5693,2.5518,2.5204,2.5006,2.4653,2.4162,2.3595,2.3344,2.3266,2.3266,2.3179,2.3105,2.3217,2.2899,2.2471,2.2316,2.1998,2.1663,2.1561,2.154,2.1617,2.1721,2.1655,2.1617,2.1769,2.1655,2.1799,2.2592,2.2827,0.0,0.0,0.0,0.0,0.0,0.0,0.0,0.0,0.0,0.0,0.0,0.0,0.0,0.0,0.0,0.0,0.0,0.0,0.0,0.0,0.0,0.0,2.6675,0.0,2.6499,0.0,2.6499,2.6499,2.6499,2.6499,2.6499,2.6499,2.6499,2.6499,2.6499,2.6499,2.6499,2.6499,2.6499,2.6499,2.6499,2.6499,2.6499,2.6575,2.7796,2.7969,0.0,0.0,0.0,0.0,2.7777,2.8027,2.8281,2.8242,2.8232,2.8232,2.8232,2.8271,2.8291,2.8291,2.8291,2.8291,2.8291,2.8291,2.8291,2.8291,2.8252,2.8037,2.7669,2.7178,2.6748,0.0,0.0,2.5096,2.5037,2.417,0.0,0.0,0.0,0.0,0.0,2.5566,2.5693,2.5693,2.5693,2.5693,2.5693,2.5693,2.5664,2.5625,2.5461,2.5109,2.4719,2.4461,2.4085,2.3711,2.3711,2.3724,2.3657,2.3509,2.342,2.3268,2.2639,2.2431,2.2442,2.2515,2.2155,2.1911,2.2446,2.2155,2.1769,2.1807,2.1807,2.2123,2.3372,2.266,2.2412,0.0,0.0,0.0,0.0,0.0,2.6414,2.6677,0.0,0.0,0.0,0.0,0.0,0.0,0.0,0.0,0.0,0.0,0.0,2.7228,0.0,2.6788,2.7241,2.6738,0.0,2.6499,2.6499,2.6499,2.6499,2.6499,2.6499,2.6499,2.6499,2.6499,2.6499,2.6499,2.6499,2.6499,2.6499,2.6499,2.6499,2.6499,2.6499,2.6575,0.0,0.0,0.0,0.0,0.0,0.0,0.0,2.8184,2.8291,2.8291,2.8291,2.8291,2.8291,2.8291,2.8291,2.8291,2.8291,2.8291,2.8291,2.8291,2.8291,2.8291,2.8291,2.8096,2.7728,2.7236,2.6807,0.0,0.0,2.5332,2.5106,2.4717,0.0,0.0,0.0,2.5215,2.5478,2.5615,2.5693,2.5693,2.5693,2.5693,2.5742,2.5868,2.5965,2.5954,2.5899,2.5597,2.5199,2.4978,2.4432,2.3797,2.3797,2.3927,2.4026,2.3939,2.3832,2.367,2.3422,2.3303,2.3223,2.3297,2.3251,2.3243,2.35,2.3005,2.2515,2.2515,2.2515,2.2682,2.3204,2.3453,2.3718,0.0,0.0,0.0,0.0,0.0,0.0,2.7619,0.0,2.6866,0.0,0.0,0.0,0.0,0.0,0.0,0.0,0.0,0.0,2.6813,0.0,2.66,2.6826,2.66,2.6499,2.6499,2.6499,2.6499,2.6499,2.6499,2.6499,2.6499,2.6499,2.6499,2.6499,2.6499,2.6499,2.6499,2.6499,2.6499,2.6499,2.6499,2.6499,2.6524,3.0182,0.0,2.8802,0.0,2.8555,2.8361,2.8295,2.8291,2.8291,2.8291,2.8291,2.8291,2.8291,2.8291,2.8291,2.8291,2.8291,2.8291,2.8291,2.8291,2.8291,2.8291,2.8291,0.0,2.7851,2.7432,2.7002,2.6572,2.6143,2.5703,2.5264,0.0,0.0,0.0,2.5264,2.5439,2.5693,2.5693,2.5693,2.5693,2.5693,2.5927,2.6245,2.6149,2.6322,2.6607,2.6476,2.63,2.61,2.5876,2.5438,2.4975,2.4497,2.4509,2.4733,2.4978,2.4966,2.4762,2.4386,2.4263,2.4237,2.4055,2.4055,2.4156,2.4409,2.3888,2.3313,2.3313,2.3313,2.3386,2.3607,2.4172,2.4627,2.4639,0.0,0.0,0.0,0.0,0.0,2.8125,2.774,2.7231,2.6553,0.0,0.0,0.0,0.0,0.0,0.0,0.0,0.0,0.0,0.0,0.0,0.0,2.6499,2.6499,2.6499,2.6499,2.6499,2.6499,2.6499,2.6499,2.6499,2.6499,2.6499,2.6499,2.6499,2.6499,2.6499,2.6499,2.6499,2.6499,2.6499,2.6499,2.6499,3.137,3.1575,3.1206,3.0078,2.9869,2.9513,2.8441,2.8291,2.8291,2.8291,2.8291,2.8291,2.8291,2.8291,2.8291,2.8291,2.8291,2.8291,2.8291,2.8291,2.8291,0.0,0.0,2.8291,2.8281,2.7924,2.7441,2.7012,0.0,0.0,2.5684,0.0,2.5684,2.5684,2.5684,2.5684,2.5693,2.5693,2.5693,2.5693,2.5693,2.6428,2.7447,2.6466,2.6829,2.7782,2.7156,2.7165,2.7521,2.7247,2.7519,2.7702,2.6234,2.5788,2.5944,2.6812,2.7058,2.6792,2.5536,2.5396,2.5459,2.4929,2.445,2.4301,2.5087,2.4671,2.4084,2.4084,2.4084,2.4337,2.5123,2.4636,2.451,2.5791,0.0,0.0,0.0,0.0,0.0,2.8125,2.6883,2.6166,2.648,0.0,0.0,0.0,0.0,0.0,0.0,0.0,0.0,2.6499,2.6499,0.0,2.6499,2.6499,2.6499,2.6499,2.6499,2.6499,2.6499,2.6499,2.6499,2.6499,2.6499,2.6499,2.6499,2.6499,2.6499,2.6499,2.6499,2.6499,2.6499,2.6499,2.6499,2.6499,3.2488,3.2083,3.1472,3.1114,3.1062,3.0959,3.0598,3.0557,3.0557,3.0557,2.988,2.9418,2.9418,2.8751,2.8291,0.0,2.8291,2.8291,0.0,2.8291,2.8291,2.8291,2.8291,2.8291,2.8291,2.7933,2.765,2.7461,0.0,0.0,0.0,2.7767,2.7767,2.7757,2.7898,2.7945,2.7945,2.8121,2.8215,2.8215,2.8215,2.8448,2.8808,2.8669,2.8844,2.9166,2.9165,2.9025,2.8879,2.8777,2.8653,2.8491,2.8274,2.7508,2.673,2.7028,2.711,2.7035,2.659,2.6729,2.6922,2.6756,2.6478,2.6343,2.6616,2.5778,2.4743,2.4217,2.4528,2.5004,2.5229,2.5546,2.5975,2.6754,0.0,0.0,0.0,0.0,0.0,2.8198,2.8014,2.7592,0.0,2.6967,0.0,0.0,0.0,0.0,0.0,0.0,0.0,0.0,2.6499,0.0,2.6499,2.6499,2.6499,2.6499,2.6499,2.6499,2.6499,2.6499,2.6499,2.6499,2.6499,2.6499,2.6499,2.6499,2.6499,2.6499,2.6499,2.6499,2.6499,2.6499,2.6499,2.6499,3.361,3.325,3.2689,3.2286,3.2185,3.2083,3.1677,3.1575,3.1575,3.1575,3.0959,3.0546,3.0546,2.9932,0.0,2.8398,2.8291,2.8441,2.8857,2.891,2.9112,2.9523,2.9112,2.891,2.891,0.0,0.0,2.8313,2.8458,2.8663,2.9011,2.8814,2.868,2.8727,2.8912,2.9004,2.9004,2.9269,2.9407,2.9407,2.9407,2.967,3.0045,2.9852,3.009,3.0463,3.0249,3.0232,3.0241,3.0053,3.0021,3.0091,3.0085,2.9479,2.8631,2.825,2.8091,2.8051,2.7718,2.7857,2.8003,2.7671,2.7434,2.7266,2.7052,2.6342,2.5629,2.5099,2.5406,2.5734,2.5734,2.6164,2.6675,2.7228,0.0,2.8298,2.8813,0.0,0.0,0.0,0.0,0.0,0.0,2.7582,0.0,0.0,0.0,0.0,0.0,0.0,0.0,2.6499,2.6499,0.0,2.6499,2.6499,2.6499,2.6499,2.6499,2.6499,2.6499,2.6499,2.6499,2.6499,2.6499,2.6499,2.6499,2.6499,2.6499,2.6499,2.6499,2.6499,2.6499,2.6499,2.6499,2.6524,3.4617,3.4775,0.0,0.0,3.33,0.0,3.1982,3.183,3.183,3.183,3.1779,3.1728,3.1728,3.1626,3.0753,2.8708,0.0,0.0,0.0,3.0026,3.0494,3.1575,3.0598,3.0026,3.0068,3.0026,2.986,2.9514,2.9629,2.969,2.9719,2.9187,2.8945,2.8958,2.9143,2.9235,2.928,2.9544,2.9681,2.9681,2.9681,3.0316,3.1223,3.035,3.0744,3.1581,3.0711,3.0935,3.1641,3.1146,3.1546,3.2177,3.1625,3.1449,3.1235,3.0168,2.9854,2.9674,2.8803,2.8776,2.8787,2.7936,2.757,2.7216,2.6625,2.6499,2.6499,2.6499,2.6499,2.6499,2.6499,2.6524,2.6738,2.7291,2.7808,2.8348,2.8875,0.0,0.0,0.0,0.0,0.0,0.0,2.7858,2.8398,0.0,0.0,0.0,0.0,0.0,2.6499,2.6499,2.6499,2.6499,2.6499,2.6499,2.6499,2.6499,2.6499,2.6499,2.6499,2.6499,2.6499,2.6499,2.6499,2.6499,2.6499,2.6499,2.6499,2.6499,2.6499,2.6499,2.6499,2.6499,2.6512,2.6625,0.0,0.0,3.4726,3.447,3.4421,3.4323,3.4066,3.4066,3.4066,3.4066,3.335,3.2801,3.2801,3.2083,3.137,3.0856,3.0805,3.0908,3.1165,3.1216,3.141,3.1796,3.141,3.1359,3.1735,3.14,3.1334,3.1659,3.1716,3.1756,3.1782,3.1641,3.1461,3.1238,3.1472,3.1681,3.1845,3.2108,3.2208,3.2208,3.2208,3.2382,3.2612,3.2382,3.2481,3.2711,3.2481,3.2581,3.2742,3.2605,3.2696,3.2767,3.2202,3.2014,3.18,3.0733,3.0419,3.0292,2.9658,2.9524,2.9552,2.9334,2.8587,2.7657,2.6713,2.6499,2.6499,2.6499,2.6499,2.6499,2.6499,2.6839,2.7304,2.7821,2.8373,2.8938,2.9503,2.9327,0.0,0.0,2.8549,2.8499,2.7394,2.8561,2.9089,0.0,0.0,0.0,0.0,0.0,2.6499,2.6499,2.6499,2.6499,2.6499,2.6499,2.6499,2.6499,2.6499,2.6499,2.6499,2.6499,2.6499,2.6499,2.6499,2.6499,2.6499,2.6499,2.6499,2.6499,2.6499,2.6499,2.6499,2.6499,2.6763,2.714,3.4775,3.4884,3.4969,3.4969,3.5078,3.5175,3.5175,3.5175,3.5175,3.5175,3.4665,3.4311,3.4311,3.3796,3.3449,3.3449,3.2336,3.183,3.2286,3.2437,3.2778,3.3377,3.2928,3.2828,3.3055,3.2828,3.3051,3.3836,3.3599,3.3505,3.3523,3.3314,3.308,3.2922,3.317,3.336,3.3481,3.3746,3.3822,3.3809,3.3558,3.3458,3.342,3.3169,3.3124,3.3124,3.3124,3.3124,3.3124,3.3124,3.3124,3.3018,3.2704,3.2604,3.2441,3.1587,3.0997,3.0557,3.0256,2.998,2.9729,2.9465,2.8938,2.826,2.7406,2.7052,2.6939,2.719,2.7052,2.6952,2.7203,2.7457,2.7846,2.8398,2.8487,2.8712,2.9315,2.8913,0.0,2.8134,2.8549,2.865,2.8097,2.8863,2.9139,2.8524,0.0,0.0,2.7341,2.6788,2.6499,2.6499,2.6499,2.6499,2.6499,2.6499,2.6499,2.6499,2.6499,2.6499,2.6499,2.6499,2.6499,2.6499,2.6499,2.6499,2.6499,2.6499,2.6499,2.6499,2.6499,2.6499,2.6524,2.6776,2.7065,2.7356,3.4932,3.5126,3.5271,3.5271,3.5464,3.562,3.562,3.562,3.562,3.562,3.562,3.562,3.562,3.562,3.562,3.562,3.3499,3.2588,3.3499,3.3796,3.4311,3.5271,3.4653,3.4288,3.4337,3.4337,3.4751,3.562,3.5153,3.4895,3.4809,3.4318,3.4093,3.4053,3.4272,3.4433,3.4466,3.4635,3.468,3.4675,3.4211,3.3972,3.3859,3.347,3.3219,3.3124,3.3212,3.3156,3.3124,3.3124,3.3124,3.3124,3.3124,3.3124,3.298,3.2491,3.1637,3.0821,3.0658,3.0218,2.9654,2.9038,2.8888,2.875,2.8235,2.7745,2.7544,2.8009,2.7733,2.7544,2.8021,2.8172,2.8386,2.8813,2.8574,2.8499,2.8838,0.0,2.8072,2.7996,2.8398,2.865,2.865,2.8712,2.8762,2.8762,2.7858,0.0,0.0,2.6788,2.6499,2.6499,2.6499,2.6499,2.6499,2.6499,2.6499,2.6499,2.6499,2.6499,2.6499,2.6499,2.6499,2.6499,2.6499,2.6499,2.6499,2.6499,2.6499,2.6499,2.6499,2.6549,2.6675,2.714,2.7394,2.7657,3.5476,3.5524,3.5524,3.5524,3.5572,3.562,3.562,3.562,3.562,3.562,3.562,3.562,3.562,3.562,3.562,3.562,3.5211,3.5066,3.5211,3.5259,3.5464,3.5872,3.5512,3.5548,3.6013,3.58,3.5656,3.562,3.5534,3.5252,3.4809,3.4723,3.4533,3.433,3.4388,3.4466,3.468,3.468,3.468,3.4668,3.4625,3.4311,3.3935,3.4324,3.3884,3.3174,3.3608,3.347,3.3124,3.3124,3.3124,3.3124,3.3124,3.3124,3.3056,3.2968,3.2478,3.1763,3.0859,3.0218,2.9654,2.9038,2.8888,2.875,2.8235,2.8047,2.7996,2.8084,2.8034,2.8009,2.8084,2.8486,2.8787,2.8875,2.9264,2.939,2.895,0.0,2.7934,2.7469,2.7494,2.7544,2.7544,2.7959,2.8235,2.8235,2.7645,2.7281,2.7281,2.6788,2.6499,2.6499,2.6499,2.6499,2.6499,2.6499,2.6499,2.6499,2.6499,2.6499,2.6499,2.6499,2.6499,2.6499,2.6499,2.6499,2.6499,2.6499,2.6499,2.6499,2.6499,2.6788,2.7203,2.7291,2.7871,2.8662,3.562,3.5716,3.5824,3.5824,3.5943,3.6038,3.6038,3.6038,3.6038,3.6038,3.6038,3.6038,3.6038,3.6038,3.6038,3.6038,3.6038,3.6038,3.6038,3.5908,3.5872,3.6015,3.6003,3.6133,3.6405,3.6275,3.6133,3.6038,3.6038,3.5901,3.5652,3.5652,3.5575,3.5478,3.5478,3.5524,3.5604,3.5604,3.5604,3.5579,3.5232,3.4969,3.4776,3.4738,3.4412,3.396,3.3909,3.3734,3.347,3.3224,3.3124,3.3124,3.3124,3.3124,3.3124,3.3124,3.2453,3.1599,3.0821,3.0218,2.9729,2.9465,2.939,2.9327,2.9076,2.8775,2.8637,2.895,2.8762,2.8649,2.8963,2.9227,2.939,2.939,2.9365,0.0,0.0,2.8448,2.8122,2.816,2.7908,2.7846,2.8134,2.7858,2.7657,2.7657,2.719,2.6876,2.6876,2.6637,2.6499,2.6499,2.6499,2.6499,2.6499,2.6499,2.6499,2.6499,2.6499,2.6499,2.6499,2.6499,2.6499,2.6499,2.6499,2.6499,2.6499,2.6499,2.6499,2.6499,2.6499,2.6839,2.7354,2.762,2.8235,2.8938,3.5812,3.5955,3.6098,3.6098,3.6275,3.6405,3.6405,3.6405,3.6405,3.6405,3.6405,3.6405,3.6405,3.6405,3.6405,3.6405,3.6405,3.6405,3.6405,3.6181,3.6098,3.6098,3.6163,3.6279,3.6405,3.6279,3.6279,3.6405,3.6405,3.6405,3.6405,3.6405,3.6405,3.6405,3.6405,3.6405,3.6405,3.6405,3.6405,3.6367,3.5906,3.5621,3.547,3.5215,3.4951,3.4675,3.4387,3.411,3.3834,3.3407,3.3181,3.3124,3.3124,3.3124,3.3124,3.3124,3.2365,3.1436,3.0796,3.0306,2.9955,2.9829,2.9792,2.9792,2.9792,2.9453,2.9252,2.9691,2.944,2.9264,2.9716,2.9792,2.9792,2.9792,0.0,0.0,0.0,2.8448,2.826,2.865,2.8134,2.7946,2.8499,2.7657,2.7128,2.7128,2.6738,2.6499,2.6499,2.6499,2.6499,2.6499,2.6499,2.6499,2.6499,2.6499,2.6499,2.6499,2.6499,2.6499,2.6499,2.6499,2.6499,2.6499,2.6499,2.6499,2.6499,2.6499,2.6499,2.6499,2.6499,2.6901,2.7519,2.7946,2.8536,2.9202,3.6358,3.6358,3.6358,3.6358,3.6405,3.6405,3.6405,3.6405,3.6405,3.6405,3.6405,3.6405,3.6405,3.6405,3.6405,3.6405,3.6405,3.6405,3.6405,3.6358,3.6358,3.6358,3.5834,3.5843,3.6405,3.5868,3.5855,3.6405,3.6405,3.6405,3.6405,3.6405,3.6405,3.6405,3.6405,3.6405,3.6405,3.6405,3.6405,3.6405,3.6367,3.5994,3.5558,3.6069,3.5604,3.4776,3.5207,3.4718,3.3884,3.3847,3.3495,3.3124,3.3124,3.3124,3.3124,3.3124,3.2641,3.1926,3.0896,3.0583,3.0432,2.9917,2.9792,2.9792,2.9792,2.9767,2.9741,2.9779,2.9754,2.9741,2.9779,2.9792,2.9792,2.9792,0.0,0.0,2.8963,2.8448,2.8122,2.816,2.7266,2.6839,2.7392,2.6901,2.6549,2.6549,2.6512,2.6499,2.6499,2.6499,2.6499,2.6499,2.6499,2.6499,2.6499,2.6499,2.6499,2.6499,2.6499,2.6499,2.6499,2.6499,2.6499,2.6499,2.6499,2.6499,2.6499,2.6499,2.6499,2.6499,2.6499,2.714,2.8047,2.8097,2.88,2.9729,3.6405,3.6405,3.6405,3.6405,3.6405,3.6405,3.6405,3.6405,3.6405,3.6405,3.6405,3.6405,3.6405,3.6405,3.6405,3.6405,3.6405,3.6405,3.6405,3.6405,3.6405,3.6405,3.6157,3.6157,3.6405,3.6157,3.6157,3.6405,3.6405,3.6405,3.6405,3.6405,3.6405,3.6405,3.6405,3.6405,3.6405,3.6405,3.6405,3.6405,3.6405,3.6279,3.6069,3.6329,3.6153,3.5717,3.5545,3.5232,3.4818,3.4525,3.4274,3.4035,3.3696,3.3583,3.352,3.3224,3.2918,3.2579,3.1813,3.1122,3.0482,2.993,2.9792,2.9792,2.9792,2.9792,2.9792,2.9792,2.9792,2.9792,2.9792,2.9792,2.9792,2.9792,0.0,2.9716,2.9503,2.9277,2.9026,2.8624,2.7946,2.7431,2.7293,2.6813,2.6499,2.6499,2.6499,2.6499,2.6499,2.6499,2.6499,2.6499,2.6499,2.6499,2.6499,2.6839,2.6839,2.6499,2.6839,2.6826,2.6499,2.6499,2.6499,2.6499,2.6499,2.6688,2.6977,2.6637,2.6901,2.7444,2.714,2.7645,2.8612,2.8612,2.9114,2.9792,3.6405,3.6405,3.6405,3.6405,3.6405,3.6405,3.6405,3.6405,3.6405,3.6405,3.6405,3.6405,3.6405,3.6405,3.6405,3.6405,3.6405,3.6405,3.6405,3.6405,3.6405,3.6405,3.6194,3.6194,3.6405,3.6194,3.6194,3.6405,3.6194,3.6194,3.6405,3.6194,3.6194,3.6405,3.6405,3.6405,3.6405,3.6405,3.6405,3.6405,3.6405,3.6405,3.6405,3.6405,3.6405,3.6367,3.5931,3.5646,3.5445,3.5069,3.4818,3.4663,3.4274,3.4035,3.3796,3.3244,3.3124,3.2955,3.2365,3.1675,3.0947,3.0231,2.9917,2.9792,2.9792,2.9792,2.9792,2.9792,2.9792,2.9792,2.9792,2.9792,2.9792,2.9792,2.9792,2.9792,2.9792,2.9641,2.9377,2.8938,2.8285,2.7695,2.7354,2.6813,2.6499,2.6499,2.6499,2.6499,2.6499,2.6499,2.6499,2.6499,2.6499,2.6499,2.6499,2.6876,2.6876,2.6499,2.6876,2.6864,2.6499,2.6499,2.6499,2.6499,2.6675,2.6964,2.7291,2.6901,2.7268,2.8047,2.7494,2.7959,2.8888,2.8888,2.9289,2.9792,3.6405,3.6405,3.6405,3.6405,3.6405,3.6405,3.6405,3.6405,3.6405,3.6405,3.6405,3.6405,3.6405,3.6405,3.6405,3.6405,3.6405,3.6405,3.6405,3.6405,3.6405,3.6405,3.5843,3.5805,3.6405,3.583,3.5818,3.6405,3.5818,3.583,3.6392,3.5793,3.583,3.6405,3.6405,3.6405,3.6405,3.6405,3.6405,3.6405,3.6405,3.6405,3.6405,3.6405,3.6405,3.6405,3.6405,3.6019,3.5508,3.5508,3.5144,3.4726,3.4726,3.4349,3.3796,3.3244,3.3124,3.2955,3.2378,3.2215,3.1964,3.0884,3.0218,2.9804,2.9804,2.9804,2.9804,2.9792,2.9792,2.9792,2.9792,2.9792,2.9792,2.9792,2.9792,2.9792,2.9792,2.9302,2.8888,2.8888,2.7959,2.7281,2.7268,2.6813,2.6499,2.6499,2.6499,2.6499,2.6499,2.6499,2.6499,2.6499,2.6499,2.6499,2.6499,2.6499,2.6499,2.6499,2.6499,2.6499,2.6499,2.6499,2.6499,2.6524,2.7077,2.7281,2.7281,2.7293,2.7607,2.8059,2.7507,2.7971,2.89,2.89,2.9302,2.9792,3.6405,3.6405,3.6405,3.6405,3.6405,3.6405,3.6405,3.6405,3.6405,3.6405,3.6405,3.6405,3.6405,3.6405,3.6405,3.6405,3.6405,3.6405,3.6405,3.6405,3.6405,3.6405,3.6207,3.6194,3.6405,3.6194,3.6194,3.6405,3.5818,3.5583,3.578,3.5182,3.5219,3.5793,3.5793,3.5994,3.6405,3.6405,3.6405,3.6405,3.6405,3.6405,3.6405,3.6405,3.6405,3.6405,3.6405,3.6304,3.6119,3.6119,3.6006,3.5805,3.537,3.4605,3.3872,3.3709,3.3382,3.3043,3.2867,3.2516,3.2039,3.1336,3.1035,3.0821,3.0457,3.0369,3.0256,2.988,2.9792,2.9792,2.9792,2.9792,2.9792,2.9792,2.9792,2.9792,2.9792,2.9641,2.9239,2.8448,2.8059,2.7557,2.6813,2.6587,2.6499,2.6499,2.6499,2.6499,2.6499,2.6499,2.6499,2.6499,2.6499,2.6499,2.6499,2.6876,2.6876,2.6499,2.6889,2.6876,2.6512,2.6901,2.6864,2.6549,2.7457,2.7645,2.7318,2.7708,2.8185,2.8662,2.8499,2.8888,2.9528,2.9528,2.9641,2.9792,3.6405,3.6405,3.6405,3.6405,3.6405,3.6405,3.6405,3.6405,3.6405,3.6405,3.6405,3.6405,3.6405,3.6405,3.6405,3.6405,3.6405,3.6405,3.6405,3.6405,3.6405,3.6405,3.6405,3.6405,3.6405,3.6405,3.6405,3.6405,3.5818,3.5608,3.5855,3.5031,3.4969,3.5495,3.527,3.5403,3.5717,3.5717,3.5717,3.573,3.5956,3.6031,3.6056,3.6329,3.6405,3.6405,3.6405,3.6405,3.6405,3.6405,3.6405,3.6304,3.5671,3.5044,3.4462,3.4022,3.3658,3.3357,3.3174,3.2817,3.2478,3.2139,3.1712,3.1311,3.0997,3.0922,3.0771,3.0231,3.0118,3.0043,2.9829,2.9792,2.9792,2.9792,2.9792,2.9792,2.9792,2.9792,2.9453,2.8536,2.8235,2.7758,2.6901,2.6625,2.6499,2.6499,2.6499,2.6499,2.6499,2.6499,2.6499,2.6499,2.6499,2.66,2.6813,2.7153,2.7153,2.6826,2.6939,2.6927,2.6839,2.7165,2.714,2.6889,2.7946,2.8247,2.7959,2.8298,2.8762,2.9252,2.8976,2.9289,2.9792,2.9792,2.9792,2.9792,3.6405,3.6405,3.6405,3.6405,3.6405,3.6405,3.6405,3.6405,3.6405,3.6405,3.6405,3.6405,3.6405,3.6405,3.6405,3.6405,3.6405,3.6405,3.6405,3.6405,3.6405,3.6405,3.6405,3.6405,3.6405,3.6405,3.6405,3.6405,3.5818,3.5805,3.6304,3.5165,3.4893,3.5408,3.4856,3.4675,3.468,3.468,3.468,3.4718,3.5219,3.542,3.5483,3.6081,3.6329,3.6342,3.6392,3.6405,3.6405,3.6405,3.6405,3.6317,3.5768,3.5533,3.5307,3.4349,3.3972,3.3796,3.3282,3.3162,3.3124,3.3124,3.2303,3.1524,3.1474,3.1461,3.1323,3.0796,3.0645,3.0457,2.9955,2.9829,2.9792,2.9792,2.9792,2.9792,2.9792,2.9792,2.9578,2.8963,2.8448,2.7896,2.7344,2.6813,2.6499,2.6499,2.6499,2.6499,2.6499,2.6499,2.6512,2.6562,2.6562,2.6839,2.7392,2.7356,2.7331,2.7268,2.6801,2.6801,2.7241,2.7341,2.7331,2.7344,2.8499,2.8913,2.8825,2.8925,2.9289,2.9666,2.9189,2.9327,2.9792,2.9792,2.9792,2.9792,3.6405,3.6405,3.6405,3.6405,3.6405,3.6405,3.6405,3.6405,3.6405,3.6405,3.6405,3.6405,3.6405,3.6405,3.6405,3.6405,3.6405,3.6405,3.6405,3.6405,3.6405,3.6405,3.6405,3.6405,3.6405,3.6405,3.6405,3.6405,3.5818,3.5558,3.5658,3.46,3.4374,3.4831,3.4324,3.4324,3.468,3.468,3.468,3.4726,3.4806,3.4856,3.4919,3.547,3.5683,3.578,3.6207,3.6405,3.6405,3.6405,3.6405,3.6392,3.6267,3.5893,3.5445,3.5207,3.4575,3.3872,3.3759,3.3407,3.3124,3.3124,3.2893,3.2591,3.2139,3.2039,3.1876,3.1336,3.0896,3.0583,3.0457,3.008,2.9792,2.9792,2.9792,2.9792,2.9792,2.9792,2.9578,2.8963,2.8448,2.7896,2.7344,2.6813,2.6499,2.6499,2.6499,2.6499,2.6499,2.6499,2.6688,2.7128,2.714,2.7369,2.7921,2.7921,2.7708,2.7281,2.719,2.6977,2.67,2.7532,2.7695,2.7404,2.8925,2.9101,2.8348,2.9239,2.9415,2.9151,2.9478,2.9679,2.9792,2.9792,2.9792,2.9792,3.6405,3.6405,3.6405,3.6405,3.6405,3.6405,3.6405,3.6405,3.6405,3.6405,3.6405,3.6405,3.6405,3.6405,3.6405,3.6405,3.6405,3.6405,3.6405,3.6405,3.6405,3.6405,3.6405,3.6405,3.6405,3.6405,3.6405,3.6405,3.6069,3.5931,3.5918,3.5077,3.47,3.4713,3.4424,3.4311,3.4349,3.4613,3.4575,3.4349,3.4613,3.4562,3.4399,3.4893,3.527,3.5533,3.5868,3.6144,3.6405,3.6405,3.6405,3.6405,3.6405,3.6157,3.5881,3.5571,3.5094,3.4562,3.4035,3.3684,3.3407,3.3144,3.3124,3.3006,3.2692,3.2629,3.2466,3.1901,3.1348,3.0909,3.0658,3.0168,2.9792,2.9792,2.9792,2.9792,2.9792,2.9792,2.9679,2.9377,2.885,2.8185,2.7369,2.7052,2.6889,2.6889,2.6889,2.7002,2.7231,2.7278,2.7369,2.767,2.767,2.7946,2.8499,2.8461,2.8348,2.8059,2.7795,2.7657,2.7657,2.8235,2.8348,2.8134,2.9289,2.9453,2.8963,2.9553,2.9616,2.9365,2.9679,2.9792,2.9792,2.9792,2.9792,2.9869,3.6405,3.6405,3.6405,3.6405,3.6405,3.6405,3.6405,3.6405,3.6405,3.6405,3.6405,3.6405,3.6405,3.6405,3.6405,3.6405,3.6405,3.6405,3.6405,3.6405,3.6405,3.6405,3.6405,3.6405,3.6405,3.6405,3.6405,3.6405,3.6405,3.6405,3.6405,3.5805,3.5257,3.4818,3.4718,3.4462,3.4073,3.4525,3.4462,3.4085,3.4537,3.4399,3.396,3.4512,3.4906,3.5245,3.5433,3.5893,3.6405,3.6405,3.6405,3.6405,3.6405,3.6405,3.6317,3.5818,3.5571,3.5282,3.4311,3.3972,3.3771,3.3219,3.3124,3.3124,3.3124,3.3124,3.2943,3.2466,3.1913,3.1399,3.0972,3.0369,2.993,2.993,2.9854,2.9792,2.9792,2.9792,2.9792,2.9792,2.9289,2.8499,2.7519,2.7419,2.7419,2.7419,2.7419,2.762,2.8084,2.8109,2.8147,2.8247,2.8247,2.8511,2.9026,2.9038,2.9038,2.9026,2.8612,2.8536,2.875,2.885,2.8888,2.8925,2.9541,2.9792,2.9792,2.9792,2.9792,2.9792,2.9792,2.9792,2.9792,2.9792,2.9895,3.0062,3.6405,3.6405,3.6405,3.6405,3.6405,3.6405,3.6405,3.6405,3.6405,3.6405,3.6405,3.6405,3.6405,3.6405,3.6405,3.6405,3.6405,3.6405,3.6405,3.6405,3.6405,3.6405,3.6405,3.6405,3.6405,3.6405,3.6405,3.6405,3.6405,3.6405,3.6405,3.5805,3.5458,3.537,3.4893,3.4675,3.4613,3.4688,3.4675,3.4613,3.4688,3.4399,3.396,3.4512,3.4474,3.4248,3.5157,3.5893,3.6405,3.6405,3.6405,3.6405,3.6405,3.6405,3.6392,3.6317,3.5918,3.5357,3.4776,3.4261,3.3771,3.3219,3.3124,3.3124,3.3124,3.3124,3.3099,3.3023,3.2503,3.2077,3.2014,3.1185,3.0507,3.0507,3.0105,2.9792,2.9792,2.9792,2.9792,2.9792,2.9289,2.865,2.8059,2.7996,2.7996,2.7996,2.7996,2.8021,2.8109,2.8109,2.8323,2.8762,2.8775,2.9101,2.9666,2.9679,2.9679,2.9679,2.9591,2.9089,2.8235,2.8675,2.8888,2.8925,2.9541,2.9792,2.9792,2.9792,2.9792,2.9792,2.9792,2.9792,2.9792,2.9792,3.0203,3.0796,3.6405,3.6405,3.6405,3.6405,3.6405,3.6405,3.6405,3.6405,3.6405,3.6405,3.6405,3.6405,3.6405,3.6405,3.6405,3.6405,3.6405,3.6405,3.6405,3.6405,3.6405,3.6405,3.6405,3.6405,3.6405,3.6405,3.6405,3.6405,3.6405,3.6405,3.6405,3.6119,3.583,3.5495,3.5604,3.5466,3.5157,3.5516,3.5466,3.5144,3.5144,3.4663,3.3922,3.4173,3.411,3.401,3.4801,3.5441,3.5906,3.5906,3.6107,3.6405,3.6405,3.6405,3.6405,3.6405,3.6194,3.5881,3.5282,3.4956,3.4568,3.3759,3.3533,3.3458,3.3156,3.3124,3.3124,3.3124,3.2616,3.2215,3.2215,3.1336,3.062,3.062,3.0156,2.9792,2.9792,2.9792,2.9792,2.9792,2.9566,2.9189,2.8612,2.8561,2.8561,2.8561,2.8561,2.8699,2.9026,2.9051,2.9164,2.9402,2.9415,2.9528,2.9792,2.9792,2.9792,2.9792,2.9792,2.9528,2.9063,2.9302,2.9415,2.9428,2.9679,2.9792,2.983,3.0241,3.0406,3.0444,3.0897,3.0872,3.0621,3.0722,3.0972,3.1378]}]]